GFSNGP_sfc_thetae_009.txt.gz
Theta_e
293 293 293 292 291 291 290 290 283 287 290 295 296 298 298 299 299 299 298 298 297 296 295 295 295 294 293 293 295 296 297 297 296 296 296 294 293 293 292 290 288 287 287 287
286 293 292 289 291 291 291 292 291 291 291 298 298 298 298 298 298 296 296 296 296 296 295 294 293 292 293 292 292 293 292 293 296 295 295 295 295 293 290 288 286 286 286 286
282 289 287 281 288 293 293 294 292 285 292 297 295 296 295 295 295 294 294 295 295 295 294 293 291 292 290 290 291 291 292 294 295 294 294 293 294 292 290 288 285 285 285 285
278 280 273 292 297 296 293 294 294 296 296 296 295 295 295 295 293 293 294 294 295 293 291 291 290 290 290 290 290 290 291 292 293 293 292 293 293 290 288 287 284 283 283 283
279 278 284 291 295 293 290 289 298 296 296 296 297 296 293 296 295 294 293 293 291 291 290 289 289 289 289 289 288 289 291 291 291 291 291 291 291 289 287 284 283 283 283 282
280 273 271 287 296 299 297 282 298 297 295 294 294 283 289 296 296 292 292 292 290 290 289 288 288 288 288 288 287 289 291 291 291 291 290 289 290 289 284 283 283 283 282 282
282 272 282 294 298 299 282 284 297 297 295 294 290 291 295 297 293 292 291 291 291 289 287 287 288 288 287 287 287 290 292 291 291 290 289 289 287 284 283 281 281 279 279 279
282 276 276 298 296 287 292 298 298 296 296 295 295 296 297 294 292 292 290 289 289 288 287 288 289 288 287 287 289 290 290 290 288 288 287 287 284 283 282 280 279 277 271 273
286 284 294 298 296 299 300 298 296 298 299 297 296 297 294 291 291 291 288 287 288 287 287 288 289 288 287 288 289 289 288 286 286 287 287 286 283 280 279 279 276 275 276 271
290 295 297 297 301 301 300 298 299 299 299 299 297 293 292 291 289 288 287 286 287 287 287 287 288 289 288 289 288 287 285 285 284 284 284 284 282 281 279 275 273 277 274 272
289 295 297 299 299 299 299 300 300 301 301 298 293 291 290 288 288 287 286 287 287 286 287 288 288 288 288 288 287 286 285 284 282 282 282 282 281 279 279 277 276 274 272 272
286 296 296 296 299 301 300 300 301 299 293 294 291 289 288 286 287 286 286 287 287 288 288 288 288 288 289 289 286 284 283 282 280 279 278 280 280 279 282 281 281 280 279 271
295 301 300 299 300 300 298 296 295 294 293 289 289 288 287 286 287 287 287 287 287 287 288 288 286 286 288 286 285 283 282 282 279 279 278 278 277 276 272 278 283 283 281 280
302 300 296 298 297 299 296 295 296 293 290 289 288 288 287 286 286 286 286 287 288 287 287 286 286 286 287 287 285 282 282 280 278 276 275 276 275 280 279 276 274 273 279 280
299 300 299 300 299 297 296 291 289 287 287 287 287 287 286 285 285 285 286 287 286 285 285 285 285 287 288 286 285 284 282 278 278 275 273 276 280 279 279 277 278 275 273 275
299 300 300 297 294 291 289 288 287 286 286 286 286 285 287 286 286 285 285 285 282 283 283 281 282 286 286 286 285 284 281 278 276 275 274 279 280 278 278 278 278 276 273 269
296 293 293 291 288 288 288 288 287 286 286 286 284 284 285 283 282 282 282 281 279 281 283 281 284 287 286 286 285 284 278 278 276 276 275 279 279 278 278 277 277 276 272 269
295 293 292 290 288 287 287 286 285 284 284 284 280 275 274 274 279 281 280 282 284 284 284 284 285 286 285 285 284 282 280 277 276 274 277 279 279 279 277 276 276 276 272 271
292 290 290 290 289 286 285 285 285 284 280 278 276 278 277 277 280 281 283 283 283 282 283 285 285 286 285 282 280 276 273 272 278 279 277 274 274 276 278 278 277 277 276 271
289 289 288 288 287 284 283 284 280 283 284 280 274 273 278 275 281 284 284 283 283 284 284 285 286 285 283 282 278 276 271 270 275 277 270 271 275 278 278 279 278 276 273 275
285 286 284 284 283 282 281 281 277 281 283 277 276 279 278 278 277 283 282 282 283 280 283 286 285 286 285 281 277 275 272 270 271 271 271 272 273 276 279 278 278 273 271 274
285 284 281 280 281 283 283 283 283 280 281 284 277 276 273 278 279 282 284 283 283 284 284 285 283 286 285 282 282 280 275 275 276 276 269 272 273 275 276 277 278 278 276 272
285 285 284 280 279 284 284 282 280 282 282 280 279 282 284 281 282 282 281 281 282 285 285 285 285 285 285 285 282 281 280 275 273 274 275 276 279 280 280 279 279 279 278 278
285 285 284 284 280 280 282 285 284 284 282 281 284 285 282 280 281 282 284 285 285 285 285 286 285 285 285 284 282 281 278 279 279 277 275 272 276 278 277 279 279 279 279 279
283 284 284 280 282 283 284 285 284 283 282 283 282 281 279 279 280 284 286 286 285 285 285 286 285 285 285 284 282 281 280 281 280 280 279 278 279 280 278 279 280 280 279 279
284 283 283 285 284 284 284 283 283 283 279 276 276 275 275 276 283 285 285 286 286 285 285 285 285 285 285 285 283 282 282 282 282 282 282 280 281 280 280 280 279 280 280 279
284 281 282 283 283 283 283 280 277 281 281 281 280 277 278 284 285 282 284 285 285 285 285 285 285 285 285 285 285 283 283 283 283 283 282 281 279 279 279 280 279 279 278 278

GFSNGP_sfc_thetae_012.txt.gz
Theta_e
290 291 291 289 289 289 288 288 283 286 288 292 294 294 296 297 296 295 295 295 295 294 293 292 291 290 290 290 291 291 290 290 292 293 293 292 293 292 292 293 293 289 287 287
286 291 291 287 289 289 289 290 289 289 289 295 296 296 295 295 294 294 295 294 294 294 293 291 290 289 289 289 290 290 289 292 293 293 293 292 292 293 291 291 288 288 286 285
280 286 286 280 287 290 290 291 290 285 290 294 293 294 293 292 293 293 293 293 293 293 291 289 288 289 287 288 289 289 290 292 292 293 291 291 292 291 290 289 289 284 283 283
276 278 271 288 294 294 292 292 294 293 293 293 294 294 293 293 292 292 293 293 291 289 288 288 287 287 288 288 288 288 290 290 290 290 289 290 290 289 289 288 284 282 282 282
274 277 281 288 293 291 289 288 295 294 294 294 294 292 291 294 294 293 291 290 289 288 288 287 287 287 287 287 286 288 289 289 289 289 289 289 288 287 287 284 282 282 282 281
280 272 270 283 294 297 295 283 296 296 294 293 292 283 288 295 295 291 290 290 288 287 287 286 287 287 286 286 286 288 289 289 290 289 289 288 287 286 284 282 283 282 281 279
272 270 279 289 295 297 282 283 296 296 294 293 289 289 293 295 292 290 290 288 288 287 286 286 287 286 286 286 286 288 289 289 289 287 286 286 284 283 282 282 281 278 277 278
276 271 275 294 295 287 290 295 297 295 295 294 294 295 296 295 290 290 287 287 287 286 286 287 287 287 286 285 287 288 288 287 286 285 285 285 281 281 281 279 278 276 267 271
285 284 292 295 295 296 298 296 295 294 296 296 295 295 295 291 288 287 285 285 286 285 286 286 287 287 286 287 287 287 286 285 284 284 284 283 280 279 278 278 274 274 276 270
288 293 294 296 297 299 299 297 297 297 297 297 296 295 289 287 286 285 284 284 285 285 285 285 287 288 287 287 287 286 284 283 283 282 282 282 280 280 278 273 272 276 274 272
288 293 295 297 297 298 297 297 298 299 300 298 291 287 287 285 285 285 284 285 285 285 285 285 286 287 287 287 286 284 284 283 282 280 280 281 279 278 278 277 276 273 272 271
287 294 293 295 297 299 297 298 301 298 291 289 288 286 286 285 285 285 284 285 285 285 285 286 286 286 286 286 286 285 283 282 281 278 277 279 279 280 282 281 281 282 280 270
294 299 299 299 298 300 298 297 295 292 288 286 286 286 285 285 285 285 285 285 285 285 285 285 284 284 285 285 285 285 283 282 281 279 278 276 275 276 271 277 282 282 282 280
300 299 295 296 295 298 295 295 292 289 288 287 286 286 285 285 285 284 284 285 285 285 285 284 283 283 285 287 285 284 283 282 279 281 276 276 270 276 279 271 268 270 277 281
299 298 298 298 297 294 294 290 288 286 286 286 286 285 285 284 283 284 284 284 284 284 284 284 284 283 286 286 285 284 284 283 277 274 274 274 272 274 277 276 274 273 270 273
298 297 298 296 293 290 289 288 286 285 285 285 285 284 285 285 284 284 283 284 281 282 283 283 283 283 286 287 285 284 284 281 274 273 276 277 273 273 277 276 275 275 271 268
293 291 289 289 288 288 288 288 287 286 285 285 283 283 284 282 280 282 282 281 280 282 283 284 282 285 286 287 285 284 282 281 280 279 279 278 274 275 275 276 276 273 271 266
294 292 291 290 289 288 286 285 285 285 284 284 280 273 272 271 278 279 279 278 282 283 283 283 283 284 286 286 285 283 280 280 278 279 277 271 275 278 275 274 272 275 274 271
291 290 290 289 288 285 284 284 284 284 279 277 275 275 274 275 278 280 279 277 282 280 282 280 282 284 285 285 284 280 276 271 271 273 274 270 268 271 275 274 274 275 275 270
289 289 288 287 286 284 283 284 279 282 283 278 272 271 276 277 276 277 277 278 282 282 281 282 284 284 284 284 284 278 273 270 271 272 266 267 265 270 278 275 277 275 268 266
285 285 284 283 283 281 279 278 277 279 282 275 274 279 278 278 276 275 275 279 282 278 281 284 282 285 284 285 283 276 272 270 270 271 271 270 267 268 273 279 277 274 269 264
284 283 281 280 280 282 281 280 282 277 277 278 283 279 277 280 277 274 276 280 283 278 283 283 284 285 285 285 284 282 281 280 276 275 273 271 270 270 272 276 273 277 276 273
284 284 283 279 277 282 282 280 278 277 279 279 279 279 278 282 279 279 281 281 280 284 284 284 284 285 285 285 285 283 282 280 279 279 276 275 274 272 275 278 279 278 277 278
285 284 284 283 279 279 280 284 283 283 280 280 280 278 282 282 277 278 280 279 279 284 285 285 285 285 285 285 284 284 282 281 281 280 278 277 277 277 276 276 278 279 277 276
282 283 283 279 282 283 283 284 283 282 282 282 281 280 282 282 280 281 276 281 284 284 283 285 285 285 285 285 284 283 282 281 281 281 280 280 280 280 279 279 279 279 279 278
284 282 283 284 283 283 283 281 281 280 277 274 276 281 283 283 281 281 284 284 284 284 284 284 285 285 285 284 285 285 284 282 282 282 281 282 281 281 281 280 280 280 280 279
283 279 281 282 283 283 281 279 280 283 279 278 280 281 280 282 283 283 281 281 279 281 282 279 280 282 283 283 284 283 284 284 284 283 283 283 282 282 281 280 279 279 279 279

GFSNGP_sfc_thetae_015.txt.gz
Theta_e
288 289 289 287 287 289 288 287 283 284 286 289 293 293 294 295 294 293 293 293 293 292 293 292 289 288 288 288 289 289 288 289 291 291 291 291 291 290 290 291 291 291 287 287
285 289 289 285 287 287 287 287 288 287 287 294 294 295 294 294 293 292 293 293 293 293 292 290 288 287 288 288 288 289 288 290 291 291 291 291 291 290 290 290 289 287 288 283
278 284 284 278 285 289 289 289 289 284 289 293 292 293 293 292 292 292 292 292 291 291 290 288 287 287 286 287 288 287 287 290 290 290 290 289 289 289 288 287 289 285 282 282
276 277 271 285 291 292 290 290 292 291 292 293 293 293 293 292 292 291 292 292 291 289 287 287 286 286 286 287 286 286 287 288 289 288 288 288 288 287 286 286 284 281 281 281
274 276 281 285 291 289 288 287 293 292 292 292 292 291 290 293 292 292 292 290 289 287 287 286 286 286 285 285 285 285 288 287 288 288 288 287 286 286 285 283 282 281 282 280
277 271 270 283 291 295 293 282 294 293 292 291 290 283 288 293 294 293 290 288 286 286 285 285 285 285 285 285 285 285 287 288 288 288 286 285 284 284 282 282 283 281 280 279
269 270 279 287 294 295 282 283 294 295 294 291 289 290 292 295 295 290 288 287 286 286 285 285 285 286 285 284 285 286 287 287 287 285 284 284 282 281 281 281 280 278 277 277
277 272 276 292 292 287 290 291 296 295 295 294 293 294 295 295 289 287 285 285 285 285 284 285 286 285 284 284 286 286 286 286 285 284 284 283 280 280 280 279 278 276 266 271
284 284 290 293 293 294 295 295 295 295 295 296 294 294 296 289 286 285 284 284 285 284 285 285 285 285 284 285 286 286 285 284 283 283 283 282 279 278 278 277 274 274 275 270
287 291 292 293 295 296 297 296 296 296 296 296 294 295 289 286 284 284 283 283 284 284 284 284 285 286 285 286 286 285 284 284 284 283 282 281 280 280 278 274 273 276 273 272
287 291 293 296 296 298 297 297 297 297 298 298 296 288 286 284 284 283 283 284 284 283 284 284 285 285 284 285 285 284 284 285 283 282 281 281 279 279 279 278 277 274 272 271
286 292 293 293 297 297 296 296 297 297 293 291 289 286 285 284 284 284 283 284 283 284 284 284 284 283 284 285 285 284 284 284 283 282 280 280 278 279 282 281 281 282 282 271
293 295 295 296 297 298 297 297 298 290 288 287 287 285 284 284 284 285 284 283 283 284 284 283 283 282 284 283 283 284 284 284 281 282 280 277 277 276 273 277 281 282 282 281
298 298 293 295 295 298 296 292 291 289 288 287 287 286 285 284 285 284 283 283 284 284 283 282 282 283 284 284 285 284 284 282 283 281 281 281 278 274 272 272 268 269 277 280
298 299 297 297 296 292 289 289 287 286 287 286 286 285 285 284 283 283 283 283 283 282 282 283 283 283 284 284 285 285 284 283 282 280 277 276 275 271 273 275 274 270 269 272
297 296 296 295 292 288 288 289 287 286 285 285 285 284 285 284 283 283 283 283 280 280 282 282 282 283 284 285 285 286 285 283 280 279 277 278 277 275 275 274 274 272 268 267
292 290 288 287 288 289 289 289 288 286 285 284 284 284 284 281 279 282 282 280 275 275 279 279 280 285 284 285 286 285 284 283 280 279 277 275 273 273 276 274 277 275 269 265
292 291 290 289 287 286 286 286 284 284 284 284 280 276 275 274 278 278 278 277 275 277 279 281 280 283 284 285 286 284 283 282 280 280 279 272 272 275 276 274 274 270 272 268
290 290 290 290 290 288 285 284 284 284 280 279 277 278 276 276 277 278 276 273 274 276 281 279 280 282 283 283 284 283 282 281 277 274 272 270 267 271 273 273 274 272 273 271
290 291 289 286 285 283 282 283 281 283 284 279 274 272 276 276 274 275 273 276 280 282 281 281 281 282 281 283 284 283 282 278 275 272 265 267 266 269 269 271 275 277 276 269
284 284 284 283 283 282 281 280 278 280 282 275 276 278 279 278 275 272 278 278 281 278 280 279 283 283 284 284 284 284 281 278 273 273 275 275 271 269 270 271 276 278 275 272
284 283 281 281 281 282 282 281 282 277 276 273 274 282 281 279 276 274 275 278 281 277 278 280 282 284 284 284 284 284 283 280 280 280 278 277 275 274 275 274 275 275 276 276
284 284 283 279 278 283 282 280 276 275 275 276 277 278 277 280 277 280 280 280 279 277 278 279 279 282 284 284 285 284 284 283 282 280 279 279 279 278 277 276 276 277 278 278
284 283 283 283 279 279 280 284 283 282 278 279 279 278 278 278 283 282 281 278 274 275 277 282 280 283 284 284 284 284 283 282 283 282 281 280 280 280 278 278 278 278 278 277
282 283 283 279 282 282 283 284 282 281 281 281 280 280 279 284 283 277 275 275 280 281 277 279 283 282 282 284 284 283 283 282 282 282 282 281 280 280 280 280 279 279 279 279
283 282 282 283 282 281 282 281 280 279 277 278 277 277 277 277 278 279 278 279 277 276 276 275 275 278 279 276 275 276 277 279 280 282 283 282 281 281 281 281 281 281 280 280
280 278 280 280 281 281 281 279 279 281 281 281 280 280 278 279 278 277 280 278 275 274 274 272 272 271 269 269 269 268 269 270 270 271 274 277 282 283 282 282 282 282 281 280

GFSNGP_sfc_thetae_018.txt.gz
Theta_e
286 288 287 285 286 288 286 285 282 283 283 287 293 293 293 294 293 292 292 292 292 291 291 291 291 288 288 287 288 288 287 287 288 289 290 290 290 289 289 289 289 292 290 287
285 287 287 285 286 286 287 286 286 286 286 290 292 293 292 293 292 291 292 292 292 292 293 292 289 287 286 287 287 287 286 286 289 289 289 290 289 288 288 288 287 287 285 283
277 283 281 278 284 286 286 287 287 283 288 291 291 292 292 292 292 291 291 292 292 293 292 289 287 286 285 286 286 286 286 286 288 289 288 288 288 287 287 286 285 283 281 281
275 276 271 284 289 289 288 289 289 289 290 292 291 291 293 293 292 291 292 292 292 292 288 286 286 285 285 285 285 285 285 286 287 287 287 287 286 286 285 284 283 281 281 281
274 275 280 284 287 288 287 287 292 291 291 291 291 291 290 293 293 293 294 293 290 288 286 285 285 284 284 285 284 284 285 286 287 287 286 286 284 283 283 282 281 281 281 280
272 271 270 283 288 292 291 282 291 293 291 290 290 284 291 293 293 292 292 289 287 285 285 284 284 284 285 284 284 284 285 286 286 286 285 283 283 282 282 281 281 280 280 278
268 270 278 286 292 293 282 284 292 293 292 290 289 292 292 293 293 293 289 286 286 285 284 284 285 285 284 283 283 285 285 286 285 285 283 283 281 281 280 280 279 278 278 277
275 269 276 290 292 286 290 290 293 293 292 293 292 292 293 294 291 286 286 286 285 284 284 284 285 284 283 283 285 285 285 285 284 283 284 283 280 280 280 278 277 276 266 271
283 283 289 291 292 293 293 293 294 294 295 296 293 293 294 289 285 285 285 285 284 284 284 285 285 284 283 284 285 284 284 283 283 283 284 282 280 279 278 277 273 274 275 270
286 289 290 291 293 294 294 295 295 296 295 296 294 295 290 287 286 285 284 283 284 284 283 283 284 284 284 283 284 283 283 283 283 282 282 282 282 280 278 273 274 276 274 272
285 290 290 293 295 295 295 296 296 297 297 296 295 292 288 286 285 284 284 284 284 283 283 283 283 284 283 283 283 283 283 283 284 283 282 281 280 278 278 278 278 275 274 272
284 291 291 292 294 296 296 296 297 296 294 290 291 288 287 285 284 284 284 283 283 283 283 283 284 283 282 283 282 282 282 284 284 282 281 281 279 278 282 281 282 282 282 272
292 292 293 294 296 296 296 295 295 291 288 286 288 288 287 284 284 285 284 284 283 283 283 283 282 282 282 282 282 281 283 284 284 281 281 279 277 279 274 278 282 282 283 283
297 295 294 294 295 296 296 291 289 288 288 288 288 287 285 284 285 284 284 284 284 284 283 282 282 281 283 282 281 282 284 283 283 283 281 280 279 277 275 272 271 270 277 280
296 297 296 295 293 289 289 288 287 288 289 288 287 285 285 284 283 284 284 284 284 283 282 282 281 281 282 282 282 284 285 284 283 282 280 278 277 277 273 272 274 271 268 272
296 295 295 290 287 287 288 289 288 287 287 285 284 284 284 285 284 284 284 284 282 281 282 277 278 281 282 283 284 284 285 284 283 281 279 278 273 273 275 275 276 275 270 270
289 287 286 286 288 288 288 289 289 287 285 284 284 284 284 283 281 282 283 281 278 277 277 277 279 282 283 283 284 284 285 284 283 280 278 279 277 273 272 274 277 277 273 265
289 289 290 290 288 288 287 286 285 285 284 284 281 279 278 278 280 280 279 278 274 275 278 280 280 282 282 282 281 282 283 282 282 281 279 278 278 274 272 273 274 275 274 269
290 289 290 290 290 288 286 285 284 284 281 280 279 280 279 278 278 279 276 273 274 275 280 279 280 279 282 283 282 282 283 282 282 280 279 273 267 270 269 273 275 275 273 273
288 288 288 286 285 284 282 283 281 282 283 280 277 276 278 279 275 274 272 276 280 281 281 280 279 279 281 283 282 282 283 283 281 278 276 272 269 268 272 274 271 272 273 275
284 284 283 283 283 281 280 280 279 281 282 277 277 278 276 278 276 274 276 278 281 278 279 277 278 280 281 283 283 283 284 283 281 278 277 276 277 276 275 274 273 274 275 277
283 283 280 280 280 282 282 282 282 279 279 276 272 272 280 280 279 275 276 278 281 276 276 276 278 277 279 278 283 283 284 283 282 280 279 279 279 278 277 277 277 277 278 277
284 284 283 279 278 282 281 280 276 275 276 277 277 277 276 279 277 277 281 280 278 275 275 275 275 276 279 283 283 283 283 280 281 282 282 279 279 280 279 279 279 279 279 278
283 283 283 282 277 278 280 283 282 281 276 278 278 277 276 278 277 278 281 284 280 274 277 280 281 281 282 280 282 283 283 282 282 282 281 278 279 279 280 280 279 280 279 279
281 282 281 279 280 280 281 281 280 280 280 280 279 279 278 277 279 281 273 277 276 279 279 277 279 276 277 275 271 271 272 273 272 272 274 275 277 280 281 280 279 279 279 280
280 279 279 280 280 279 279 279 278 279 280 280 281 283 282 279 277 278 281 281 278 278 278 273 272 269 267 266 265 265 266 267 267 267 267 267 269 270 273 277 281 281 280 280
279 278 277 276 277 277 276 276 277 276 278 279 279 282 282 282 283 283 283 282 280 271 275 273 270 268 266 266 265 266 264 264 264 266 266 266 267 267 268 270 275 280 282 282

GFSNGP_sfc_thetae_021.txt.gz
Theta_e
290 290 290 290 290 290 289 289 288 289 288 292 296 299 299 299 298 297 297 297 297 297 297 297 297 294 294 294 294 294 293 293 293 294 296 296 296 296 295 295 295 295 293 291
288 289 289 289 290 290 290 290 290 289 290 295 297 298 297 297 297 296 296 297 297 296 296 296 295 294 293 293 293 293 292 292 292 294 295 295 295 295 294 294 294 293 291 288
283 285 285 283 288 290 290 291 293 289 294 296 295 296 298 298 298 297 297 297 296 296 297 297 296 293 292 292 292 291 291 291 291 293 293 294 293 293 293 292 292 291 288 287
283 281 280 289 293 292 291 292 292 292 293 296 296 297 298 299 298 297 297 297 296 296 297 294 293 292 291 291 290 290 290 290 292 292 292 292 292 292 291 291 291 290 287 286
283 282 284 288 288 290 290 291 294 293 294 295 295 297 298 298 299 299 299 298 297 296 293 291 291 290 290 290 290 289 289 290 291 292 291 291 290 290 290 289 289 287 287 284
280 281 279 288 290 296 295 288 295 296 295 294 296 294 298 298 298 298 299 296 292 290 289 290 289 290 289 289 288 289 290 290 290 291 290 290 289 289 288 288 287 286 284 283
277 283 284 290 293 296 287 290 294 296 296 295 296 300 299 299 297 298 295 291 290 289 289 289 290 289 288 288 288 289 290 290 290 289 289 289 288 288 287 287 286 284 283 283
279 280 282 292 295 291 296 296 296 297 297 297 299 296 296 296 294 291 287 287 288 288 288 289 289 289 288 287 289 289 289 289 288 288 288 287 288 287 286 286 284 282 281 281
287 289 294 294 297 298 297 296 298 298 299 299 297 296 297 293 289 288 288 288 288 288 288 288 288 288 287 288 288 288 288 288 288 288 288 287 287 287 285 284 283 283 282 282
289 293 291 294 297 297 298 298 299 300 301 299 298 297 294 289 287 288 287 286 287 288 287 287 288 287 288 287 287 287 287 287 288 287 287 288 287 286 284 284 283 282 282 282
289 293 294 295 297 300 300 299 298 300 300 300 299 297 289 287 286 286 286 287 287 286 286 286 287 287 288 287 287 286 286 287 287 287 286 286 286 285 284 284 284 284 283 282
291 296 296 296 298 299 299 299 300 299 297 297 296 290 289 287 287 286 287 286 286 286 286 286 286 286 286 287 286 286 285 286 287 287 287 286 285 284 283 283 282 283 283 281
296 296 297 298 298 300 300 300 298 297 293 290 290 290 288 287 286 286 286 286 286 286 286 286 285 285 286 286 285 284 285 285 287 286 286 285 284 284 283 285 283 283 283 283
299 298 297 298 298 298 293 290 290 290 290 290 290 290 287 285 286 286 286 286 286 286 286 286 285 285 286 286 285 285 285 285 286 287 286 286 285 285 284 283 282 283 282 282
296 299 298 293 291 289 290 292 290 289 289 288 287 286 286 285 285 285 286 286 286 285 286 285 284 285 286 286 285 285 286 285 285 286 285 285 285 284 284 283 282 282 282 279
293 289 289 289 289 291 291 289 287 286 286 285 285 286 287 286 286 286 286 286 284 284 285 283 282 284 285 286 285 286 286 285 285 285 285 285 284 283 283 282 282 282 281 282
290 286 288 288 288 288 288 288 288 286 286 286 286 286 286 285 284 284 285 284 283 283 283 282 282 286 285 286 286 286 286 285 284 285 284 284 284 283 282 282 281 281 282 283
291 290 290 289 287 287 286 287 288 287 286 286 284 283 282 282 283 283 283 283 281 281 283 284 284 284 284 286 286 285 284 284 284 284 284 284 283 283 283 282 282 281 282 282
290 289 289 289 289 288 288 287 286 285 284 283 283 284 283 282 282 283 282 280 281 282 285 284 283 283 284 285 284 285 285 285 284 284 284 283 283 283 282 282 281 281 281 281
288 288 287 286 286 285 284 285 284 285 285 283 281 281 282 283 282 280 280 280 283 286 285 284 284 283 284 285 283 286 285 284 284 283 283 283 282 282 282 279 280 281 281 281
285 285 284 284 284 283 282 282 281 283 284 281 281 282 281 282 281 280 281 283 286 284 284 282 283 285 285 284 284 284 283 283 284 284 284 283 282 281 281 282 282 281 281 281
285 284 280 280 281 283 283 283 283 280 280 279 279 278 277 282 283 283 282 282 286 280 283 284 284 282 283 279 283 283 283 284 285 284 284 284 283 282 283 283 283 283 283 282
285 284 283 281 281 283 283 283 281 281 280 281 280 281 281 282 283 282 283 286 284 284 282 283 282 278 278 284 284 284 284 284 284 283 283 283 283 283 283 283 283 283 283 283
284 283 282 282 280 281 280 281 280 281 278 279 281 279 280 280 282 284 284 284 283 284 284 283 283 282 283 283 282 279 278 277 276 275 275 274 276 276 277 280 281 282 283 283
281 281 280 279 278 278 278 278 278 279 280 280 280 281 282 284 281 283 283 283 283 283 282 283 281 279 279 277 275 274 273 273 272 271 271 271 271 271 272 272 273 275 276 281
279 278 278 278 277 277 275 275 274 275 275 275 276 278 279 280 282 282 283 283 283 283 282 280 277 275 274 273 272 271 271 270 270 269 269 269 269 269 269 269 270 271 272 274
277 275 275 275 275 274 272 271 271 270 273 273 272 275 276 277 277 279 280 280 282 283 279 274 273 271 270 269 269 269 269 268 267 267 267 266 266 267 266 267 268 270 271 273

GFSNGP_sfc_thetae_027.txt.gz
Theta_e
300 300 299 298 298 299 297 297 294 296 296 299 301 303 305 306 308 308 311 312 313 313 313 312 311 310 306 305 303 301 300 300 300 301 301 300 299 299 300 299 297 297 297 296
297 300 298 296 298 298 298 298 298 298 297 304 305 306 304 305 306 307 308 311 312 313 313 311 310 308 304 303 302 301 300 300 300 299 299 298 297 298 298 297 296 297 296 295
291 295 295 291 296 298 299 300 300 296 300 304 303 303 304 305 306 306 308 310 311 312 312 312 310 307 303 303 303 301 300 299 298 298 296 296 296 296 295 296 296 295 295 295
293 289 284 295 300 299 298 300 301 301 302 303 303 305 306 307 307 307 308 309 310 311 312 312 310 306 304 303 300 299 298 297 297 296 295 295 295 294 295 296 295 295 294 294
291 290 293 295 297 296 295 295 301 300 301 302 304 305 305 308 308 307 308 310 311 312 311 310 307 304 302 299 297 297 296 296 295 294 294 293 293 293 294 294 294 294 293 292
291 288 285 296 298 301 301 292 301 301 301 302 303 298 301 307 307 307 309 311 311 311 311 308 305 303 299 296 297 295 295 294 294 294 293 293 293 293 294 294 293 293 291 292
292 291 295 300 300 302 291 295 303 303 303 303 301 303 309 309 308 309 310 310 311 310 307 304 302 299 296 296 295 295 294 293 293 293 293 293 293 293 293 293 292 292 291 291
295 288 286 301 301 295 302 304 304 305 305 305 307 308 308 308 307 308 308 308 306 303 301 298 296 296 294 293 294 294 293 292 292 293 293 292 292 292 292 292 291 290 288 289
297 298 303 303 302 305 306 304 305 305 306 306 306 306 307 307 307 307 306 303 301 298 294 294 294 294 292 292 292 291 291 291 292 292 292 293 291 290 290 290 289 288 287 287
297 300 301 302 304 305 306 306 307 307 307 308 306 307 307 308 305 304 301 298 296 294 292 290 292 291 291 292 291 291 290 290 291 291 291 291 291 291 289 288 288 287 287 286
299 301 302 303 305 306 307 308 308 309 309 308 307 307 308 306 301 298 295 294 293 291 290 290 292 291 291 291 291 290 290 290 291 290 290 290 290 290 290 290 289 287 288 287
297 302 303 304 307 307 307 305 305 305 305 304 304 304 303 298 295 293 291 290 289 289 290 290 290 290 291 291 290 289 288 289 290 290 289 289 288 288 288 286 286 285 285 285
301 305 306 306 304 303 301 300 301 300 300 297 297 296 294 290 288 288 289 290 289 289 290 290 290 289 291 290 289 287 287 288 289 288 289 288 287 287 286 289 286 285 285 285
302 304 304 301 299 301 300 298 295 293 293 292 291 290 290 289 289 289 288 290 291 291 290 290 290 290 290 290 290 289 289 286 289 290 289 288 287 287 288 287 287 288 285 284
299 301 300 301 300 297 296 294 291 289 289 289 290 290 290 289 290 290 292 291 291 290 290 290 289 289 291 292 290 290 290 290 290 290 289 287 288 288 287 287 287 287 288 285
299 298 296 294 292 292 292 291 290 290 291 292 292 292 292 293 292 292 292 291 289 289 290 287 288 291 293 292 292 292 291 287 287 289 288 287 287 287 287 287 286 286 286 286
291 288 289 289 290 291 292 292 293 293 293 292 291 290 290 289 289 290 290 291 290 286 288 288 289 292 293 293 292 292 292 290 287 289 287 288 288 287 287 286 286 286 286 287
294 293 293 293 292 291 292 292 291 290 289 289 287 285 284 284 286 288 289 290 287 286 289 290 291 292 292 293 293 292 291 290 289 287 288 288 287 287 287 286 286 286 286 287
294 293 293 293 293 291 290 289 289 289 287 287 285 284 285 285 288 288 288 286 285 286 290 293 287 288 291 290 289 291 291 289 288 287 287 287 287 287 286 286 286 286 286 286
292 291 291 290 290 289 288 288 290 289 290 286 285 285 285 286 285 285 285 284 288 290 291 290 289 290 291 291 287 290 289 289 288 285 285 286 286 285 286 285 286 286 285 285
290 290 288 288 288 287 286 286 286 286 286 284 283 283 282 284 286 284 284 283 286 288 286 285 286 286 288 288 288 288 288 287 286 286 286 285 285 285 285 285 285 285 284 285
290 287 287 289 288 288 287 285 284 283 282 282 282 282 282 283 283 284 285 284 286 284 286 286 286 285 285 284 286 285 286 286 285 286 286 285 284 284 283 283 283 283 284 284
290 289 287 286 286 286 284 283 284 282 281 281 281 280 280 281 282 281 280 282 283 283 283 284 283 283 283 284 285 285 285 285 285 285 284 282 281 281 281 281 280 280 280 281
289 288 287 285 284 283 281 282 282 282 281 281 281 280 279 279 279 281 281 281 280 280 281 282 281 278 281 284 284 284 284 283 283 282 281 279 279 279 279 278 278 278 277 277
286 285 284 283 283 282 281 280 280 280 279 279 279 279 279 279 278 279 279 279 277 278 279 278 276 274 277 278 277 277 277 276 276 277 276 276 276 275 275 276 275 274 274 275
285 284 283 281 281 280 279 279 278 279 277 278 278 278 279 279 278 277 276 276 275 275 274 275 274 273 273 273 273 272 273 273 271 271 272 272 272 272 272 271 271 272 272 273
281 281 282 281 280 278 277 276 276 276 276 276 274 277 277 277 276 275 274 274 274 273 273 273 273 271 270 270 270 270 270 269 269 268 269 269 269 269 269 269 269 270 271 271

GFSNGP_sfc_thetae_030.txt.gz
Theta_e
298 300 300 299 298 298 296 298 293 296 295 299 302 303 304 307 308 307 308 311 313 313 314 313 313 313 312 309 305 304 302 301 299 301 300 300 299 298 298 298 297 296 295 295
297 300 300 297 299 299 298 298 297 297 296 303 305 305 304 304 304 305 306 307 311 313 314 314 313 311 310 306 304 303 301 300 300 300 300 299 297 297 296 297 296 295 295 294
293 296 294 289 296 297 298 299 299 294 300 304 302 302 304 305 305 305 307 307 308 311 312 314 313 310 307 305 304 301 301 299 300 299 298 297 296 295 295 294 295 294 294 293
294 290 284 295 301 299 297 299 300 300 300 301 302 304 304 305 306 306 306 308 309 309 311 313 313 307 307 304 302 302 299 298 298 297 295 295 294 294 294 294 293 293 292 292
290 290 293 295 298 296 295 295 300 299 300 301 302 304 304 308 308 307 307 307 308 310 311 312 311 307 305 302 301 298 296 296 296 295 294 293 293 293 293 292 292 292 292 291
293 289 285 297 299 302 300 292 301 301 301 301 302 297 301 308 308 308 308 309 308 310 311 310 306 304 302 297 295 295 295 294 294 294 293 292 292 292 292 292 292 292 290 290
292 290 294 301 301 302 291 295 303 303 303 303 301 304 308 310 309 309 309 309 311 309 306 304 303 299 296 296 294 295 294 294 293 292 292 292 292 291 291 290 290 288 287 287
296 288 286 302 300 294 303 306 305 304 305 305 307 307 307 307 307 307 307 306 304 297 295 295 296 296 293 292 293 293 292 292 291 292 292 292 291 290 290 288 287 287 285 285
297 297 304 304 303 305 307 305 305 306 306 306 306 306 307 307 308 306 305 301 297 294 293 293 294 292 290 291 292 291 291 291 291 292 292 291 290 288 287 287 285 285 284 284
300 301 302 303 304 305 306 306 307 307 308 308 306 307 307 307 303 301 296 295 295 293 291 290 291 291 291 292 292 291 290 290 290 290 290 289 289 288 287 285 284 284 284 283
300 302 303 304 306 307 307 308 306 307 306 303 304 305 302 296 295 293 293 293 292 291 290 290 291 290 291 292 291 289 289 289 289 289 289 289 289 288 285 286 286 284 284 284
299 303 303 303 303 305 302 301 301 301 299 297 297 296 294 292 292 291 289 290 289 290 290 290 290 291 292 292 291 289 288 288 287 287 287 287 287 286 288 286 286 286 286 283
302 304 305 304 303 301 297 297 297 296 296 293 293 292 291 289 289 289 290 290 290 290 290 291 291 290 291 291 290 287 286 286 286 285 286 285 285 285 284 287 288 286 286 286
303 303 300 302 298 298 296 295 294 294 293 292 291 291 290 289 290 290 290 291 291 291 290 290 290 290 291 291 289 287 287 286 286 287 287 285 285 285 285 284 283 284 286 285
300 302 300 298 297 295 295 294 291 291 291 291 292 291 291 290 290 291 292 292 291 290 290 290 289 290 292 292 290 289 288 288 288 287 286 285 285 285 285 284 284 284 285 283
298 298 296 294 293 293 293 292 290 290 291 291 290 290 290 291 290 290 291 291 288 287 289 284 285 288 291 291 291 290 290 287 286 287 286 285 285 285 284 284 284 284 284 284
292 290 291 291 291 291 291 292 291 290 290 289 288 287 288 287 288 288 289 289 286 285 286 286 287 291 290 292 291 290 290 289 286 286 286 286 286 285 285 284 284 283 283 284
294 294 293 293 291 291 290 290 289 289 287 286 284 285 284 283 284 286 286 286 285 285 286 289 287 288 290 292 291 289 289 288 288 287 286 285 285 285 284 284 284 283 283 283
293 293 293 292 292 290 289 288 288 288 285 284 284 283 284 284 283 284 284 283 284 285 286 286 284 285 286 287 286 286 286 287 287 287 287 284 283 284 283 283 283 284 284 283
292 292 290 289 289 289 287 287 288 287 285 283 281 280 280 279 280 279 281 282 284 283 284 284 284 284 284 285 283 283 282 283 283 284 286 284 283 283 283 281 283 284 284 284
289 289 288 287 286 285 284 284 282 283 283 279 279 278 278 280 281 280 281 280 282 281 281 280 281 282 282 281 281 282 282 282 283 283 284 284 284 284 283 283 284 284 283 282
288 287 286 286 286 285 284 284 282 280 280 277 276 275 276 278 278 279 278 279 279 278 278 279 280 275 275 275 280 280 281 282 282 283 283 283 284 282 281 278 280 280 280 279
288 287 286 285 285 284 283 282 280 279 276 276 276 277 277 278 279 277 276 278 278 276 277 278 275 272 272 276 276 276 277 277 276 277 278 279 280 280 278 278 277 278 277 276
288 287 286 285 284 283 281 281 282 281 277 279 277 275 277 277 277 279 278 276 274 274 275 275 273 271 271 273 273 272 273 272 271 272 273 274 274 274 275 275 274 274 273 272
286 285 284 284 283 282 281 279 280 280 278 279 279 278 278 279 276 276 276 276 274 273 274 274 272 270 271 271 270 269 270 270 269 268 269 269 269 270 270 270 269 269 270 270
285 284 281 281 280 279 278 278 277 278 277 277 277 277 278 278 277 276 275 274 274 273 273 272 272 271 270 269 269 268 268 268 267 267 267 267 267 267 267 267 267 267 267 268
281 282 282 281 279 278 277 276 276 274 276 275 273 275 277 276 275 274 272 273 272 272 271 271 271 270 269 268 268 267 267 266 266 266 265 265 265 264 265 265 266 267 267 267

GFSNGP_sfc_thetae_033.txt.gz
Theta_e
294 297 298 297 296 295 292 293 287 290 292 295 295 296 297 299 300 301 302 305 307 308 308 309 310 309 309 307 303 301 299 299 299 300 300 299 297 296 296 295 294 294 294 294
291 297 296 293 295 295 295 295 292 293 292 297 297 298 298 299 299 300 301 302 303 307 309 309 309 308 307 303 302 301 300 300 300 299 298 296 295 294 294 293 293 294 292 292
285 290 290 283 290 293 294 295 293 288 293 297 296 298 297 298 300 300 301 302 303 303 307 309 308 308 304 302 302 300 301 300 300 300 297 294 294 293 292 291 292 291 292 292
282 283 275 290 297 295 293 294 294 294 294 296 296 297 299 299 299 299 300 301 301 302 303 305 306 305 303 302 300 300 299 298 296 295 293 293 293 291 291 292 291 291 291 291
281 281 288 292 294 294 292 290 296 294 295 296 297 296 299 303 302 301 301 301 302 303 304 302 302 300 299 299 300 296 294 293 293 293 292 292 291 291 291 291 290 290 291 290
282 278 275 290 295 299 296 285 297 297 296 297 296 288 294 302 303 303 303 299 295 297 299 298 297 296 294 293 292 292 292 292 292 292 292 291 291 291 290 290 290 290 289 288
278 278 285 298 298 299 284 286 298 298 298 297 294 296 300 303 302 302 297 294 294 293 292 293 293 293 291 291 290 291 292 293 293 293 292 292 291 290 289 288 287 286 285 285
284 282 281 299 297 289 295 298 299 298 299 299 299 301 303 303 302 298 292 292 292 291 290 291 292 291 290 289 290 291 292 292 292 291 291 291 289 289 288 286 285 285 283 283
289 288 298 298 297 299 299 299 299 300 302 302 302 302 302 296 293 292 290 290 291 289 290 290 291 291 289 290 291 291 291 291 290 290 290 290 287 286 285 285 282 282 282 280
292 296 297 298 303 303 303 301 302 299 298 300 298 294 292 292 291 290 290 290 292 290 289 289 290 291 291 290 290 289 288 288 288 288 287 287 287 286 285 281 280 282 281 281
293 297 300 300 301 300 300 300 297 296 295 295 293 292 291 290 289 290 291 291 291 290 289 288 289 288 289 289 289 287 287 287 286 286 285 285 286 285 283 282 282 281 281 281
287 299 297 296 298 298 296 295 296 294 292 292 292 290 290 288 289 289 288 289 288 287 288 289 290 288 289 289 288 286 285 284 281 281 282 284 283 283 286 285 286 286 286 283
298 300 298 296 295 295 294 293 293 292 291 289 289 289 288 287 288 287 287 289 289 289 288 288 287 287 288 288 287 284 283 283 282 282 282 282 281 281 280 282 286 287 287 287
300 300 296 296 291 293 292 292 291 290 290 289 289 288 287 287 289 289 288 288 288 288 288 287 287 286 287 288 286 284 283 283 283 283 283 283 281 281 280 280 280 281 283 285
296 298 295 294 293 292 292 291 289 289 289 288 288 287 287 287 287 287 288 288 287 287 287 287 285 284 287 287 287 285 284 283 284 284 284 285 284 282 281 281 280 281 281 280
294 294 293 291 291 290 290 289 288 288 288 287 285 285 287 287 287 287 287 286 283 282 283 283 284 285 286 288 288 288 287 283 282 284 284 284 284 283 282 281 281 281 280 281
289 287 288 288 288 290 289 289 288 288 286 284 282 283 284 283 284 283 283 283 283 283 284 284 283 286 286 287 286 286 285 285 284 285 285 284 284 284 284 282 280 280 280 281
293 292 292 291 289 288 287 287 285 283 282 283 283 283 282 281 281 281 280 280 277 280 282 282 281 282 282 283 283 281 281 280 280 280 282 282 284 284 283 282 280 278 281 279
293 292 291 291 289 288 287 285 284 282 282 283 279 278 277 276 281 280 280 274 276 276 278 279 279 279 280 279 278 278 277 277 278 279 280 280 280 281 283 284 280 276 277 278
289 289 288 287 286 285 284 284 282 281 281 279 276 274 276 274 272 272 274 276 277 277 277 277 278 275 275 275 274 275 277 277 276 276 278 279 279 281 283 281 279 277 280 283
286 285 284 283 283 282 281 280 280 280 280 275 273 269 269 273 272 269 273 274 276 275 276 275 274 272 272 271 274 274 273 273 273 274 274 274 275 279 282 282 280 279 274 274
287 285 284 283 281 281 281 281 279 277 276 271 267 267 268 275 271 273 269 273 275 269 273 274 272 267 270 269 272 270 270 270 268 269 270 271 272 273 273 275 275 275 274 274
285 285 284 282 280 280 280 279 275 274 271 270 269 270 271 274 274 270 270 274 274 270 273 271 265 265 265 268 268 267 267 267 265 266 267 268 268 270 269 269 269 269 269 270
284 284 282 282 281 280 278 279 279 277 271 274 270 267 273 268 265 274 273 269 265 264 264 269 266 264 261 262 266 264 265 266 265 264 265 266 266 267 266 266 266 267 267 267
283 283 282 280 279 277 277 278 278 277 276 277 275 275 275 274 267 268 265 266 267 265 263 264 264 263 259 258 259 263 262 263 264 263 263 263 264 263 264 264 265 265 266 266
281 279 278 278 277 276 276 276 274 274 273 269 269 265 267 269 268 268 266 265 266 266 264 260 260 262 260 258 258 257 260 260 262 262 261 261 262 261 262 262 263 264 264 265
279 279 277 276 276 276 274 273 269 268 268 263 264 264 269 268 263 266 262 260 260 261 259 260 259 260 262 260 257 259 257 257 259 261 256 258 259 259 260 261 262 262 263 263

GFSNGP_sfc_thetae_036.txt.gz
Theta_e
292 294 295 294 294 294 291 290 286 289 290 294 294 293 294 296 298 300 305 305 306 305 304 307 307 309 309 304 303 302 300 299 300 299 299 299 296 296 295 294 294 294 292 292
288 293 292 290 292 291 293 292 292 291 290 294 295 295 296 297 298 298 298 300 301 305 305 306 307 306 306 303 302 300 299 300 301 299 296 296 295 294 292 294 293 292 292 292
284 288 287 282 289 292 292 293 293 287 291 293 293 294 294 295 297 297 297 298 300 300 306 306 306 306 303 301 300 300 300 300 299 298 296 294 294 293 292 291 291 291 291 291
281 281 275 290 295 294 291 291 292 292 292 294 295 295 297 297 297 297 298 299 299 300 302 304 304 301 300 301 300 300 299 298 297 294 293 293 291 291 292 291 291 290 289 289
280 280 286 290 292 291 289 289 293 292 293 294 296 297 297 300 300 299 298 297 297 297 296 297 298 299 299 296 293 293 292 292 293 292 291 292 291 291 291 290 289 288 289 289
281 278 275 287 293 296 295 284 295 295 294 295 294 288 293 299 298 293 293 293 293 293 293 292 292 293 291 290 290 289 290 291 291 292 292 291 291 290 289 289 288 288 287 287
276 276 282 292 296 296 283 284 296 296 296 295 293 294 297 295 293 292 292 292 292 291 290 291 291 291 288 289 289 292 293 293 293 293 293 291 289 288 287 286 286 285 284 284
283 278 279 298 294 289 291 295 296 297 297 297 298 298 296 292 291 291 290 290 290 289 289 291 292 291 289 289 292 293 293 293 292 290 290 289 287 286 286 284 282 282 278 281
287 286 295 295 295 298 298 298 298 298 300 300 297 291 291 289 289 289 289 288 290 290 290 291 292 291 289 289 291 292 291 289 288 288 288 288 285 283 282 282 279 281 281 279
291 295 297 298 299 300 300 296 295 296 296 294 291 291 290 289 289 289 290 290 291 290 288 288 289 290 289 289 289 288 287 286 286 286 286 285 284 284 282 279 278 281 280 280
291 295 297 297 297 296 295 294 293 293 293 292 291 290 289 289 289 289 289 290 290 288 288 287 288 287 288 288 288 286 286 286 285 284 283 283 284 284 283 282 282 281 280 280
287 297 294 294 295 296 294 292 292 291 289 290 290 288 288 286 287 287 288 288 288 288 287 287 287 287 287 287 287 285 284 283 281 280 281 282 282 283 285 285 285 286 286 281
296 298 295 293 293 293 291 291 290 289 289 287 288 288 287 286 287 288 287 286 286 286 286 286 285 285 286 286 285 284 283 283 281 281 281 281 282 281 281 285 286 286 286 287
296 295 291 292 289 291 290 290 290 289 288 288 287 287 285 285 286 286 285 286 286 285 285 284 284 284 286 286 285 284 283 282 282 282 282 282 282 282 283 282 283 283 283 284
294 295 293 291 290 289 290 289 287 287 286 285 285 285 285 284 284 284 285 285 284 283 284 284 283 283 285 286 285 285 285 285 285 285 284 284 284 284 285 284 284 284 283 279
292 291 291 288 288 288 288 287 286 285 284 284 283 284 285 285 284 283 283 283 282 282 284 281 280 281 282 283 282 282 281 280 279 279 280 280 281 281 282 283 284 283 282 282
287 285 287 286 287 287 287 287 286 284 282 282 282 283 283 282 281 280 281 281 282 281 280 278 277 280 280 279 277 277 276 277 276 277 277 277 278 278 279 280 281 283 284 282
293 290 290 289 287 286 285 285 283 282 282 283 283 278 276 276 279 280 278 277 277 276 277 278 278 277 276 276 275 275 275 276 277 276 276 276 276 278 278 278 279 279 281 281
292 291 290 289 288 286 284 282 282 283 281 279 277 276 277 275 279 278 277 273 272 273 275 276 275 274 273 274 274 274 274 272 272 273 273 273 273 274 273 276 279 280 282 281
289 289 288 287 286 283 281 281 282 281 279 276 274 274 275 272 270 272 274 273 273 274 276 274 273 272 272 272 271 272 270 270 268 268 268 269 269 270 271 271 271 274 278 277
285 285 283 282 282 282 281 280 279 278 277 273 273 270 270 273 271 269 272 273 274 274 275 272 271 270 271 268 269 267 266 266 264 265 265 266 266 267 267 268 268 269 269 270
284 283 281 281 281 280 280 280 279 276 274 271 269 268 270 274 271 271 268 272 274 266 271 272 270 263 266 263 268 263 265 265 264 263 264 264 264 264 264 265 266 267 267 267
284 283 281 280 279 279 279 278 275 274 272 270 269 270 272 274 273 268 268 273 273 267 271 267 262 260 260 258 258 257 257 261 261 261 262 261 262 262 262 262 263 264 265 265
284 283 281 281 280 279 276 277 278 276 272 273 269 266 273 268 265 272 272 266 262 260 260 262 260 260 257 255 255 254 255 254 258 257 259 257 260 259 260 261 261 262 264 264
283 282 280 279 278 277 278 278 277 277 276 274 273 273 273 273 266 267 262 263 264 263 260 259 259 259 255 253 253 252 253 252 253 257 253 255 257 257 258 259 259 261 262 262
280 278 277 277 276 276 276 275 273 273 272 267 268 261 264 268 268 266 262 260 262 261 259 256 254 254 254 256 253 252 253 254 253 256 251 252 254 255 256 257 257 258 260 260
277 276 276 275 275 275 274 272 269 268 267 261 262 261 268 265 261 262 256 255 255 256 254 254 253 254 254 256 258 254 252 251 251 253 248 249 251 252 254 256 256 257 258 258

GFSNGP_sfc_thetae_039.txt.gz
Theta_e
290 291 293 292 292 291 289 289 285 288 288 292 293 292 293 294 296 301 304 304 304 304 305 307 308 309 308 305 303 301 301 300 298 299 299 300 297 294 296 295 294 294 293 293
287 291 291 289 292 291 291 290 290 289 289 293 292 293 294 295 296 296 297 298 300 303 304 304 306 306 306 303 302 301 299 299 299 300 298 296 295 294 293 293 293 293 293 293
283 286 286 282 288 290 291 292 292 286 291 291 291 293 293 294 295 295 296 297 299 299 303 303 303 304 302 299 298 298 299 300 300 298 296 294 293 293 292 292 292 292 292 290
281 281 275 289 293 293 291 290 290 291 291 293 293 293 294 295 295 295 296 297 298 298 299 299 299 298 298 298 298 298 298 299 297 294 292 292 292 292 292 293 291 289 288 288
280 280 285 289 290 290 288 286 291 291 292 294 295 295 295 298 297 295 294 293 292 292 294 295 296 297 295 292 291 291 291 292 292 293 293 293 292 293 292 290 288 287 287 286
279 278 276 288 292 294 293 283 293 293 293 294 292 286 291 296 293 291 291 291 290 291 290 290 290 291 289 288 289 289 291 292 293 293 293 293 292 291 288 288 287 286 285 285
276 276 283 290 294 294 283 285 294 295 294 293 291 292 292 291 290 290 290 290 290 289 288 288 290 290 289 289 289 292 294 295 295 294 293 293 290 287 286 285 284 283 283 283
279 275 279 294 293 287 290 293 295 294 295 295 294 291 290 290 289 289 288 289 289 289 289 289 289 291 290 290 293 293 293 293 292 291 290 289 286 286 285 283 282 282 278 280
287 286 293 294 293 295 296 295 296 297 297 296 291 289 289 288 288 288 287 287 289 288 288 290 291 291 289 290 291 291 290 288 287 287 287 287 285 284 282 281 280 280 280 279
290 293 294 295 295 296 297 296 296 297 296 292 289 289 288 288 288 288 287 287 288 287 288 287 289 289 289 289 289 287 286 285 285 284 284 284 283 283 282 280 279 281 281 280
289 292 294 294 293 293 292 292 292 292 292 290 290 289 288 288 287 287 287 288 288 287 287 287 289 288 287 287 287 285 285 284 284 283 283 283 283 283 283 283 283 282 282 281
287 295 294 293 293 293 291 290 291 290 289 290 289 288 287 286 286 286 286 288 288 287 287 285 284 284 284 285 284 283 283 283 281 281 281 282 281 282 285 284 285 286 286 283
295 298 294 293 292 292 290 289 289 288 288 286 287 287 287 285 285 287 287 286 285 283 283 283 282 282 284 284 284 283 282 282 282 282 281 281 282 281 281 284 286 286 286 286
293 293 289 290 287 290 289 289 289 288 288 287 286 286 285 284 284 283 282 283 284 283 283 282 281 280 282 283 282 282 282 282 281 281 281 281 280 281 282 281 281 282 285 285
292 294 292 289 289 288 288 288 286 285 285 284 284 284 284 282 282 282 282 283 284 283 281 279 278 278 280 280 280 279 279 277 277 275 275 276 276 276 277 277 277 278 280 281
290 289 289 287 286 287 286 285 283 282 283 283 283 284 283 282 281 281 282 283 281 278 276 273 277 278 279 277 276 276 276 275 274 276 276 276 276 275 275 276 276 277 277 278
287 285 286 286 285 286 285 285 284 282 282 283 282 282 280 280 280 280 280 279 276 275 276 276 275 276 276 275 275 275 274 274 273 274 274 273 274 273 274 272 271 273 276 279
292 291 290 289 287 286 284 283 283 282 282 282 279 276 276 277 278 277 276 276 273 273 276 275 274 274 274 274 274 274 272 272 271 270 271 270 269 271 270 271 270 270 270 272
292 291 290 289 287 285 283 282 282 283 280 279 278 277 277 276 278 276 274 270 269 272 274 274 274 272 272 272 271 270 269 268 267 267 267 266 266 266 267 266 267 268 269 269
289 288 287 285 284 283 282 282 281 280 280 278 276 275 274 272 272 271 272 271 272 273 275 272 271 270 270 270 267 268 266 264 264 263 263 263 262 263 264 263 265 266 266 267
285 285 283 282 281 281 280 280 279 278 278 275 275 273 273 273 271 269 270 272 273 273 273 270 270 269 269 266 267 263 261 258 259 260 260 260 260 261 260 260 261 262 263 265
284 282 282 281 280 280 280 279 277 276 274 271 270 270 270 272 270 270 268 272 273 266 270 270 269 261 265 261 265 257 261 261 260 258 258 258 258 259 258 259 259 260 261 262
283 282 281 280 279 279 279 277 275 273 272 271 271 271 273 274 272 269 268 272 272 266 270 265 261 259 257 255 254 253 253 253 254 256 253 252 254 257 256 257 258 258 259 260
282 282 280 280 278 277 276 276 277 275 272 273 270 268 273 269 266 272 271 264 261 259 259 259 258 258 255 252 251 251 251 249 249 252 252 252 250 252 254 255 256 256 258 258
282 281 280 278 278 277 277 277 276 275 275 274 273 274 273 272 266 267 263 262 262 261 258 256 257 256 252 250 250 249 250 249 248 250 247 247 250 250 251 252 254 255 255 256
280 279 278 277 277 277 275 275 274 273 271 267 268 262 267 267 266 265 261 259 260 259 258 253 251 251 250 253 252 251 250 252 248 250 247 247 248 249 250 251 253 254 254 255
276 276 275 274 275 274 273 272 271 270 269 264 264 263 266 264 262 261 254 253 252 252 252 251 250 252 251 249 251 253 252 249 248 249 245 245 246 246 248 250 251 252 254 254

GFSNGP_sfc_thetae_042.txt.gz
Theta_e
289 290 291 290 290 290 288 288 285 288 287 291 292 292 292 292 296 298 302 303 303 305 306 307 308 309 309 305 302 302 301 300 297 298 297 298 297 295 295 294 294 294 294 295
286 289 289 288 290 290 289 288 288 288 288 292 291 291 293 293 295 295 295 297 299 301 303 303 305 306 306 303 301 301 298 296 297 298 297 296 293 292 293 294 295 295 295 294
283 286 286 282 287 290 289 290 291 286 291 291 289 292 291 292 294 294 295 296 297 298 299 301 300 302 301 299 298 297 297 298 298 296 294 294 294 293 293 293 294 294 293 293
280 281 276 288 291 291 290 290 291 289 290 290 291 292 293 293 293 294 295 294 292 293 295 295 295 295 296 296 297 297 296 295 296 294 292 293 293 293 293 293 293 292 290 288
280 280 284 287 289 289 288 287 290 289 290 291 293 294 293 293 292 291 290 290 289 290 290 290 290 291 291 290 291 291 290 291 292 293 293 293 293 293 294 292 290 289 287 286
279 277 276 287 291 292 291 283 291 292 292 293 292 286 290 291 291 289 288 289 288 288 289 288 288 289 289 288 289 289 291 292 294 294 294 294 293 292 290 289 287 286 285 285
275 276 283 291 292 292 283 285 292 294 293 292 290 289 290 289 288 289 288 288 288 288 287 287 288 289 289 289 290 292 294 295 295 295 294 293 291 288 287 285 284 283 283 283
278 276 281 293 291 287 290 291 293 293 293 293 290 289 289 288 287 287 287 287 288 288 287 288 289 290 289 288 291 293 293 292 291 290 289 288 286 285 284 283 281 282 279 281
287 287 293 293 292 293 294 293 293 294 295 294 289 288 288 287 286 286 286 286 287 288 288 288 289 289 288 289 289 289 287 287 286 285 285 285 283 283 282 281 278 280 281 281
289 292 293 294 294 295 296 295 296 296 295 292 288 288 287 287 286 286 285 285 286 286 286 286 287 288 288 289 288 286 284 284 284 283 283 283 282 282 281 279 279 281 281 281
288 292 292 294 293 292 292 292 292 291 290 289 289 287 287 286 286 285 285 286 286 286 286 285 286 285 285 284 284 283 283 283 282 282 281 282 282 281 281 281 281 281 282 281
289 294 293 293 292 292 291 290 290 289 288 289 289 287 286 285 285 285 285 286 286 285 284 284 283 282 283 283 283 283 282 282 280 280 279 281 281 281 284 284 285 285 286 283
295 297 292 292 290 291 289 289 289 288 288 287 287 287 286 284 284 286 285 284 284 283 282 281 279 280 281 281 282 281 280 280 278 278 277 277 277 276 275 278 281 281 281 282
293 293 289 291 288 289 288 288 288 287 287 286 286 286 285 283 283 283 283 283 283 281 279 278 278 278 279 279 279 278 277 277 275 275 274 275 273 274 274 274 273 274 278 279
291 292 292 289 288 287 287 287 285 284 284 284 285 284 283 282 281 281 282 283 280 277 277 277 277 277 277 277 276 276 275 275 274 273 273 273 273 273 274 274 272 271 272 273
289 289 288 286 285 286 286 285 284 284 284 284 284 283 282 281 281 281 282 282 277 275 276 272 274 275 276 275 275 275 274 274 272 273 272 271 271 270 271 271 271 270 269 269
286 284 285 284 284 284 285 285 285 284 284 284 283 281 281 280 281 280 277 276 275 275 275 274 273 274 275 274 274 273 272 272 269 270 269 269 268 268 268 268 267 267 268 268
291 290 289 287 285 284 284 284 284 284 283 282 280 279 278 278 279 277 275 275 274 273 274 273 273 273 273 272 272 271 269 268 268 267 267 266 265 266 265 265 265 265 265 267
290 288 288 287 286 284 283 283 283 282 280 279 279 277 278 277 277 275 274 272 271 273 272 273 273 271 270 271 269 268 267 263 264 265 264 262 261 262 262 261 261 262 263 264
289 288 286 285 285 283 282 282 281 280 280 278 277 276 276 274 273 272 272 271 273 274 273 271 270 270 269 269 265 266 264 260 262 260 258 259 254 254 256 258 259 259 259 260
285 284 283 283 282 282 281 281 280 279 278 277 276 275 274 273 272 271 271 271 272 273 272 270 269 268 268 265 266 260 257 254 255 256 254 252 251 254 253 253 256 257 257 258
283 281 280 281 280 279 279 279 278 276 275 274 273 272 272 272 270 270 270 272 272 269 270 270 268 261 264 261 264 256 259 257 256 254 253 251 250 251 252 251 254 255 256 257
282 281 280 280 279 278 277 276 275 274 273 272 272 272 273 273 272 270 269 272 271 267 269 265 261 258 257 254 253 251 251 251 250 251 248 246 246 247 249 252 253 253 254 255
282 281 280 280 278 277 275 275 276 275 273 274 271 270 272 269 267 271 270 265 262 259 260 260 258 258 254 251 250 249 249 247 247 247 249 248 244 246 248 248 250 252 252 253
281 280 279 278 277 277 276 276 275 275 274 274 273 274 273 272 267 267 264 262 264 262 259 257 256 254 250 249 248 249 248 247 246 246 245 244 245 246 247 247 248 250 251 252
279 278 278 278 276 276 276 275 273 272 271 269 270 268 267 268 267 265 262 261 261 259 258 253 251 249 249 250 249 249 251 252 247 247 245 244 244 246 246 248 248 249 250 251
276 276 275 273 274 273 273 273 272 271 270 268 268 267 267 265 262 262 256 254 253 252 251 251 249 250 250 248 248 250 251 250 247 248 244 242 242 243 244 245 247 248 249 250

GFSNGP_sfc_thetae_045.txt.gz
Theta_e
292 292 294 294 294 293 292 294 291 294 291 297 299 299 299 298 301 304 306 308 309 311 314 317 318 319 318 317 313 312 309 308 306 304 304 304 302 299 299 297 296 297 296 297
290 292 293 292 293 293 293 293 293 292 292 299 299 298 297 298 300 300 300 302 304 305 306 307 309 313 313 310 308 308 306 304 302 302 299 296 295 294 295 295 297 298 296 295
287 289 290 287 291 293 294 295 295 291 298 297 296 296 297 298 299 299 299 299 300 300 301 301 303 306 306 305 304 303 302 301 300 297 295 295 295 295 296 295 297 296 296 296
286 285 282 294 295 296 295 295 296 295 296 296 297 297 297 298 300 298 297 296 297 298 298 298 300 300 302 302 302 301 300 299 297 295 294 295 295 295 295 295 295 295 295 295
286 286 289 291 293 293 292 293 296 296 295 295 296 298 295 295 296 295 294 294 294 295 295 295 296 297 297 297 297 296 295 295 296 296 295 295 295 294 295 295 295 296 295 294
284 284 283 293 295 296 296 289 296 296 295 295 297 294 297 294 293 293 293 293 293 293 294 294 294 296 295 294 295 294 295 296 297 297 296 296 295 293 293 294 293 293 291 292
283 287 289 294 295 297 289 293 297 297 297 298 296 297 297 293 292 292 292 291 293 293 292 293 295 295 294 294 294 296 297 298 297 295 294 293 292 292 292 292 291 291 289 291
285 286 286 296 293 292 299 297 297 298 299 298 294 292 292 291 291 291 291 291 292 292 292 293 295 295 294 293 296 296 294 291 291 291 291 291 291 290 290 290 289 289 288 288
292 293 299 297 300 299 298 299 298 299 299 296 292 291 291 290 290 290 291 291 292 292 291 292 293 294 291 291 292 291 290 289 289 289 288 288 288 288 288 288 288 287 287 287
295 297 297 298 299 299 299 299 299 300 299 296 293 291 290 289 289 289 290 290 291 290 289 288 289 289 289 289 289 289 288 288 288 288 287 288 288 287 287 286 285 285 285 284
293 295 297 299 299 299 297 297 296 296 296 294 292 290 290 289 289 289 289 289 289 288 287 287 287 286 287 288 289 287 286 285 285 284 284 283 283 283 282 283 283 282 282 281
292 299 300 300 301 297 296 295 295 293 292 293 292 290 290 288 288 288 288 288 287 287 285 284 283 283 284 285 285 284 282 281 280 281 280 280 280 280 280 280 280 280 279 280
298 298 294 293 294 295 294 293 293 293 292 290 290 290 288 287 287 287 287 286 285 283 282 282 281 280 282 282 281 280 279 279 279 279 279 278 278 277 276 279 278 278 277 277
295 296 293 293 293 292 292 291 291 290 290 290 289 288 288 286 286 285 284 284 282 281 281 281 279 278 279 279 279 278 278 277 277 278 278 277 276 276 276 275 275 275 276 275
292 294 294 291 290 289 289 289 287 286 286 286 287 286 286 284 283 283 283 281 281 280 280 279 277 276 278 278 277 277 277 276 276 276 276 274 275 274 274 274 273 273 274 274
290 290 290 289 287 287 288 287 286 285 286 285 285 285 284 283 283 282 280 281 279 277 276 274 275 276 277 277 276 276 276 273 273 274 273 273 272 272 271 271 271 270 271 270
287 286 286 286 286 286 286 287 286 286 285 284 283 283 282 282 280 279 278 278 276 275 275 274 274 275 275 275 274 274 274 273 270 272 271 270 270 270 269 269 268 268 269 269
292 290 290 288 287 285 285 286 286 285 283 282 282 281 280 280 278 277 276 276 274 274 274 274 274 274 273 273 272 272 270 270 270 269 269 268 267 267 267 267 266 266 267 267
290 289 288 287 287 286 285 284 284 282 281 281 281 279 279 278 277 276 276 274 273 273 272 273 273 272 272 271 270 269 269 267 268 268 267 265 265 265 265 265 264 265 265 264
287 287 286 285 285 284 282 282 282 281 281 280 279 278 276 275 275 274 275 274 275 274 273 272 271 270 270 269 268 268 267 266 266 265 264 264 263 263 263 262 262 263 263 263
284 284 283 283 282 282 282 282 280 279 279 280 278 277 276 274 273 273 273 272 273 274 272 271 271 270 269 269 268 267 266 265 264 264 263 262 261 261 261 261 261 261 261 262
282 281 281 281 280 280 281 281 279 278 277 276 275 275 274 273 273 272 273 273 274 272 272 271 270 266 267 267 268 266 266 264 264 263 263 261 261 260 260 260 259 260 260 260
282 281 280 279 279 278 278 277 276 276 275 274 274 274 275 274 274 273 271 273 273 271 272 270 266 264 263 267 266 265 264 263 262 262 261 260 260 259 258 258 258 258 258 259
281 280 279 278 278 277 276 276 276 275 275 275 274 274 274 272 272 273 273 269 268 269 269 268 266 263 262 265 264 264 263 263 262 261 261 256 259 258 258 257 256 257 257 257
280 280 279 279 277 276 276 276 275 275 275 275 274 274 274 273 274 272 271 270 269 269 268 262 262 260 264 264 263 262 262 262 262 260 260 259 258 257 257 256 255 256 255 256
277 276 276 277 277 276 276 275 273 273 273 272 272 272 271 271 270 270 268 267 267 266 267 265 264 263 263 263 262 261 261 262 261 260 258 258 257 257 256 255 254 254 255 255
274 275 274 273 273 274 274 274 273 271 272 272 271 271 270 269 268 268 266 266 265 265 264 263 263 262 263 262 261 261 261 261 259 259 259 257 256 256 254 254 254 253 254 254

GFSNGP_sfc_thetae_048.txt.gz
Theta_e
297 298 298 297 297 298 297 298 294 297 298 301 304 306 307 307 305 307 309 314 317 320 322 324 325 325 325 325 323 322 318 315 312 310 309 309 311 309 306 303 301 300 299 296
295 298 297 295 297 298 298 298 299 299 298 305 308 308 306 305 306 308 309 311 313 315 316 315 317 320 319 318 316 317 315 312 309 309 308 306 303 302 302 299 300 298 299 299
291 296 296 290 296 298 299 301 301 297 302 306 305 305 306 306 307 307 308 308 309 309 310 311 313 315 314 313 313 312 310 307 305 303 301 301 301 300 299 301 300 299 298 298
292 290 286 297 302 303 300 302 303 303 304 305 305 306 305 307 307 305 305 305 306 307 308 309 310 311 311 311 309 308 306 304 302 302 301 301 301 300 300 299 298 297 296 297
292 290 295 295 297 299 298 299 304 303 304 304 303 303 301 305 307 305 305 305 305 306 306 307 307 307 307 306 305 304 302 302 302 302 301 301 299 299 299 297 295 297 298 298
291 289 287 297 302 305 303 295 305 304 303 303 303 298 303 302 302 302 303 303 303 304 304 304 304 305 304 303 302 301 301 301 302 302 301 300 298 295 294 296 298 297 296 296
294 293 296 302 302 303 293 297 305 305 305 304 301 305 306 303 301 302 301 301 302 303 302 303 304 304 302 301 300 301 301 301 300 299 296 294 293 296 297 297 295 295 293 294
295 292 289 302 300 298 305 306 307 306 307 305 306 304 302 301 299 299 299 299 301 300 300 302 303 302 300 299 300 300 298 295 293 294 294 294 294 294 294 294 292 292 293 292
297 298 306 305 306 307 309 308 306 307 307 307 302 301 300 299 298 298 299 299 300 299 299 300 301 300 298 297 298 297 295 294 293 293 293 293 293 293 293 292 291 290 289 289
298 303 304 306 307 306 306 307 307 308 307 305 302 301 299 298 298 298 298 298 299 297 296 295 296 295 295 294 294 293 292 292 292 291 291 291 291 289 288 287 286 285 284 284
301 304 302 305 307 308 305 305 305 306 307 304 303 300 299 297 297 297 297 297 297 295 294 292 292 291 292 293 293 291 290 289 289 288 286 286 285 285 284 284 282 282 282 282
299 306 305 308 310 310 306 304 304 305 304 304 302 299 299 297 297 296 295 295 294 293 291 289 289 288 289 291 291 289 286 285 284 285 285 284 284 284 280 279 279 279 278 278
304 303 304 301 302 307 306 304 304 303 304 301 301 299 298 296 296 293 294 293 291 289 288 287 286 286 286 286 285 284 283 283 283 283 283 282 282 282 281 282 279 278 277 277
302 300 300 298 299 299 301 301 300 301 301 300 299 298 296 294 292 292 291 291 289 287 285 284 284 282 283 283 283 282 281 278 282 282 282 281 281 280 280 279 278 279 278 276
301 299 299 298 297 296 296 297 296 296 296 295 296 294 292 290 290 289 288 286 286 285 284 283 281 280 282 282 281 281 281 280 281 281 279 278 279 279 278 277 277 277 277 277
296 296 296 295 294 293 294 294 293 291 292 291 291 291 290 289 287 286 283 283 281 280 281 278 278 279 281 281 280 280 278 275 276 279 278 277 277 276 276 276 275 275 275 275
294 293 293 292 292 292 292 293 291 290 289 289 288 286 286 283 282 280 279 279 277 276 277 277 277 278 278 278 278 279 279 277 273 277 276 275 275 275 274 274 273 273 273 273
299 298 297 295 293 292 290 290 290 288 286 285 284 283 282 281 279 278 277 276 276 275 275 276 276 276 276 276 276 276 275 275 275 274 275 274 272 273 273 272 272 271 272 272
296 295 294 293 293 291 289 287 286 284 283 283 282 281 280 280 279 277 276 275 274 273 274 275 274 275 274 273 274 274 273 273 273 273 272 270 272 271 271 271 270 270 270 270
289 289 288 287 288 286 283 283 283 282 282 282 280 279 277 277 277 277 277 276 277 276 275 274 274 273 272 271 271 273 272 272 271 271 270 270 270 269 270 268 268 269 269 269
284 284 283 282 282 283 283 283 282 282 282 282 280 278 277 276 276 276 275 273 274 275 274 273 274 273 273 272 272 272 272 271 271 270 270 269 268 268 268 268 268 267 267 267
283 282 282 283 283 282 282 282 281 280 280 278 277 277 275 275 275 275 276 276 275 274 275 274 273 270 271 269 272 272 271 270 270 269 269 268 267 266 266 266 266 266 266 266
283 282 282 280 279 279 280 279 279 279 278 277 277 278 277 277 277 276 273 275 275 274 275 274 270 268 266 272 272 271 270 268 268 268 268 267 266 266 265 265 264 264 264 264
281 280 280 281 281 280 278 278 278 278 277 277 277 277 277 276 276 277 276 274 272 273 273 271 270 266 266 271 270 269 268 268 268 267 267 264 266 265 265 264 263 263 263 263
281 281 280 279 278 277 278 278 277 277 277 276 276 276 277 277 278 276 275 273 271 272 272 267 265 264 269 269 268 267 267 268 267 267 266 266 265 264 264 264 262 262 261 261
278 277 277 278 278 278 278 277 276 276 277 276 276 276 276 275 274 274 273 272 271 269 271 271 270 269 269 268 267 267 266 267 266 266 265 264 264 264 263 262 261 261 261 261
275 275 275 275 275 275 275 276 275 274 275 276 274 275 275 274 273 272 271 271 271 270 270 270 269 268 267 267 267 267 266 266 265 264 263 264 263 263 262 261 260 260 259 259

GFSNGP_sfc_thetae_051.txt.gz
Theta_e
298 300 300 299 299 299 298 299 295 298 298 302 304 306 308 310 310 309 310 313 316 318 322 324 326 328 329 326 326 324 319 316 313 314 314 312 310 309 307 305 303 301 299 299
296 299 299 296 299 299 299 299 299 299 299 306 307 308 308 309 308 309 310 312 316 320 323 324 326 326 324 323 323 323 319 316 315 314 314 311 309 308 307 305 305 303 302 301
292 297 297 293 297 298 299 301 300 296 302 306 305 306 307 308 309 310 312 314 316 318 319 319 321 321 319 318 318 316 314 312 310 308 307 305 305 304 304 304 304 302 301 300
294 292 287 297 304 303 300 301 303 303 304 306 306 308 309 310 310 311 312 313 313 314 314 316 317 316 316 315 313 311 309 307 307 306 305 305 305 303 303 303 302 302 300 298
292 292 295 298 301 301 299 299 304 303 305 306 307 307 307 309 312 312 311 311 311 312 313 313 313 313 312 310 309 308 306 306 305 305 304 304 303 302 301 301 297 300 300 299
295 289 287 297 303 307 306 296 306 306 306 305 305 301 304 309 311 310 310 310 309 310 311 310 310 311 309 307 306 305 305 305 305 305 303 301 300 298 296 299 299 299 297 297
295 293 295 302 304 307 295 298 307 307 306 306 304 306 310 310 308 309 308 308 308 309 308 308 309 309 306 305 304 305 305 304 302 301 300 299 297 298 299 297 297 296 294 295
296 293 290 306 304 299 306 311 310 309 309 308 309 309 308 307 306 306 306 306 307 307 306 307 308 307 304 303 304 304 302 300 299 298 297 298 297 296 295 295 294 294 293 293
298 298 307 307 308 310 311 310 311 311 310 310 309 307 306 305 305 305 304 305 306 305 305 306 306 306 303 302 302 300 299 298 297 295 295 295 294 294 294 293 292 290 288 288
300 304 306 308 309 311 312 312 312 313 311 311 309 308 306 305 304 304 305 304 305 304 303 302 303 303 301 300 300 298 296 295 294 294 293 293 292 290 289 288 287 286 285 285
300 302 305 307 309 311 311 311 311 310 310 310 309 306 305 304 304 304 304 304 303 302 300 299 299 298 297 297 297 294 293 292 291 290 289 288 287 286 286 283 282 283 283 282
298 303 306 307 310 312 311 311 310 309 308 310 309 306 305 303 304 303 302 302 301 299 297 295 295 295 295 295 294 292 289 288 288 288 287 287 286 284 280 281 280 279 278 278
304 308 308 309 306 306 310 312 311 309 309 308 308 306 305 303 302 299 301 300 298 296 294 293 291 290 291 291 291 289 287 285 284 285 285 284 284 284 284 280 280 279 278 277
309 306 303 304 304 304 307 310 306 308 308 308 307 306 304 302 299 299 298 297 295 292 291 289 287 284 286 286 285 284 283 281 285 285 284 284 283 282 283 281 280 281 279 277
306 305 304 302 302 302 303 303 303 303 304 304 304 302 301 298 297 296 295 293 291 289 286 285 283 282 284 285 283 283 283 283 283 283 281 280 280 281 280 279 279 279 279 279
303 301 301 300 301 299 299 299 299 299 299 300 299 299 298 296 293 291 290 288 285 283 280 279 280 281 283 282 281 280 278 277 279 280 279 279 279 278 278 278 277 277 277 277
299 299 300 299 299 298 298 299 298 297 297 296 294 294 291 287 285 282 280 280 279 278 278 278 278 279 280 280 280 280 279 277 275 278 278 277 277 277 276 276 276 276 276 276
300 301 301 301 300 298 296 296 295 294 291 288 285 284 283 281 279 278 277 277 277 276 277 277 277 277 277 277 278 277 277 276 276 277 277 276 275 275 275 275 274 274 274 275
296 296 297 297 297 295 292 289 287 285 284 283 282 280 279 279 278 277 277 275 275 274 274 276 276 275 274 274 276 276 276 276 275 275 275 272 274 274 274 274 273 273 273 273
286 286 285 285 285 285 283 284 284 282 282 281 280 278 277 277 277 277 278 277 277 275 276 275 275 274 273 272 273 274 275 275 274 274 274 272 273 272 272 271 271 271 272 272
283 283 282 282 282 283 283 284 283 282 282 281 279 278 277 278 277 277 275 273 274 275 275 275 275 274 274 274 274 275 274 274 273 273 272 272 271 272 271 271 271 270 270 270
284 283 282 282 282 281 282 282 281 280 279 278 277 277 277 276 276 277 278 275 275 275 276 275 274 272 272 271 274 274 273 272 271 272 271 271 270 270 270 269 269 269 269 268
283 282 281 281 280 280 281 280 280 279 279 278 278 278 278 278 277 275 273 276 276 276 276 275 271 270 269 273 273 272 272 271 271 270 270 270 269 269 268 268 268 267 267 267
282 282 282 282 281 280 278 278 278 278 278 278 278 279 278 277 276 277 277 276 274 275 275 273 271 268 268 272 272 271 270 270 270 270 270 268 268 268 268 267 267 267 266 266
281 281 281 279 278 278 278 278 278 278 277 277 278 278 278 279 279 277 277 274 273 274 274 269 268 267 271 271 271 270 269 270 270 268 268 268 267 267 267 267 266 265 264 264
278 277 278 279 279 279 280 279 278 279 279 277 277 278 277 277 276 276 275 274 273 272 273 273 271 270 271 270 270 269 269 269 268 268 267 266 267 266 266 265 265 264 264 264
276 277 277 276 276 276 277 277 276 275 276 277 275 276 276 275 274 274 273 273 273 272 272 272 271 270 269 268 268 269 268 268 267 267 266 265 265 265 265 264 264 263 262 261

GFSNGP_sfc_thetae_054.txt.gz
Theta_e
298 299 300 299 298 299 298 298 295 298 298 301 304 305 307 309 310 309 309 312 314 317 321 324 325 326 327 326 323 321 319 317 314 313 312 310 308 305 304 303 302 300 299 298
296 298 298 296 299 299 299 298 298 299 299 306 307 307 308 308 309 308 309 309 312 316 320 322 324 325 324 322 320 319 316 314 314 313 312 310 307 305 303 302 300 300 299 298
291 297 296 290 297 298 299 301 299 295 301 306 304 305 306 307 308 308 309 310 313 316 320 323 324 324 322 321 321 317 314 314 313 310 307 306 305 304 302 301 301 301 299 299
292 292 284 296 303 302 299 300 302 301 302 304 305 307 308 310 310 310 311 313 316 319 320 321 321 320 318 317 314 312 310 308 307 306 304 304 303 302 301 300 300 300 299 297
290 289 294 297 300 299 298 297 303 302 303 305 306 308 309 310 312 313 314 315 315 316 317 317 316 315 314 311 310 308 306 305 305 304 303 302 301 300 300 299 297 298 299 297
295 287 284 297 302 305 304 293 305 305 305 305 306 300 304 310 312 313 313 313 312 313 313 312 312 312 309 307 306 305 305 304 305 304 303 299 299 298 297 298 299 298 296 295
292 290 294 301 303 305 292 295 307 307 307 308 305 307 310 311 311 312 311 310 311 311 309 309 310 309 306 305 304 304 305 304 303 301 300 299 297 297 297 296 295 291 290 291
293 290 287 305 304 297 302 307 311 310 311 312 310 311 310 310 309 309 308 308 309 308 307 308 308 307 304 303 304 304 302 301 300 299 298 298 297 294 294 293 291 289 288 287
296 296 306 306 306 309 310 310 311 311 311 312 311 309 309 307 307 307 307 306 307 306 306 307 307 306 303 303 303 301 299 297 297 297 296 295 293 292 291 291 287 284 284 283
298 300 300 306 309 309 310 310 311 312 313 314 310 309 307 307 306 306 305 305 306 305 304 304 305 305 303 302 301 299 297 295 294 292 292 292 290 288 287 284 283 283 282 281
299 302 302 303 305 309 310 312 312 312 311 310 311 309 307 306 305 305 305 305 305 303 303 302 303 301 301 300 299 295 294 293 291 290 288 286 283 284 282 280 280 281 279 280
297 304 304 306 308 312 307 308 311 310 310 310 311 309 308 305 305 305 304 304 302 302 301 299 298 297 297 297 295 293 290 288 286 286 285 285 283 281 282 280 280 279 279 278
301 305 306 309 307 308 306 307 311 311 310 308 311 309 307 305 305 301 303 302 301 299 297 295 294 293 293 294 292 288 285 285 284 285 284 283 283 283 278 279 280 279 279 278
308 307 306 306 304 304 304 306 308 310 309 309 309 308 306 304 302 302 301 300 298 295 293 291 288 286 287 286 284 283 282 284 284 283 283 283 282 281 281 280 278 278 279 278
305 308 306 305 304 304 303 304 303 305 305 306 307 304 304 301 300 299 298 295 293 291 288 285 284 283 285 285 283 283 282 282 282 280 279 279 280 280 279 279 279 278 278 278
302 302 302 301 301 301 300 300 299 299 300 302 301 301 299 298 294 292 291 289 286 282 280 280 280 281 283 281 279 278 278 278 280 279 278 279 279 278 278 277 277 277 276 276
298 298 299 299 301 300 299 300 300 299 297 292 289 289 284 281 279 279 279 279 278 277 278 278 277 279 280 280 280 279 277 276 276 278 278 277 277 277 276 276 275 275 274 270
298 298 298 299 300 299 296 294 291 288 285 284 283 281 279 278 276 276 276 276 276 275 276 277 277 277 277 277 277 277 277 277 277 276 276 275 274 274 275 274 274 273 273 273
289 289 289 290 290 287 286 284 284 284 283 281 279 277 277 276 276 275 276 274 274 273 274 276 276 275 274 275 276 276 276 275 275 275 274 272 273 274 273 273 272 272 271 271
283 283 283 283 283 283 281 281 281 280 280 279 278 276 275 275 276 277 277 274 275 274 276 275 274 273 273 273 275 274 274 274 273 273 273 271 272 272 271 271 271 271 270 270
282 282 282 281 281 282 282 281 280 279 279 279 277 276 276 276 276 275 273 272 274 275 275 275 275 274 273 273 274 274 274 273 273 273 272 272 271 271 271 270 270 269 269 269
281 281 280 280 279 279 280 279 279 278 277 277 277 276 276 276 276 275 275 273 274 275 275 274 272 271 271 271 274 274 273 272 271 271 271 271 270 269 269 269 268 268 267 265
281 280 280 278 278 278 278 278 278 278 278 278 277 277 277 277 277 274 272 276 276 276 274 272 270 270 269 272 273 272 272 271 271 270 270 270 269 268 267 267 266 266 265 265
280 280 279 280 279 278 277 277 278 278 278 278 278 279 278 275 275 277 276 275 274 274 273 272 270 269 267 272 272 271 270 270 269 269 269 268 268 268 267 266 265 265 264 263
279 280 280 279 278 278 278 278 278 278 278 277 277 277 277 278 276 275 274 274 274 274 270 268 268 268 271 271 270 269 269 269 268 267 266 266 266 266 266 266 265 264 263 261
277 276 277 277 277 278 278 277 276 278 277 276 276 276 276 276 276 275 274 273 273 272 272 272 270 269 270 269 268 268 268 268 267 267 266 265 265 264 264 264 263 263 262 262
275 276 275 275 275 275 274 274 274 273 274 276 274 275 275 275 274 274 273 272 272 271 271 270 271 269 269 267 267 267 267 267 266 265 265 264 264 263 263 263 262 261 260 260

GFSNGP_sfc_thetae_057.txt.gz
Theta_e
295 297 298 297 297 296 295 296 291 294 295 299 300 299 301 305 304 304 305 310 313 313 314 316 318 320 318 318 319 319 317 315 312 311 310 308 306 304 304 303 302 301 299 299
291 296 296 295 297 297 297 298 298 297 296 303 304 303 302 304 304 304 304 306 311 315 317 318 320 318 317 315 314 314 312 311 311 310 307 305 304 302 301 300 300 299 298 297
287 294 294 288 293 296 297 298 297 292 295 300 302 301 302 302 304 304 303 304 305 315 318 319 320 318 316 315 314 312 311 311 311 309 306 304 303 301 300 298 297 295 295 295
284 287 282 293 299 298 297 299 298 297 297 299 300 301 301 303 303 303 303 307 314 315 317 320 320 318 317 314 312 311 309 307 306 304 303 302 299 298 297 296 295 295 297 298
285 286 290 294 297 295 295 294 299 298 298 299 300 299 299 304 305 305 307 309 311 314 315 312 314 313 311 309 307 305 304 303 303 302 300 299 298 298 297 297 297 297 297 294
284 282 281 291 299 303 301 289 301 301 300 300 298 293 296 303 308 307 308 309 310 311 311 311 310 309 307 304 304 303 303 302 302 301 299 297 297 297 297 295 297 296 294 291
285 284 288 298 301 303 289 289 302 303 302 300 297 299 302 305 306 307 306 307 307 308 308 307 307 306 304 303 301 302 303 302 300 298 297 296 295 294 294 293 290 287 287 287
286 283 282 301 301 294 296 302 303 304 302 300 303 303 304 305 305 305 304 305 305 304 303 303 305 304 301 300 301 301 300 298 297 297 297 296 293 293 291 289 286 284 284 282
290 288 300 301 303 304 304 302 305 305 305 305 303 303 304 303 303 303 302 302 303 302 301 301 301 302 299 299 299 298 297 296 296 296 295 294 289 288 288 287 283 281 282 281
293 296 297 300 303 305 306 305 307 307 307 308 306 304 302 303 302 301 301 300 301 301 300 299 301 301 299 299 298 297 295 294 292 290 289 287 287 286 283 280 280 281 280 279
294 298 299 302 302 304 305 307 305 307 306 305 308 307 303 301 300 300 301 300 302 300 299 298 299 298 298 297 297 294 292 290 288 285 282 281 282 281 279 279 281 279 279 279
290 299 298 302 304 306 305 303 304 305 305 305 305 303 302 301 300 300 300 300 300 298 296 296 295 295 295 295 293 290 287 285 282 282 281 281 280 279 281 280 281 281 280 278
295 301 301 302 303 303 303 303 305 305 306 305 305 304 303 300 300 297 298 299 297 293 292 288 285 284 287 288 287 285 283 283 282 282 282 281 280 278 276 279 280 280 279 279
301 302 300 300 298 301 301 302 302 304 303 304 304 303 301 301 299 298 296 294 292 286 284 283 282 282 284 285 284 283 283 282 281 281 280 280 280 280 279 277 276 277 279 278
298 300 299 300 300 299 299 299 298 298 299 299 300 299 299 296 295 293 291 287 285 283 282 281 280 279 281 282 281 281 281 280 278 278 279 279 279 279 279 278 278 277 278 277
298 299 299 298 299 297 297 296 295 292 291 290 285 284 284 283 281 281 282 281 278 276 277 277 278 280 280 279 279 279 279 279 279 279 278 278 278 277 277 277 277 276 275 274
293 291 293 293 295 291 290 290 288 286 284 282 281 281 280 278 278 277 277 277 277 276 277 277 277 279 280 280 278 277 276 277 277 278 276 276 276 276 275 275 274 274 272 270
291 291 291 290 289 288 285 284 283 281 279 280 279 278 277 276 275 275 275 276 275 274 275 275 276 277 277 278 278 277 277 277 276 275 276 274 273 274 274 273 273 272 271 271
285 285 285 285 285 283 282 280 279 279 278 278 276 275 275 275 275 275 275 273 272 272 273 275 276 275 275 276 276 276 275 274 274 274 273 272 272 273 272 271 270 269 269 269
282 282 281 281 281 280 279 279 278 277 277 277 276 275 274 274 274 273 273 272 274 274 275 274 274 273 274 275 275 274 274 273 273 272 272 271 270 269 269 270 269 268 266 266
279 279 278 278 277 278 278 278 277 276 276 276 275 274 274 274 274 273 272 271 274 275 275 274 274 273 273 273 274 273 272 271 271 270 269 267 267 267 266 266 265 264 263 264
278 277 277 277 277 277 277 277 277 277 276 276 276 275 274 273 273 273 273 272 274 274 273 272 271 270 270 272 273 272 271 270 269 269 268 266 264 262 262 261 261 262 261 258
278 278 277 276 276 276 277 277 277 276 276 275 275 275 275 275 275 272 271 276 274 272 271 270 269 269 269 271 270 269 268 267 266 265 265 266 265 263 260 259 260 258 256 258
278 278 278 278 278 277 275 276 277 277 276 275 275 276 275 273 273 274 273 272 271 271 270 269 268 268 267 268 267 265 264 262 262 263 262 261 258 258 261 260 259 260 259 256
275 276 277 277 276 276 277 277 276 276 275 274 274 275 274 275 272 272 272 272 271 269 267 266 266 265 266 265 265 263 261 261 262 260 262 260 258 255 254 256 259 259 258 257
274 273 273 273 273 273 274 273 272 274 273 272 272 272 273 273 272 271 270 268 268 267 268 262 262 263 259 258 256 256 257 259 261 259 256 255 253 254 255 258 258 258 255 251
272 272 272 272 272 271 270 271 270 269 271 270 269 270 270 270 269 270 267 266 267 265 262 262 266 265 264 262 262 259 256 255 256 258 258 253 251 250 254 255 253 250 249 248

GFSNGP_sfc_thetae_060.txt.gz
Theta_e
294 294 295 295 295 295 293 293 289 291 294 298 300 301 302 301 302 302 302 307 309 310 310 314 317 318 319 321 322 323 322 322 320 319 315 312 310 308 306 305 304 302 302 301
290 294 294 293 295 296 296 294 294 294 294 302 302 302 301 302 303 302 301 306 310 311 312 317 317 315 314 315 320 322 320 317 313 311 309 307 305 305 303 302 302 300 299 299
284 291 292 286 292 295 295 297 295 291 296 302 301 302 302 301 303 302 302 302 309 311 314 318 316 315 313 313 315 315 313 312 310 308 306 304 304 302 300 299 299 299 297 297
284 285 281 292 298 297 295 297 298 296 297 301 300 303 301 303 304 301 302 301 305 313 314 317 316 314 312 312 312 311 311 309 308 306 303 302 301 300 300 299 296 296 295 294
284 284 289 293 295 295 294 294 299 298 298 298 299 298 297 301 302 302 302 303 307 312 314 316 315 313 311 310 310 308 307 306 306 304 302 301 299 297 295 294 294 294 295 294
284 281 279 290 297 300 299 288 298 299 299 299 299 290 294 301 304 305 307 310 312 310 311 311 311 311 309 306 305 304 304 303 303 303 300 298 296 295 295 295 296 296 293 291
284 283 286 295 300 301 289 289 299 302 301 300 297 297 300 303 305 306 307 308 308 311 310 307 307 307 304 303 302 303 303 301 299 298 297 297 296 296 295 292 290 287 285 284
285 283 280 300 300 292 295 301 303 303 301 299 300 300 301 305 305 305 305 305 307 306 305 305 305 304 301 300 301 301 300 298 297 297 297 296 294 294 290 288 285 283 281 279
288 287 298 300 301 304 303 301 303 302 304 304 301 300 302 302 303 304 304 302 304 303 300 300 302 302 298 297 298 298 297 296 295 295 294 293 291 288 287 286 284 282 280 278
292 296 298 299 302 304 304 303 305 304 304 304 303 303 301 301 301 301 301 301 300 300 299 297 299 299 298 298 297 296 294 293 293 290 286 286 285 285 284 281 282 281 280 278
292 296 298 299 301 302 302 305 305 305 303 302 303 303 303 301 300 300 300 300 300 299 297 296 297 297 297 297 296 294 292 287 285 284 283 280 279 279 280 280 281 281 279 279
289 296 295 297 300 304 301 302 303 303 303 303 302 304 302 301 300 301 299 299 297 296 295 294 294 294 294 294 292 289 285 283 282 281 280 278 278 278 282 281 282 282 281 279
294 297 298 299 300 301 301 301 303 303 304 302 305 305 302 299 299 295 298 296 294 288 287 286 286 286 288 289 288 285 283 282 282 281 280 279 279 279 277 279 281 280 280 280
296 298 297 296 296 298 299 300 300 300 300 299 301 303 299 297 297 295 290 286 285 284 283 282 282 282 284 284 283 282 281 281 281 280 280 280 280 279 279 278 277 277 279 278
293 296 296 298 297 296 297 297 294 290 288 287 289 295 295 291 286 284 284 282 281 280 280 280 280 280 282 283 281 280 280 279 280 279 279 279 279 279 279 278 278 278 278 277
294 293 294 293 291 290 291 290 287 284 283 282 281 280 280 280 279 279 279 280 278 277 278 278 278 280 281 281 281 280 279 279 279 278 278 278 278 277 277 277 276 275 275 273
289 288 290 291 287 286 284 284 283 281 280 280 279 279 279 278 277 276 276 277 277 277 277 277 277 279 279 278 277 277 278 278 277 277 276 276 276 275 275 274 274 274 272 271
287 287 288 288 287 284 282 281 280 279 278 278 277 277 276 275 274 274 274 274 274 273 274 276 277 277 277 277 277 277 276 276 276 276 275 273 273 274 273 273 273 272 271 271
283 282 282 281 281 280 279 278 277 277 277 277 275 274 274 274 274 273 274 273 272 271 272 275 276 276 275 276 276 275 275 274 274 274 273 272 272 272 271 271 270 270 270 270
279 279 279 278 279 278 277 277 277 276 276 275 274 273 272 273 273 273 273 271 272 273 274 274 274 274 274 274 275 274 273 272 272 272 271 271 270 269 269 270 269 268 267 267
277 277 276 276 276 276 276 277 276 275 275 275 273 273 272 273 273 273 272 270 272 273 272 272 272 272 273 274 273 272 271 271 270 269 268 268 268 268 266 266 265 264 263 263
276 276 276 276 276 276 277 277 276 276 275 274 274 273 272 272 272 272 273 271 272 271 271 270 270 271 272 272 272 270 269 269 268 268 267 266 265 264 262 261 260 260 258 255
277 277 276 276 275 275 276 275 275 275 274 274 274 274 273 273 273 272 269 272 271 270 270 269 269 270 270 269 268 267 266 265 264 263 261 260 259 259 259 260 260 259 255 256
276 277 277 278 277 276 274 275 275 275 274 274 274 274 273 270 271 272 271 270 269 268 268 268 268 268 267 266 264 263 262 261 259 255 256 255 252 252 252 250 252 252 256 256
274 273 274 274 273 273 274 274 274 273 273 273 273 273 273 272 270 270 269 269 268 266 265 263 262 261 259 258 258 257 256 255 255 254 253 250 249 248 248 250 251 252 252 251
272 271 271 271 271 271 272 272 271 271 271 269 269 269 269 270 269 268 267 266 266 265 265 265 263 261 259 259 256 253 252 254 253 252 249 249 248 249 249 250 249 248 247 246
269 270 270 268 268 269 268 268 267 267 266 264 264 266 266 266 266 266 263 262 260 259 259 256 257 256 255 252 252 251 251 252 253 252 249 247 247 248 248 247 246 245 244 246

GFSNGP_sfc_thetae_063.txt.gz
Theta_e
291 293 294 293 293 293 291 292 287 290 291 295 298 299 300 301 301 301 299 303 305 306 307 310 313 315 316 316 317 318 318 319 319 320 321 321 320 318 312 314 313 311 305 303
286 293 292 291 292 293 292 292 291 293 291 298 300 301 300 301 301 300 300 301 305 308 309 311 314 314 313 315 316 318 319 319 320 320 318 317 315 309 306 305 306 303 302 300
283 289 289 285 291 292 293 296 293 289 294 299 299 299 301 301 301 301 301 300 304 307 310 313 316 315 314 316 317 317 318 318 319 316 312 309 307 306 303 303 303 301 299 299
282 285 278 290 294 296 294 296 297 295 297 299 300 301 303 302 301 301 302 302 302 306 310 313 313 311 314 317 318 318 317 315 312 310 308 307 305 302 301 301 299 298 298 299
280 281 286 288 293 293 292 292 297 297 298 299 299 296 295 300 299 301 302 303 302 305 310 312 311 311 313 314 314 313 311 309 308 306 304 303 301 300 300 297 297 297 297 295
284 280 277 285 294 297 298 287 297 299 300 300 299 289 293 299 300 300 300 302 306 309 311 312 310 311 311 310 310 310 309 308 307 305 303 300 299 299 297 297 297 295 293 293
283 280 284 292 297 301 288 288 300 301 300 297 295 298 300 299 302 304 305 307 308 310 311 310 310 310 306 306 306 306 305 304 302 302 300 298 296 296 296 294 290 287 285 287
282 280 279 298 295 289 295 299 301 301 301 300 300 300 300 300 302 305 305 307 307 307 304 305 307 306 302 300 301 302 301 299 298 298 297 297 295 292 289 287 285 283 282 281
285 286 295 297 296 299 300 301 301 301 303 300 300 301 301 300 302 303 304 304 304 303 301 301 303 304 300 297 299 298 297 297 296 296 294 293 290 288 287 285 283 282 281 279
289 292 294 296 300 302 304 304 303 303 303 301 300 301 301 300 301 301 300 300 301 302 300 297 298 298 297 297 297 297 295 294 292 288 288 288 288 287 286 284 283 281 279 277
289 293 296 298 299 301 301 304 304 305 304 303 302 302 302 302 300 300 300 300 300 299 297 295 296 296 296 297 296 294 290 288 286 285 283 281 281 282 282 283 284 282 280 278
284 294 292 296 299 300 301 300 302 302 301 303 303 302 301 301 300 299 299 298 296 295 295 294 294 294 295 296 293 288 285 284 283 282 281 281 280 279 282 283 283 283 282 280
292 294 294 297 299 299 299 299 300 299 297 297 298 302 302 298 297 294 295 292 289 288 288 287 287 286 288 289 288 286 283 283 281 280 280 279 279 278 276 280 281 281 280 280
294 294 295 297 295 296 297 296 293 290 288 286 290 296 296 295 290 287 285 284 284 283 283 283 282 282 284 285 284 283 282 282 281 280 280 280 279 279 279 278 276 277 279 279
291 295 294 295 292 290 291 290 286 284 282 282 281 283 283 281 280 280 281 281 281 280 280 281 280 280 282 282 282 281 281 280 280 280 280 280 280 279 279 279 278 277 277 277
289 293 293 289 287 287 285 285 282 280 280 279 278 278 278 278 278 278 279 280 278 277 278 278 278 280 281 281 281 280 279 279 279 279 278 278 278 278 277 277 276 276 275 274
286 286 287 288 285 283 282 281 280 279 279 278 277 277 277 276 275 275 275 276 276 275 276 276 276 278 279 279 278 278 277 277 277 277 276 276 275 275 275 274 274 273 271 272
285 283 283 283 282 280 279 279 279 278 277 277 277 275 274 274 273 273 273 274 273 273 274 275 276 276 276 277 277 276 276 276 275 274 274 273 273 274 273 273 272 271 271 271
280 279 279 279 279 278 277 276 276 276 276 275 274 273 273 273 272 272 273 272 271 270 272 274 276 275 275 275 275 275 274 273 273 273 272 272 271 271 270 270 270 270 270 269
277 277 277 277 277 277 275 275 275 274 275 274 273 272 271 271 272 271 271 269 270 271 273 273 274 274 273 273 273 273 272 271 271 270 270 270 269 268 269 268 268 267 266 266
275 275 275 275 275 275 275 275 274 273 273 273 272 271 271 272 272 271 269 268 270 271 272 272 273 272 273 272 272 271 270 269 269 268 267 267 266 265 264 264 264 263 261 259
275 275 274 274 274 274 275 275 275 274 273 273 273 272 271 270 270 269 270 269 270 270 271 271 270 270 270 270 269 268 268 267 266 266 265 264 262 260 258 258 257 256 255 254
276 276 275 274 274 274 274 274 273 273 272 272 271 271 270 271 271 268 266 270 270 270 270 268 268 267 267 266 266 265 264 263 262 260 259 257 256 254 253 253 253 251 251 253
274 275 275 276 275 274 272 273 273 273 272 272 271 271 271 268 268 270 269 268 268 267 266 265 264 263 263 262 261 260 259 257 255 252 254 251 249 249 248 247 249 247 248 249
272 272 273 272 272 272 272 272 271 271 270 270 270 270 270 270 267 267 267 266 266 264 263 260 260 259 257 256 255 252 251 250 249 249 248 247 246 245 245 246 246 247 246 245
270 269 269 270 270 270 270 269 267 267 267 266 266 265 266 267 266 265 263 262 262 261 260 256 254 254 253 252 249 248 249 253 250 249 247 246 246 246 246 246 245 245 243 243
268 268 268 267 267 267 266 266 264 263 262 259 261 263 264 263 261 260 256 256 255 254 252 251 250 251 250 248 249 249 249 249 248 248 244 244 245 244 244 244 243 242 241 242

GFSNGP_sfc_thetae_066.txt.gz
Theta_e
292 292 292 290 289 290 290 289 286 287 289 293 296 298 299 300 299 300 299 299 300 302 307 310 311 313 313 313 313 313 313 313 313 315 315 315 315 316 315 318 319 319 315 310
286 291 291 288 290 291 292 291 290 290 290 296 298 299 298 299 300 299 300 301 301 304 304 307 311 312 313 313 314 314 314 314 316 316 317 316 317 318 318 317 317 314 310 309
281 288 288 282 288 288 289 292 292 288 292 297 296 298 298 299 300 300 301 302 301 303 307 307 308 311 312 313 314 314 315 315 316 316 317 317 318 316 312 312 309 306 304 304
279 281 276 285 295 293 292 292 292 292 295 296 297 299 300 300 300 300 301 301 302 302 305 308 310 311 311 312 312 314 314 315 316 316 316 311 309 308 306 303 304 302 302 300
277 278 283 286 289 291 290 288 293 294 296 297 299 296 294 298 300 302 302 303 303 302 303 307 311 310 313 313 313 312 312 313 314 314 309 307 305 303 301 300 299 298 298 297
282 276 273 282 293 299 298 284 296 298 298 297 297 292 297 300 299 299 299 299 299 300 306 308 308 312 312 313 313 314 313 311 310 309 306 304 301 299 299 299 296 295 294 294
283 281 282 290 295 300 286 283 295 298 298 298 295 295 298 299 300 299 303 303 305 306 307 308 310 313 312 312 311 310 309 307 305 304 301 300 297 297 296 294 291 288 287 287
282 281 277 295 294 289 294 295 295 297 299 298 300 299 300 300 301 303 304 305 306 305 305 308 309 310 308 307 305 304 303 302 301 298 297 297 295 293 291 288 286 284 283 282
284 282 291 295 294 298 297 296 297 300 301 300 299 299 299 300 300 301 303 303 303 302 301 303 304 304 301 300 301 301 299 297 296 295 294 293 291 289 287 287 285 284 283 280
286 289 292 293 295 298 299 299 301 303 302 302 299 300 300 300 300 300 301 300 301 300 298 297 299 300 299 298 299 299 296 293 293 291 290 290 290 289 286 285 284 283 281 279
287 290 293 293 295 297 298 301 303 305 303 301 301 301 301 301 300 299 299 298 298 297 295 295 297 297 299 298 297 293 291 289 287 286 285 283 283 284 285 285 286 283 282 279
284 291 291 292 295 297 296 297 298 300 301 298 295 295 299 299 300 299 296 296 294 293 294 293 294 294 295 294 292 289 286 285 284 284 283 283 282 281 283 283 284 283 282 279
291 294 292 293 295 293 295 293 291 289 288 288 289 290 295 292 288 288 288 286 285 284 284 284 284 284 286 289 288 287 284 283 282 282 281 280 280 279 277 280 282 282 281 281
293 291 291 292 290 289 290 290 288 285 284 282 283 284 282 281 282 281 281 283 283 282 282 281 281 281 283 284 284 282 282 282 281 280 280 279 279 278 278 277 276 277 280 280
289 290 293 292 289 287 287 286 282 281 280 279 279 279 279 278 278 279 281 281 281 280 280 281 280 281 283 283 282 281 281 280 281 280 280 280 280 279 279 278 277 276 277 278
286 288 290 288 286 284 283 282 280 279 279 278 277 277 277 277 277 277 277 278 276 276 277 277 277 279 281 281 280 279 279 279 279 278 278 278 278 277 277 277 276 276 275 273
283 283 283 284 282 280 279 280 279 278 278 277 276 277 276 275 275 274 274 275 274 274 275 275 275 277 278 278 278 277 276 276 276 276 275 275 275 274 274 274 273 272 271 272
282 281 281 281 280 279 278 278 277 276 275 275 274 274 272 272 271 271 272 273 273 272 274 274 275 275 275 276 276 275 275 274 274 273 274 273 273 273 272 272 271 271 271 270
278 278 278 278 278 277 276 275 275 275 274 273 272 271 271 271 271 271 271 271 270 270 271 273 275 274 274 274 274 274 273 272 272 272 271 271 270 270 270 269 268 268 268 267
276 276 276 276 276 275 274 274 274 273 273 273 272 270 269 270 270 270 270 268 270 271 273 273 273 272 272 272 272 271 271 270 270 269 269 268 267 266 267 267 266 265 264 263
274 274 274 274 273 274 273 273 273 272 272 272 270 269 268 269 270 269 268 267 269 271 271 271 271 270 270 270 270 269 268 267 266 266 265 264 263 262 262 261 260 258 257 255
274 274 273 273 273 272 273 273 273 272 272 271 271 270 269 268 268 268 269 268 270 269 269 268 268 268 268 268 268 266 266 265 264 264 262 261 259 256 253 253 252 253 252 252
275 274 274 273 272 272 273 272 271 271 270 270 269 269 269 269 269 267 265 269 268 267 267 265 265 265 264 264 263 262 261 260 259 257 255 252 251 249 249 248 247 248 248 250
274 274 274 274 274 272 270 271 271 271 270 270 269 269 269 267 266 268 267 264 263 262 262 262 261 261 260 260 258 256 255 253 252 250 251 248 244 245 245 245 247 245 245 246
272 272 272 272 271 270 270 270 269 269 268 268 268 268 268 268 265 265 264 263 264 261 259 257 256 255 254 252 251 250 249 248 246 246 246 245 244 244 243 244 243 244 243 242
269 269 268 268 268 268 267 267 265 266 266 263 263 263 263 263 262 261 260 259 259 257 255 252 251 250 249 249 246 246 248 250 247 246 244 244 244 244 244 244 243 242 241 241
266 267 267 265 265 265 264 264 262 261 259 256 260 262 261 259 257 257 254 252 250 250 249 247 247 249 247 246 247 246 247 246 245 245 242 243 243 242 242 241 240 240 239 239

GFSNGP_sfc_thetae_069.txt.gz
Theta_e
292 292 293 291 291 291 289 291 288 291 291 295 299 300 302 304 305 304 304 305 305 307 310 314 316 316 317 316 316 317 315 315 315 317 316 316 317 317 317 318 318 319 319 320
288 292 292 289 291 291 291 292 292 292 292 299 301 302 300 302 303 303 305 306 307 306 308 310 314 316 317 317 317 317 316 315 316 316 316 316 316 316 317 318 320 322 321 320
283 288 289 283 288 290 293 293 293 289 294 296 296 299 301 303 305 304 305 306 307 308 309 310 312 316 317 318 318 316 316 316 316 316 316 317 316 316 317 318 320 321 318 315
283 284 277 288 293 294 293 294 296 294 295 300 300 302 302 304 305 305 305 306 308 309 309 310 313 314 317 318 318 317 316 316 317 317 317 318 318 318 318 318 316 313 309 307
282 281 285 288 290 290 291 291 297 297 299 300 301 301 301 303 304 304 306 307 308 309 309 310 311 313 314 315 317 317 317 317 317 318 318 319 318 314 305 305 303 302 301 299
284 279 277 286 293 300 298 286 298 298 298 299 300 295 299 305 305 304 305 304 304 305 305 306 310 315 314 314 315 315 317 318 319 319 318 312 308 303 301 301 298 297 295 295
283 282 286 292 295 301 286 289 299 299 299 300 298 300 304 305 305 305 306 307 311 310 307 310 313 316 316 316 315 315 315 312 310 309 306 304 300 300 298 295 293 290 288 289
284 282 279 295 296 291 294 299 299 300 300 301 302 303 303 304 305 304 305 309 310 309 308 309 312 315 314 311 308 307 306 304 302 302 300 299 297 294 292 290 287 285 284 283
288 288 294 297 297 299 300 298 300 300 302 302 302 302 303 303 304 304 305 307 306 307 305 305 309 310 303 303 304 302 300 299 299 297 296 297 294 291 288 287 285 284 283 281
288 291 293 295 297 299 299 299 300 302 302 303 303 302 302 302 304 303 304 304 304 303 301 299 302 303 302 302 301 299 296 295 294 292 291 291 290 289 288 286 285 284 282 280
289 292 294 296 297 297 297 299 297 296 297 300 298 299 299 300 298 300 300 299 299 298 296 295 298 298 299 299 298 295 292 290 289 288 286 284 284 287 287 286 287 285 283 281
287 291 291 292 296 295 294 293 292 290 289 290 289 290 296 290 289 289 290 292 293 290 288 287 287 288 292 294 294 291 288 287 287 286 285 284 283 281 283 283 284 284 282 280
290 293 293 295 296 291 290 291 290 287 285 285 285 285 286 285 284 285 285 285 284 285 285 284 284 284 285 287 287 286 285 284 284 284 283 282 281 280 278 281 283 282 282 282
290 291 292 293 291 290 288 288 287 285 283 282 282 282 282 282 282 282 281 281 282 282 282 283 282 282 284 284 283 282 282 282 281 281 280 280 279 279 279 277 276 278 281 280
286 288 288 292 289 286 286 286 283 281 281 279 280 279 280 278 278 278 279 279 279 279 279 279 279 280 282 282 282 282 281 281 281 281 281 280 280 279 279 279 279 278 278 278
284 286 287 286 283 282 282 281 280 278 279 278 278 277 277 276 276 275 276 276 275 274 276 276 276 278 279 279 279 278 278 279 279 279 279 279 279 280 279 278 278 277 275 275
280 280 281 282 280 279 278 279 279 277 277 276 276 276 275 274 274 273 273 274 274 273 274 274 274 276 277 277 277 276 276 276 277 277 277 277 277 277 277 276 275 275 274 274
280 279 279 279 279 277 277 277 276 275 274 274 274 273 272 271 271 271 273 274 273 272 273 274 275 275 275 276 276 276 276 275 275 275 275 274 274 275 275 274 273 273 272 271
278 277 277 277 276 276 275 274 274 273 273 272 271 270 270 270 270 270 271 271 271 270 271 273 274 274 274 274 275 275 274 273 273 272 272 272 272 272 271 271 270 270 270 269
276 276 275 275 275 274 273 273 273 272 272 272 271 270 269 270 270 270 270 268 269 270 272 272 272 272 272 272 273 272 272 271 270 269 269 269 269 269 269 268 268 268 268 267
274 274 273 273 273 273 273 273 272 271 271 270 269 268 268 269 270 270 268 267 269 270 270 269 270 270 270 270 271 270 269 268 267 267 266 266 266 266 265 265 265 265 265 265
274 273 272 272 272 271 272 272 272 272 271 271 270 270 269 269 268 267 268 267 268 268 268 268 267 266 267 268 268 267 267 266 266 265 264 264 264 263 263 263 262 262 263 262
274 274 273 272 271 271 272 271 271 270 269 269 268 268 268 268 268 266 264 267 267 266 266 265 264 264 264 265 265 264 264 263 263 262 262 262 262 262 261 261 261 261 261 260
274 273 273 273 273 271 269 270 271 270 270 269 268 269 268 266 266 267 267 264 263 263 263 263 262 261 262 263 263 262 262 261 261 261 260 258 260 260 260 259 259 259 259 258
271 271 271 271 270 270 270 270 269 268 268 267 267 267 267 267 266 265 265 264 263 262 262 259 258 259 261 261 261 260 260 260 260 260 260 259 259 258 259 258 258 258 257 257
270 268 268 269 269 269 268 268 267 267 267 265 264 264 264 264 263 264 262 261 261 260 260 260 259 260 260 260 260 259 260 260 260 259 258 258 258 258 257 257 256 255 255 254
267 268 267 266 266 266 265 265 265 263 263 264 263 263 262 262 261 261 259 260 259 259 259 258 259 258 259 260 260 259 260 259 255 259 258 258 257 257 255 255 254 254 253 253

GFSNGP_sfc_thetae_072.txt.gz
Theta_e
292 292 293 292 292 293 292 293 290 294 295 299 302 303 305 307 307 307 309 311 312 313 315 319 321 322 323 323 323 324 322 322 323 322 322 322 321 321 322 322 321 321 322 323
289 292 292 290 292 293 293 294 295 297 295 303 305 305 304 305 306 306 307 310 312 313 313 314 318 321 322 322 323 323 322 321 322 323 322 322 321 321 322 321 321 322 323 322
285 290 290 286 291 293 294 296 297 293 297 301 301 302 304 306 307 306 308 309 311 312 314 315 315 319 321 323 324 322 321 322 321 322 321 322 321 321 320 321 322 322 321 321
286 287 279 290 295 295 294 296 298 297 299 302 303 306 308 308 307 307 308 309 310 312 313 314 316 317 320 322 323 322 321 321 321 321 321 321 321 320 321 321 321 321 322 322
283 284 287 289 293 293 291 291 298 297 300 302 304 306 306 309 309 308 309 310 311 312 312 312 313 315 317 319 321 321 321 321 321 322 320 321 320 321 321 320 319 318 316 313
286 281 279 289 296 300 300 288 299 299 299 300 302 297 302 308 309 309 311 311 313 315 315 313 313 314 314 316 318 319 321 321 322 322 322 321 322 319 311 313 307 300 297 298
285 284 288 295 297 302 288 290 300 300 300 300 299 303 307 308 308 310 311 311 314 316 316 316 317 316 314 316 316 319 321 322 322 323 322 321 310 309 305 298 295 293 292 290
286 282 280 298 298 292 298 301 301 302 302 302 304 305 307 307 308 309 309 311 313 313 310 310 314 318 317 317 316 316 317 314 313 312 306 306 303 299 298 293 289 287 286 285
290 289 298 301 300 301 303 301 302 303 304 305 305 305 307 307 308 308 308 309 311 307 303 301 304 311 311 308 309 309 307 304 302 300 299 300 296 294 291 290 288 285 284 282
291 294 296 297 300 302 302 302 302 302 302 302 302 306 305 306 304 305 303 302 302 302 297 294 294 297 301 302 302 301 298 296 295 293 292 293 292 291 289 287 285 284 282 281
292 295 296 297 300 301 301 302 300 299 298 297 297 299 299 301 297 296 295 294 295 293 292 290 290 290 292 295 297 293 292 291 289 288 286 284 284 287 287 287 287 284 282 281
289 296 295 296 300 300 298 299 298 295 294 294 293 294 295 293 291 292 289 288 288 287 287 288 287 286 287 289 291 290 288 287 286 286 285 284 282 281 283 284 284 284 283 281
293 294 294 296 298 296 295 296 294 292 291 290 291 290 291 288 285 284 285 284 283 283 284 284 285 285 285 285 285 284 285 285 284 284 283 282 282 281 278 281 283 282 282 282
292 292 292 293 290 291 291 293 292 290 288 286 286 285 284 285 282 280 280 281 281 281 281 282 283 281 283 284 284 283 282 282 282 281 280 280 280 280 279 278 277 278 281 282
287 288 288 290 287 285 286 286 285 283 282 282 283 280 280 279 276 277 278 279 278 277 278 278 279 279 282 282 281 281 281 280 281 281 281 280 280 280 280 279 278 279 279 280
285 288 287 285 283 282 281 280 280 279 279 278 278 276 276 276 275 275 275 276 274 274 275 275 276 277 279 280 280 279 279 279 280 280 281 281 280 280 280 280 278 278 278 277
281 284 283 282 282 280 279 280 279 278 276 275 276 276 276 275 274 274 274 274 274 274 275 275 275 277 279 281 280 281 280 280 278 279 278 279 279 279 278 278 277 276 275 276
281 280 281 280 280 279 278 278 276 276 274 273 273 273 272 272 272 272 273 274 274 273 275 275 277 277 277 278 280 280 279 278 278 278 278 277 277 277 277 276 275 274 273 274
280 279 279 279 279 277 277 275 275 274 274 273 272 272 272 272 272 272 273 273 273 272 273 275 275 275 275 277 278 278 277 276 276 275 275 274 274 274 274 274 273 273 273 272
277 277 277 276 277 276 274 274 274 273 273 273 272 272 271 272 272 271 271 270 270 271 273 274 275 274 274 275 275 276 275 274 273 273 273 273 273 272 271 270 271 271 271 270
275 274 274 274 274 274 273 273 273 271 272 272 271 270 269 269 271 272 271 270 270 271 271 271 271 272 272 273 274 274 273 272 272 272 271 271 271 270 270 270 269 270 269 269
275 274 273 273 273 273 273 273 273 272 272 271 271 271 271 270 269 268 268 269 270 269 270 270 269 268 270 270 271 270 270 270 270 270 269 269 268 268 267 267 267 267 267 267
275 274 274 273 272 272 273 272 271 271 270 270 269 269 269 270 271 269 267 269 270 268 269 268 266 266 267 269 269 269 268 267 267 266 266 267 267 266 265 265 265 265 265 265
275 274 274 274 274 273 271 272 272 271 270 270 270 270 271 270 270 270 269 267 266 266 265 265 265 265 266 268 267 267 267 267 266 266 265 264 265 265 264 264 264 265 264 263
274 274 274 273 272 271 272 272 271 271 270 270 270 270 270 270 269 268 268 267 265 266 266 263 263 265 267 266 266 265 265 265 265 265 265 265 264 264 264 263 262 262 262 262
272 271 271 271 272 272 272 272 271 271 270 269 268 269 269 268 268 267 266 265 265 264 265 265 264 266 265 265 265 264 265 265 265 264 264 264 263 263 262 261 261 261 261 260
272 272 272 271 270 270 270 270 270 269 269 269 267 268 268 268 266 266 265 266 266 265 265 265 265 264 264 265 265 265 265 265 260 263 263 263 263 262 261 260 260 260 259 259

GFSNGP_sfc_thetae_075.txt.gz
Theta_e
295 294 293 295 295 296 295 296 292 295 296 300 303 304 306 307 308 308 309 310 312 314 316 318 322 324 325 326 327 328 326 325 325 327 327 326 327 326 326 326 326 327 326 326
290 294 293 290 294 295 295 295 296 296 296 304 305 306 304 304 306 307 308 309 310 313 315 316 317 322 324 325 327 328 327 326 326 326 326 326 327 327 326 325 325 326 325 325
285 291 291 287 291 293 294 297 296 293 299 302 302 302 304 305 307 308 309 311 311 312 314 315 317 318 320 324 326 327 326 326 326 327 326 327 326 325 325 324 325 324 324 324
287 289 280 291 297 296 295 297 299 298 300 301 302 304 306 308 309 309 309 311 312 313 315 316 316 316 318 319 323 325 325 325 326 326 326 326 326 325 325 325 324 324 324 325
285 285 289 291 293 293 292 293 299 298 300 302 303 304 305 310 310 309 310 312 313 314 316 318 317 316 315 316 319 322 324 324 324 325 324 325 325 325 326 325 324 323 323 322
287 281 279 290 297 301 299 290 300 300 300 300 301 297 301 308 310 310 311 312 313 315 317 318 318 319 318 315 315 318 323 324 325 325 325 324 325 325 325 324 322 317 305 303
285 284 288 296 298 301 288 291 299 301 301 302 300 302 305 307 309 310 311 311 313 314 311 309 309 312 316 318 316 317 319 323 324 324 324 323 324 326 324 315 303 296 292 292
286 283 281 298 298 293 299 303 302 303 303 302 304 305 306 307 308 310 309 310 309 308 304 300 298 302 310 315 315 319 319 320 321 322 319 322 321 315 306 300 292 289 287 285
289 290 298 302 301 303 304 302 302 302 303 303 303 304 306 307 309 307 306 306 305 302 297 295 294 294 295 298 302 307 313 308 305 303 303 305 302 297 294 294 291 289 287 284
291 297 297 301 301 304 303 302 303 303 302 302 301 302 304 305 306 303 302 300 300 297 291 289 290 290 291 294 296 296 295 294 293 292 290 291 291 292 292 291 288 285 283 281
292 295 297 298 301 302 301 303 302 302 301 299 299 299 300 301 299 299 297 295 293 291 287 286 288 287 289 290 292 290 289 289 287 286 285 284 284 286 286 286 287 284 283 282
289 298 298 298 300 300 299 298 299 298 297 297 297 295 297 297 294 293 291 290 288 286 286 284 285 284 285 287 288 288 286 285 284 284 283 283 282 281 283 283 284 283 283 281
295 297 297 299 298 296 294 294 295 296 294 292 292 289 288 288 285 287 286 285 283 283 282 281 281 281 282 285 285 285 283 282 282 282 282 281 281 280 278 281 283 283 283 283
294 294 295 294 291 292 292 291 291 292 290 287 285 284 283 281 280 279 279 279 280 280 279 279 279 279 281 282 283 283 282 282 281 280 280 280 279 279 279 278 277 278 282 282
290 292 291 290 288 286 287 287 286 284 282 281 280 279 279 276 275 275 277 278 278 277 277 278 278 279 282 281 281 281 281 281 281 281 281 281 280 280 279 278 277 277 278 279
287 290 288 287 287 285 285 285 283 281 280 279 278 277 277 277 276 275 275 276 275 275 276 276 277 279 283 283 282 282 281 281 282 282 282 282 281 279 279 279 278 278 278 278
283 284 283 284 283 282 281 281 280 279 278 277 276 277 277 276 275 275 275 276 276 276 277 277 277 279 280 281 282 281 281 282 281 280 279 279 279 278 277 276 275 275 275 276
283 282 282 282 282 281 279 279 278 277 276 276 276 275 274 273 273 274 274 276 275 275 276 277 278 278 279 281 280 279 278 278 278 277 278 278 278 278 276 275 274 274 274 274
281 280 280 280 280 279 278 277 276 276 275 275 274 273 273 273 272 272 273 273 272 271 273 276 277 277 277 278 279 279 278 277 276 276 275 275 275 275 275 274 273 273 273 272
279 279 279 278 278 277 275 275 275 274 275 274 274 273 272 273 274 273 272 270 270 271 272 273 275 274 275 276 277 276 276 276 275 274 274 274 274 273 273 272 272 272 272 271
276 276 275 275 274 275 275 275 274 273 273 273 271 270 270 270 270 273 272 270 270 272 272 271 271 273 274 274 275 275 274 274 273 273 272 272 272 271 271 271 271 271 270 270
276 275 275 274 274 273 274 274 274 273 273 272 273 273 273 272 271 269 269 270 271 270 270 270 270 270 272 272 273 272 272 271 271 271 271 271 270 270 270 269 269 269 269 268
276 275 275 274 273 273 273 273 272 272 271 271 271 271 271 271 271 270 267 269 269 268 269 268 268 269 270 272 271 271 270 270 269 269 269 269 269 268 267 267 268 267 267 267
276 276 275 276 275 274 272 273 273 272 271 271 271 271 273 271 270 271 270 268 268 267 266 267 267 268 269 270 270 269 269 269 269 269 268 267 268 267 267 266 266 267 266 265
276 276 276 275 274 273 273 273 273 272 272 271 271 271 271 271 269 269 269 268 266 269 268 266 266 267 269 268 268 268 268 267 267 268 267 267 267 266 266 266 265 264 264 264
275 274 274 274 274 274 274 274 273 273 272 270 270 271 271 271 270 270 269 268 268 268 268 268 266 268 268 267 267 267 268 267 267 266 266 266 266 266 265 264 264 264 263 263
275 274 274 273 273 273 273 273 273 271 271 271 269 270 270 270 269 269 268 269 269 268 268 268 268 266 266 267 267 267 267 267 263 264 265 265 265 265 264 263 263 263 262 262

GFSNGP_sfc_thetae_078.txt.gz
Theta_e
291 294 294 292 293 294 292 294 290 293 294 299 301 303 305 307 307 307 308 310 311 311 312 314 316 323 324 325 327 326 324 323 321 323 324 324 323 323 323 324 324 324 322 321
288 292 293 291 293 294 295 295 294 295 295 302 304 305 303 304 305 307 308 309 310 312 313 313 315 315 321 324 325 327 325 324 323 323 322 323 323 323 322 322 322 323 322 321
284 290 290 286 291 292 294 296 295 291 297 302 301 302 303 304 307 307 307 308 310 310 312 314 316 318 315 315 323 325 325 325 325 324 322 322 323 323 322 321 321 321 321 321
285 287 279 291 297 296 294 296 298 298 300 301 301 303 304 306 307 306 307 308 310 312 313 316 317 315 316 318 315 318 324 324 325 325 323 323 323 322 321 321 320 320 320 320
284 283 287 290 293 292 291 292 298 297 299 301 302 302 302 306 308 308 308 309 311 313 312 311 308 308 311 314 317 318 314 323 324 324 323 323 322 322 322 321 320 320 320 319
286 281 279 289 295 300 298 288 300 300 299 299 300 295 299 305 306 308 309 310 309 310 307 303 300 302 305 310 311 309 312 319 321 324 323 322 322 322 322 322 320 319 317 310
284 283 287 294 298 301 287 290 300 300 301 300 298 300 303 306 307 309 309 307 307 306 302 297 297 298 298 300 298 302 308 315 314 317 322 322 321 321 321 320 307 296 291 290
285 282 280 298 297 291 298 301 301 301 301 301 302 302 304 305 307 306 304 304 303 301 298 294 293 294 294 293 296 299 301 302 302 302 304 313 317 308 305 300 293 289 287 285
288 288 297 301 300 302 303 300 300 300 301 301 300 300 302 302 305 303 301 299 298 297 294 292 292 291 290 291 294 294 292 290 290 291 293 297 299 297 295 294 291 287 286 284
292 294 297 299 301 302 301 301 301 300 300 299 298 299 299 301 298 297 297 294 293 292 289 288 289 288 288 288 292 290 288 287 287 286 285 285 290 290 290 288 287 286 284 282
291 294 296 297 298 299 299 299 298 299 298 296 296 294 294 295 292 291 290 289 288 285 285 284 285 285 286 287 289 288 287 286 285 284 283 282 282 283 284 285 287 284 282 282
289 295 295 294 296 297 296 295 296 296 294 294 292 290 289 287 285 285 284 283 282 282 281 281 281 282 283 286 286 286 284 283 283 283 282 281 281 280 283 283 284 284 283 282
291 294 296 296 293 293 293 293 293 292 290 288 287 285 284 282 280 280 279 279 278 278 279 280 280 280 282 284 284 282 282 281 281 281 280 280 280 279 278 281 283 283 283 283
292 293 294 291 288 290 290 291 291 288 286 284 283 281 280 278 278 277 277 278 278 278 278 279 280 280 282 282 283 282 282 281 281 280 279 279 279 278 278 277 276 277 281 281
288 291 290 290 290 288 289 288 287 283 282 281 281 279 278 276 275 276 277 278 278 277 277 277 278 278 283 283 282 281 281 281 281 281 280 280 280 279 278 277 276 276 278 278
287 289 288 287 285 284 283 282 281 279 279 278 277 277 277 277 276 275 276 276 275 274 276 276 276 279 280 281 282 281 280 280 280 279 278 277 277 276 275 275 275 275 276 276
282 281 282 283 282 281 279 280 279 277 277 276 276 277 276 276 275 275 275 274 274 274 275 275 276 277 279 280 279 278 278 278 278 279 278 276 275 274 274 273 272 272 272 273
283 282 282 282 281 280 278 278 277 277 275 276 275 273 272 271 271 272 272 273 272 271 273 274 276 276 277 278 278 278 277 276 276 275 276 275 275 275 275 274 273 272 272 272
281 280 280 280 279 278 277 276 276 276 275 274 273 272 272 271 271 270 271 270 269 268 269 273 275 275 275 277 277 277 276 275 275 274 274 273 273 273 273 272 271 271 271 270
278 278 277 276 277 276 274 275 274 274 274 273 272 271 269 270 272 271 270 268 269 270 271 271 273 273 274 274 275 275 274 274 273 272 272 272 272 271 271 271 271 270 269 269
275 275 275 274 274 274 274 274 273 272 272 272 271 269 269 269 268 269 270 267 269 270 270 270 270 272 272 272 272 272 272 271 271 271 270 270 269 269 269 269 268 268 268 268
275 274 274 273 273 273 273 273 273 272 272 271 271 272 271 270 269 267 267 268 269 268 269 269 269 268 270 271 271 270 270 270 269 269 269 268 268 267 267 267 266 266 266 266
275 275 274 273 272 272 272 272 272 272 271 271 271 271 270 270 269 267 265 268 267 267 268 268 267 268 269 270 269 269 269 268 268 267 267 267 267 266 265 265 265 265 263 264
275 275 275 275 275 274 272 272 272 272 271 271 270 270 272 270 269 269 268 268 267 266 266 267 267 268 267 269 268 267 266 267 267 267 267 265 266 266 265 263 264 264 263 262
276 275 275 274 273 273 273 273 273 272 272 271 271 271 270 270 268 268 268 268 267 268 267 265 266 267 268 267 267 267 267 265 264 266 266 265 265 264 264 263 262 260 261 261
275 274 274 275 275 275 275 275 273 273 272 270 270 270 270 270 270 270 269 268 268 267 268 267 266 266 267 267 267 266 266 265 264 264 264 264 264 264 262 261 261 261 260 260
275 275 274 273 273 273 273 273 272 271 271 271 269 270 270 270 269 269 267 269 269 268 268 268 268 265 265 266 266 266 266 266 261 262 263 263 263 262 261 261 260 259 259 259

GFSNGP_sfc_thetae_081.txt.gz
Theta_e
289 291 292 292 292 292 291 291 288 291 293 298 300 302 303 305 306 306 306 307 307 308 310 312 314 315 317 318 322 321 320 318 319 320 321 321 320 320 321 321 321 321 320 319
286 290 290 289 292 292 291 292 293 293 292 301 302 303 303 304 305 304 305 306 308 310 312 312 311 310 312 314 317 323 321 320 320 319 320 320 320 320 320 321 321 321 320 319
281 288 289 284 289 291 293 295 294 290 295 301 301 302 301 302 303 302 304 307 309 308 308 307 305 306 306 310 314 316 318 321 321 320 319 320 321 320 319 319 320 320 320 320
280 284 277 290 297 296 293 294 295 295 298 300 300 301 302 302 302 303 306 307 306 305 303 302 301 301 304 309 307 308 308 311 316 321 320 320 319 320 320 320 318 318 319 319
278 279 285 288 293 291 290 290 297 295 298 299 300 300 299 303 304 305 305 305 304 302 299 298 297 298 301 303 302 302 303 305 311 310 310 318 319 318 320 319 318 318 319 319
279 279 275 287 295 299 297 286 298 299 297 297 298 291 295 303 304 302 302 303 301 299 296 294 294 295 297 297 298 298 300 303 304 303 302 303 313 320 320 320 319 319 318 317
280 279 284 293 297 300 285 288 298 298 297 297 294 297 300 304 301 299 298 297 299 296 292 292 293 292 292 292 291 295 297 298 296 295 296 298 300 311 318 318 317 313 301 293
280 277 276 296 296 290 295 297 297 297 297 296 298 298 299 298 296 294 293 292 293 291 290 290 290 289 289 288 290 293 293 292 291 290 289 290 293 297 300 306 299 291 288 286
284 283 295 298 298 300 300 298 297 297 297 298 296 295 296 294 293 290 289 288 289 288 288 287 286 287 285 286 289 291 289 288 287 287 285 285 285 287 291 294 293 289 288 285
288 293 294 295 297 298 298 296 297 296 295 295 292 292 291 289 288 287 285 285 285 285 283 282 283 284 284 286 288 289 286 285 284 283 283 283 283 284 284 284 288 287 285 283
290 293 294 293 294 295 295 296 296 294 292 291 289 288 287 284 284 283 282 283 282 281 281 280 282 282 283 285 286 286 284 284 283 282 282 282 282 282 282 283 284 284 283 283
285 290 291 290 293 294 292 291 290 290 287 286 286 284 284 281 281 280 280 280 279 279 280 280 281 281 282 284 283 283 281 281 281 281 280 280 280 280 283 283 284 284 284 282
286 292 290 289 289 290 290 288 287 285 284 281 281 281 280 278 279 279 278 278 278 278 279 279 280 281 282 283 283 282 280 280 280 280 279 279 278 278 277 280 283 283 284 284
289 292 288 287 285 287 287 287 285 282 281 280 279 277 276 276 276 276 276 277 278 277 277 278 278 278 280 282 280 281 281 280 280 279 279 278 277 277 277 276 275 276 279 281
286 289 288 286 284 283 284 283 281 279 279 278 278 277 276 275 274 274 275 276 276 275 275 275 276 277 279 280 279 279 279 278 278 277 277 277 277 277 277 276 276 275 275 275
285 284 284 283 281 280 280 280 278 277 277 276 276 275 275 274 273 272 272 273 272 271 273 273 274 277 279 278 277 277 277 278 277 276 275 275 274 274 273 273 272 272 271 271
279 278 280 281 279 277 277 277 277 275 274 273 273 274 273 272 271 270 270 271 269 269 272 273 273 276 277 277 276 275 275 275 275 275 275 275 274 273 272 271 271 270 270 271
281 280 280 280 278 276 275 275 275 274 272 273 272 271 269 268 268 268 269 269 268 268 268 272 273 274 275 276 276 275 275 274 274 273 273 273 272 272 271 271 270 269 269 270
278 277 277 276 276 275 274 274 273 274 273 272 270 269 269 268 268 268 268 268 267 266 267 270 274 273 273 275 275 274 273 271 272 272 272 271 271 271 270 269 268 268 268 267
275 275 274 274 274 273 271 272 271 271 271 270 269 269 267 267 269 267 267 266 267 268 270 270 271 271 271 271 272 272 271 270 270 269 267 267 267 267 267 267 267 266 265 265
270 271 271 272 271 271 271 271 270 270 270 270 268 267 266 266 266 268 266 264 266 268 268 268 269 270 271 270 270 268 268 268 267 266 266 264 263 263 263 261 262 260 263 263
269 270 269 270 271 270 271 271 271 270 270 270 270 269 268 266 266 266 266 265 267 266 267 267 268 267 268 269 268 267 267 266 265 265 264 262 260 259 258 258 257 258 262 259
273 272 272 271 270 270 271 270 269 269 267 267 268 267 267 267 267 264 263 266 267 266 267 266 266 266 266 266 264 264 265 264 262 262 260 258 257 257 258 261 259 254 254 258
274 273 273 273 272 272 270 270 271 270 269 269 268 268 270 266 266 267 267 266 264 262 263 266 265 265 263 264 264 262 261 262 262 260 261 258 260 260 256 252 252 251 253 255
271 272 273 272 272 271 272 272 272 271 271 270 269 269 268 268 264 265 265 264 266 265 261 262 264 264 262 261 261 262 259 259 258 259 260 255 255 252 252 252 251 252 255 252
273 272 272 273 273 273 274 273 270 271 270 267 267 263 263 265 267 266 265 264 263 263 263 258 255 256 256 260 256 255 260 256 253 253 256 255 254 257 253 251 253 254 251 249
274 273 272 271 272 271 271 270 269 267 264 260 261 264 265 262 261 263 259 257 257 257 257 258 259 257 255 256 254 255 255 255 254 254 255 254 252 254 252 249 249 249 250 251

GFSNGP_sfc_thetae_084.txt.gz
Theta_e
288 290 290 289 290 291 289 291 288 289 291 296 299 301 303 305 305 305 307 308 309 308 306 306 306 307 309 312 317 318 317 318 318 318 318 318 318 318 319 319 319 319 319 318
283 289 289 287 289 293 291 291 291 292 290 300 303 304 303 304 305 304 306 306 305 304 303 302 302 303 306 308 310 315 316 318 319 319 319 318 318 318 318 318 318 318 318 317
280 286 286 282 288 291 292 293 292 289 294 301 300 300 302 303 304 305 304 303 301 300 299 298 298 299 302 304 305 306 306 309 314 314 318 319 319 319 318 317 318 318 318 318
280 282 275 287 292 293 293 294 296 297 298 301 299 300 301 304 304 303 301 299 298 297 295 295 295 296 299 299 300 300 301 303 305 306 306 309 311 319 319 319 318 318 318 319
277 278 283 285 289 291 289 291 296 297 299 299 300 299 297 301 302 300 299 297 295 295 293 292 292 294 295 294 294 295 295 297 298 299 300 302 302 303 310 319 318 318 318 318
277 276 273 285 293 298 297 286 296 297 297 296 298 291 293 296 296 295 296 294 292 291 290 289 290 292 292 292 292 292 293 293 293 294 294 296 296 299 302 305 318 319 318 318
277 275 281 291 296 298 285 286 295 296 296 296 293 294 294 294 292 291 291 290 291 289 287 286 288 289 289 289 288 291 291 290 289 288 289 290 291 294 297 298 300 314 314 295
279 276 276 295 295 288 292 295 295 296 295 294 294 293 291 290 288 287 286 287 288 287 285 285 286 286 286 285 288 291 289 287 285 285 285 286 286 288 289 291 293 290 289 287
282 281 293 296 296 298 297 294 295 294 295 294 292 290 289 287 285 284 284 284 285 284 283 283 284 284 283 284 286 288 286 284 283 283 283 284 284 284 284 287 287 286 285 284
288 291 292 293 295 295 296 294 294 295 293 292 290 288 285 285 283 282 282 281 282 281 280 280 282 283 283 284 286 286 284 283 282 282 281 282 283 283 282 282 284 284 283 282
288 290 292 291 292 292 291 292 289 288 288 287 287 284 283 281 281 280 280 280 280 279 279 280 281 281 282 283 284 283 282 282 281 281 281 280 281 282 282 283 283 281 281 281
283 286 289 287 290 292 288 285 286 285 282 282 283 281 281 279 279 278 278 278 278 278 278 278 279 281 281 283 282 281 280 280 280 280 280 279 279 279 282 282 283 284 284 282
287 287 286 286 286 288 285 283 283 281 280 278 278 278 277 277 277 278 277 277 276 276 277 277 277 278 280 279 281 280 279 279 279 278 277 277 276 276 274 278 279 280 281 283
290 291 285 285 282 286 284 282 282 280 279 278 276 276 276 275 275 274 274 275 275 275 275 276 276 276 277 277 277 276 276 277 277 277 276 276 275 275 275 274 273 273 276 277
285 286 284 283 283 282 283 281 279 277 277 276 277 275 274 272 271 271 273 274 274 273 273 273 274 275 276 276 275 275 276 275 275 274 273 273 273 272 272 272 271 271 272 273
283 283 283 280 279 279 278 278 277 276 276 275 274 273 272 271 270 270 270 270 269 269 271 271 272 274 275 274 273 273 273 274 273 273 272 272 272 271 271 271 270 269 269 269
279 277 280 278 277 276 276 276 274 273 272 272 271 271 271 270 269 268 268 268 268 267 268 270 271 273 274 272 271 271 272 273 272 272 272 272 271 270 269 269 268 268 267 269
278 278 278 278 276 275 275 275 274 273 271 271 270 269 268 267 267 267 267 267 267 267 267 269 272 272 273 273 272 272 272 272 272 272 272 271 270 270 268 268 267 267 266 266
277 276 276 276 275 274 274 273 272 272 270 270 269 267 267 266 266 266 265 265 266 266 266 269 273 271 270 272 272 271 270 269 269 269 270 268 268 268 267 265 264 264 264 263
273 274 274 273 273 272 270 270 270 269 269 269 268 267 266 266 265 264 265 264 265 266 268 269 270 270 270 269 270 269 268 268 268 266 266 266 264 263 264 264 263 263 262 261
267 267 268 269 268 269 269 270 269 268 268 268 267 265 265 266 266 264 264 263 265 267 268 268 268 269 269 268 268 267 266 265 264 263 262 262 262 262 260 260 260 258 258 258
265 267 266 267 268 269 270 270 270 269 269 268 267 266 265 264 264 264 264 264 266 265 267 267 268 266 266 266 266 265 265 264 263 263 261 259 258 258 255 255 256 255 255 252
269 269 270 269 269 269 270 269 269 268 267 267 266 266 266 266 266 264 263 266 267 266 267 265 264 264 264 262 262 261 262 261 260 258 258 256 253 253 254 253 253 253 253 253
267 268 268 270 271 270 268 269 270 269 267 268 267 268 267 264 263 267 267 264 262 262 262 263 263 262 260 260 259 258 256 256 256 255 256 254 251 250 249 249 250 251 251 251
270 270 271 271 272 271 271 271 271 270 270 269 268 268 268 268 262 264 263 263 265 262 260 259 260 259 258 257 257 255 253 252 251 252 252 252 250 248 247 248 249 250 248 247
273 272 272 272 272 272 273 272 270 269 268 264 264 260 260 262 264 264 262 261 262 261 259 254 252 252 251 252 251 252 252 253 250 251 250 251 251 249 248 247 247 247 247 246
272 272 271 270 271 270 269 268 266 266 265 259 259 259 259 257 257 259 256 254 253 253 257 257 256 257 256 253 252 251 251 251 250 251 249 249 251 251 248 247 246 246 246 246

GFSNGP_sfc_thetae_087.txt.gz
Theta_e
285 287 288 288 288 289 288 289 286 289 290 295 298 299 301 304 305 304 302 301 301 300 301 302 304 306 306 307 309 315 317 318 317 318 318 319 319 319 319 319 319 319 318 318
282 286 286 285 287 288 290 291 291 291 290 298 301 304 302 303 304 301 300 299 298 298 297 297 298 300 301 302 303 306 308 311 316 318 318 318 318 318 318 319 318 318 317 317
279 284 283 280 285 285 291 293 292 288 293 299 300 300 301 303 303 299 298 297 295 294 294 294 295 297 296 297 298 298 299 302 302 304 305 307 312 317 317 317 317 317 318 318
278 281 273 284 290 290 289 294 295 295 297 300 299 299 303 305 300 297 296 295 293 292 292 292 294 294 294 294 295 294 294 294 296 297 298 301 303 302 304 309 317 317 317 317
276 277 280 284 287 288 289 288 295 293 297 299 297 296 293 297 296 294 293 292 291 290 290 290 291 293 293 292 293 292 291 290 291 291 293 294 294 295 298 300 303 306 317 318
277 275 270 282 291 296 295 284 294 297 297 297 298 290 289 292 292 291 292 290 289 288 287 287 287 291 291 290 291 289 289 288 288 287 288 288 289 291 292 295 298 301 304 301
278 277 279 288 293 296 283 284 294 295 295 296 290 292 290 291 289 289 289 289 289 286 284 284 285 287 287 288 288 289 287 286 285 285 286 286 286 288 289 291 293 292 289 287
279 277 275 293 293 286 290 294 294 295 293 291 290 290 288 287 286 285 284 284 285 283 282 283 284 285 284 284 287 288 286 284 283 283 284 285 284 284 285 288 287 286 285 284
283 281 292 294 293 295 296 294 294 294 294 292 289 287 286 284 283 282 282 281 282 281 281 281 282 283 282 283 286 285 284 282 282 282 282 283 283 282 282 284 284 284 283 281
286 290 291 292 291 292 291 288 289 290 290 290 287 286 284 283 281 280 280 279 280 281 280 280 281 282 282 282 285 283 282 282 281 280 281 281 282 282 282 281 281 280 280 280
285 288 289 290 291 289 289 288 286 284 284 285 284 282 281 280 279 278 278 279 279 279 278 279 280 280 281 282 282 282 281 281 280 281 279 279 279 279 279 281 282 280 280 280
281 285 285 285 289 289 285 283 283 282 280 280 281 280 279 278 278 277 277 277 277 278 277 277 278 278 279 281 281 280 279 279 278 278 277 277 277 277 280 279 281 282 282 281
286 286 284 285 286 285 282 281 281 279 278 277 277 278 277 276 276 277 276 275 275 275 276 277 276 275 276 277 278 277 278 277 277 277 276 276 275 274 272 274 277 278 279 280
287 288 284 283 281 283 281 281 280 279 278 277 276 276 275 274 273 273 273 274 274 273 274 274 274 274 274 274 274 274 275 274 273 272 272 271 270 270 270 269 269 270 274 276
283 285 283 283 282 281 281 280 277 276 276 275 275 273 272 270 269 270 271 273 273 272 271 272 272 272 273 273 273 272 273 272 270 270 270 269 269 269 269 268 268 267 268 270
282 283 281 279 278 278 277 277 276 275 274 274 273 272 271 270 269 268 269 269 268 267 269 269 270 272 272 271 271 271 271 271 270 270 269 269 268 268 268 267 266 266 266 266
279 277 279 277 276 275 275 274 274 273 271 271 270 270 270 269 268 267 267 268 266 265 267 269 268 269 269 268 268 269 270 270 269 270 269 269 268 268 267 266 265 265 264 265
277 277 277 277 276 275 274 274 273 272 270 270 269 267 266 266 265 265 265 265 264 264 265 266 268 268 269 268 269 269 269 270 270 269 269 268 267 267 266 265 265 264 264 263
276 275 276 275 275 274 273 272 271 270 269 268 266 265 265 264 265 264 265 264 264 264 265 267 271 269 268 271 269 269 268 267 267 267 267 265 265 265 265 264 263 262 262 261
274 274 274 272 272 271 269 269 269 268 268 267 266 266 265 265 264 263 263 263 264 266 268 268 268 268 268 267 267 267 266 265 266 265 264 263 262 261 262 262 262 261 260 259
266 266 265 266 266 267 267 268 268 267 266 266 265 264 263 264 263 263 263 263 264 266 267 267 266 267 268 267 266 265 263 263 263 262 261 260 260 259 258 258 257 256 255 255
264 266 264 265 267 267 269 269 269 268 267 266 265 264 262 262 262 263 262 264 266 265 266 266 266 263 264 265 265 263 263 262 261 260 259 258 256 255 252 252 252 251 250 249
264 265 265 264 264 264 267 266 265 266 265 264 263 263 264 265 266 263 262 266 267 265 266 264 262 262 261 261 261 260 259 258 258 256 254 252 252 251 251 251 250 250 249 251
265 266 265 267 267 269 267 268 269 268 264 266 264 262 266 262 262 266 265 262 260 260 260 262 261 260 259 258 257 256 255 254 253 253 255 252 249 249 249 249 251 250 248 248
267 267 268 269 271 270 270 270 270 270 268 268 267 268 268 267 261 262 260 260 262 259 257 256 256 255 252 251 251 250 250 249 249 249 249 248 247 246 245 246 246 246 245 244
272 271 271 272 272 272 272 272 269 269 267 263 263 257 257 258 261 261 258 258 259 258 256 251 249 249 249 250 249 249 249 251 249 249 248 249 248 247 246 246 245 245 246 245
272 272 271 270 270 270 269 268 267 265 265 261 259 255 256 254 254 257 254 252 251 253 254 252 256 254 252 250 251 251 251 250 248 249 246 246 246 246 245 245 245 244 243 243

GFSNGP_sfc_thetae_090.txt.gz
Theta_e
285 286 286 286 285 287 287 287 283 285 287 292 295 299 300 302 301 298 297 296 295 295 297 299 301 303 305 306 309 318 318 317 316 316 316 317 316 317 318 318 317 317 317 317
282 285 284 282 284 285 286 287 288 290 289 297 300 302 301 302 299 297 295 295 294 293 294 294 295 296 297 298 299 303 304 304 304 306 314 315 317 318 318 317 318 318 317 316
278 283 282 278 282 283 283 290 290 285 291 298 297 299 301 299 297 296 295 293 292 291 291 292 293 294 294 295 295 295 296 297 298 300 301 302 304 304 305 309 316 318 318 318
278 281 271 282 287 287 287 289 293 293 294 298 296 294 296 298 295 293 292 291 290 289 289 290 293 293 293 293 292 291 291 290 291 293 295 296 296 297 298 300 302 305 307 314
276 277 279 282 286 287 285 285 292 292 295 298 295 293 291 293 293 291 290 289 288 288 287 288 288 293 292 292 290 289 287 287 287 288 289 290 291 292 293 295 297 300 298 293
277 274 269 280 288 293 291 279 292 293 295 296 297 290 288 291 291 290 290 288 286 286 285 285 285 289 290 290 289 286 286 285 285 286 286 286 286 287 290 293 294 294 290 288
278 277 279 286 292 294 279 280 292 292 295 294 288 290 289 289 286 286 285 285 285 284 282 283 284 287 286 287 287 286 285 284 284 285 285 285 285 286 287 289 289 288 286 284
280 277 274 291 291 283 290 293 292 291 290 288 287 286 285 284 283 282 281 281 282 281 281 282 283 284 283 283 286 286 284 283 283 283 284 284 284 284 285 285 285 283 283 282
282 281 290 291 289 291 292 289 291 291 290 288 286 284 284 282 281 280 280 280 282 281 281 281 282 282 281 282 285 284 282 281 281 281 281 282 282 282 282 282 282 281 280 279
284 286 288 290 290 289 287 286 287 288 287 288 285 284 282 280 279 279 279 279 280 280 279 279 280 280 281 281 284 283 281 280 281 279 278 278 279 280 280 281 280 280 279 279
285 286 288 286 287 288 286 286 283 282 283 283 282 280 279 278 278 277 278 278 278 278 277 277 278 278 279 280 281 280 280 280 279 279 279 278 278 278 279 280 281 279 279 279
280 284 284 282 284 285 282 281 282 281 279 279 280 278 278 276 277 276 276 276 276 277 276 276 276 275 276 278 280 280 278 278 276 276 276 276 276 276 279 279 280 281 281 279
285 286 284 284 283 283 280 280 279 278 278 277 277 277 276 275 275 276 274 274 274 274 275 275 274 274 274 275 276 275 274 275 274 273 273 273 271 271 269 273 276 278 279 279
285 285 284 282 280 281 280 279 279 277 277 276 275 275 274 272 272 272 272 273 273 272 272 273 273 272 272 272 271 271 271 271 270 270 269 269 268 267 267 267 266 267 272 274
282 283 282 282 280 279 280 278 276 275 275 274 274 272 271 270 269 269 270 272 272 271 270 270 270 270 272 272 271 270 271 269 266 267 267 266 267 267 266 266 265 265 266 267
280 282 280 278 276 276 276 276 275 274 273 272 271 270 270 269 268 268 268 268 267 266 268 268 268 269 271 269 268 268 268 269 267 267 266 266 266 266 265 264 263 263 262 263
277 278 277 277 275 274 273 274 273 271 270 269 269 269 269 268 267 267 266 267 267 266 267 267 267 268 268 267 266 266 267 268 267 268 267 267 266 265 264 263 262 262 260 261
277 276 277 277 275 274 273 274 273 271 269 269 268 267 266 265 265 265 265 265 265 265 265 266 266 265 266 266 267 267 267 268 268 267 266 265 265 264 263 262 262 261 261 261
276 275 275 275 274 273 271 270 270 269 267 266 265 264 264 264 263 262 261 264 264 264 264 265 270 268 267 269 268 267 266 265 265 265 265 262 262 263 261 260 259 259 260 260
273 273 272 271 271 270 267 267 266 266 265 265 264 264 264 263 263 262 262 262 263 265 266 266 267 267 267 266 265 265 264 263 264 261 261 260 257 257 257 259 259 256 254 256
264 265 264 265 264 263 261 261 263 263 262 262 262 259 260 261 261 261 262 263 264 265 266 266 266 266 266 266 265 263 261 259 259 259 258 255 254 255 254 253 253 252 252 252
261 263 262 263 265 266 265 265 265 263 262 260 257 256 257 260 259 261 260 264 266 264 265 265 265 261 263 264 264 262 262 261 259 258 256 255 253 251 249 249 249 249 248 247
263 264 264 263 263 263 266 265 262 263 260 258 257 258 261 263 263 260 260 265 266 263 265 263 261 260 259 259 259 258 258 257 256 255 251 249 249 248 249 249 249 248 248 249
264 265 264 266 266 267 266 267 268 267 262 264 261 260 265 260 260 265 264 260 258 257 258 258 257 257 256 254 253 252 251 250 250 249 251 249 246 247 247 246 248 246 246 245
266 266 266 266 268 266 268 269 269 269 268 267 267 267 266 265 258 260 258 258 260 257 254 253 253 252 249 248 248 248 247 247 247 247 247 246 246 245 244 244 244 244 244 243
270 268 269 271 271 271 270 270 269 268 266 261 261 255 255 256 259 259 257 256 258 257 254 250 248 248 248 249 248 247 248 250 247 247 246 247 245 246 245 246 244 245 244 243
268 268 269 269 268 268 266 266 266 265 265 261 259 255 256 253 253 256 252 251 250 250 250 249 251 251 250 248 249 250 249 248 247 248 246 245 245 245 246 245 244 243 242 241

GFSNGP_sfc_thetae_093.txt.gz
Theta_e
286 287 288 287 286 287 287 288 284 286 287 291 295 298 301 300 299 296 295 294 293 293 294 294 295 297 298 301 306 317 316 316 317 319 320 321 322 322 322 322 322 322 321 320
283 286 286 284 286 286 287 288 288 289 289 297 300 300 301 298 297 294 292 292 291 291 292 293 293 294 295 295 297 299 300 300 303 305 305 306 308 315 318 318 319 319 320 321
279 284 283 279 284 284 285 287 290 287 293 298 294 293 296 296 294 291 290 289 289 289 289 290 293 294 293 293 293 292 292 293 295 297 298 299 301 302 301 302 306 308 311 314
279 282 272 283 289 289 287 289 292 294 296 298 295 292 291 294 292 290 289 288 287 287 287 288 291 293 293 291 291 289 289 289 291 292 292 294 295 296 296 299 301 301 295 294
278 277 281 283 289 288 286 286 292 292 296 297 294 292 287 290 290 289 287 287 286 286 286 287 289 291 292 290 289 287 287 288 288 289 290 291 291 292 294 296 296 292 290 288
280 275 272 282 290 295 293 281 291 293 298 296 296 291 285 287 286 285 286 286 284 284 285 285 287 289 289 288 287 285 286 287 288 288 288 288 288 289 292 293 291 289 286 286
278 277 281 288 292 294 281 283 291 291 290 291 285 287 285 285 283 284 284 284 285 284 283 283 285 287 285 286 284 285 286 286 286 287 287 287 287 288 289 289 288 286 284 284
280 277 275 291 292 286 290 292 291 290 288 285 285 285 283 282 281 281 281 282 283 283 282 282 283 284 283 283 285 285 285 283 282 283 284 285 285 285 285 285 285 284 284 284
283 283 288 289 288 288 290 287 288 288 288 286 284 282 281 280 280 280 281 281 281 281 280 281 281 281 281 283 284 283 283 281 281 282 282 283 283 283 283 283 283 282 282 281
285 285 284 286 288 287 286 283 285 286 286 286 282 282 280 279 279 279 279 279 280 280 279 278 280 280 280 282 283 282 281 281 281 280 281 281 282 282 282 282 281 281 281 280
284 285 286 284 285 285 284 284 283 282 283 282 281 280 280 279 278 278 278 279 279 278 278 277 278 278 279 280 283 281 280 280 280 280 279 279 279 280 280 281 281 280 280 280
280 283 283 281 283 283 281 280 280 280 279 280 280 278 278 277 277 277 276 277 277 277 277 277 277 277 277 279 280 281 280 279 279 279 278 278 278 276 278 279 280 280 280 280
284 286 283 283 282 282 280 279 279 278 278 277 277 277 277 275 276 276 275 275 275 275 275 276 275 275 275 276 277 276 277 277 277 277 276 276 275 275 274 274 275 276 278 278
284 285 282 281 279 281 280 278 278 277 277 276 275 275 274 273 273 273 273 274 274 274 274 274 273 273 274 274 274 273 274 272 275 274 274 274 274 273 273 273 272 272 273 274
282 283 282 281 279 279 280 278 276 275 275 274 274 273 273 271 270 270 272 273 273 272 271 272 271 271 274 275 274 274 275 274 273 273 273 272 273 272 272 271 271 271 272 271
281 281 280 278 277 276 276 276 275 273 273 272 272 271 271 270 270 269 269 270 269 268 269 268 270 270 272 273 273 274 273 271 272 273 273 273 272 271 271 270 269 268 268 268
279 277 277 276 275 274 274 274 273 271 271 270 270 270 270 269 268 268 267 268 268 268 269 269 268 269 269 270 272 274 274 273 271 273 272 271 271 270 269 269 267 267 266 265
277 277 277 277 276 274 274 273 273 272 270 270 269 268 266 266 266 266 266 267 267 267 268 268 270 269 270 271 272 273 273 272 272 271 270 270 269 269 268 267 267 266 266 265
276 275 275 275 274 273 272 271 271 270 268 268 267 266 266 265 266 266 267 266 266 267 267 269 271 270 270 271 271 271 271 270 270 269 269 267 268 267 267 266 265 265 265 265
273 273 272 271 272 271 268 268 268 267 268 267 266 266 265 265 265 265 266 265 266 267 268 268 269 269 269 268 269 270 269 269 268 267 267 266 266 266 265 264 265 264 264 264
267 267 267 267 266 266 265 266 266 266 265 265 265 263 263 263 263 264 266 266 266 267 268 267 267 268 268 268 268 268 268 267 266 266 265 265 265 264 264 264 264 264 263 263
267 267 266 266 267 267 267 267 267 265 264 263 261 261 262 264 264 265 265 266 268 266 267 267 267 264 266 266 267 267 266 266 265 265 264 264 264 263 263 263 262 262 262 262
268 268 267 266 267 268 268 268 266 266 265 264 264 265 266 267 267 266 265 267 268 266 267 266 263 262 262 266 266 265 265 264 264 263 263 263 263 263 263 263 262 262 262 262
268 269 268 268 269 269 268 269 269 268 266 266 265 264 268 267 266 267 267 264 262 264 265 264 263 260 261 264 264 263 263 263 263 263 263 258 263 262 262 261 262 262 261 260
269 269 269 269 270 270 270 270 270 270 269 269 269 268 268 268 267 267 267 266 263 264 265 258 259 258 264 264 263 262 263 263 263 263 263 263 262 262 262 261 260 261 260 260
271 271 271 272 272 273 272 271 271 271 269 267 267 266 266 266 267 267 266 263 265 262 265 264 263 263 264 264 263 262 263 263 263 263 261 262 262 262 261 261 260 260 260 260
272 271 272 271 271 270 270 269 270 270 270 269 268 266 266 265 265 265 261 265 265 264 263 264 263 262 263 263 263 263 262 263 259 262 262 262 261 261 260 260 260 260 259 258

GFSNGP_sfc_thetae_096.txt.gz
Theta_e
290 290 291 289 288 289 288 289 286 289 289 294 299 300 302 297 295 294 294 292 289 289 290 294 294 295 297 297 300 310 312 312 316 319 320 320 323 323 323 323 322 322 321 321
285 288 288 285 287 287 288 289 289 290 291 300 301 299 294 293 293 291 289 289 289 288 288 292 292 293 293 293 295 296 296 297 300 302 304 305 307 307 313 314 318 321 321 322
282 286 284 282 286 287 289 291 291 288 294 300 297 294 292 291 291 289 289 288 286 286 286 290 292 291 290 291 293 292 293 293 293 295 297 298 300 300 301 303 305 301 300 296
282 283 275 286 292 292 290 292 294 295 298 299 294 291 290 291 290 288 287 286 285 285 286 287 290 291 290 290 290 292 291 290 292 292 292 294 295 296 299 299 295 293 293 294
281 280 283 287 290 289 288 288 293 293 297 294 293 291 287 287 287 286 286 286 286 286 285 286 288 290 290 288 288 288 287 288 291 290 290 292 292 294 295 294 291 289 289 288
283 277 275 286 292 296 295 285 291 292 294 296 293 291 285 285 284 285 285 286 286 287 286 286 287 289 288 287 287 286 286 287 289 289 290 289 291 293 293 291 289 288 287 287
282 280 284 290 294 296 283 285 292 291 288 286 282 283 284 284 283 285 286 286 287 288 287 285 287 288 286 286 284 285 286 288 287 287 287 289 289 290 291 291 290 289 287 287
284 280 277 288 293 287 287 290 290 289 287 284 283 283 282 282 281 283 285 284 286 285 284 285 285 286 285 284 286 286 285 284 285 285 286 287 287 288 289 289 288 288 287 286
283 281 287 287 286 286 288 286 288 288 288 286 284 283 282 281 281 281 282 283 285 284 283 283 283 284 283 284 286 286 286 284 285 284 284 285 285 286 286 286 286 285 284 284
286 284 284 286 287 286 286 285 285 287 287 286 283 283 281 282 281 282 282 282 284 284 282 281 282 282 283 284 285 284 283 284 284 282 282 283 283 283 283 284 283 283 283 283
284 286 286 286 285 286 285 286 285 285 285 285 285 283 283 282 282 281 282 282 283 282 281 281 281 281 282 283 285 284 283 282 283 282 280 280 280 280 280 281 281 281 281 282
282 285 285 283 284 284 282 282 283 284 283 283 284 282 282 280 280 280 280 281 281 281 280 280 280 280 281 282 284 284 283 283 282 283 282 281 280 278 278 279 280 280 280 281
284 286 284 283 284 284 282 282 282 282 282 281 281 282 281 279 279 278 279 279 279 278 279 279 279 278 279 280 281 281 281 282 282 282 282 281 281 281 278 277 276 277 278 278
287 287 283 284 282 284 283 282 281 281 281 280 279 279 278 277 277 277 276 277 277 277 277 277 277 276 278 279 279 279 279 279 281 281 281 280 280 279 279 279 277 276 274 275
284 286 285 284 283 282 283 282 280 279 279 278 278 277 277 275 274 274 276 276 276 276 275 275 275 275 277 279 278 278 280 280 280 279 279 279 279 279 279 278 277 277 277 277
283 283 283 281 280 280 280 279 278 277 277 276 275 274 274 274 274 273 273 273 274 272 273 272 272 273 275 277 279 279 278 276 278 279 279 279 278 278 277 277 276 275 273 272
281 279 280 278 278 277 276 277 276 275 274 274 273 274 273 273 272 271 271 272 271 271 272 273 272 272 274 274 278 279 279 278 276 278 278 277 277 276 276 275 274 273 270 269
280 280 279 279 278 277 276 276 275 275 274 273 272 271 270 270 270 269 270 270 270 270 271 272 272 273 273 274 276 278 278 278 277 276 276 276 275 275 274 273 273 272 272 269
279 278 278 277 277 277 276 275 274 273 271 271 270 269 269 269 270 269 270 270 270 270 270 272 272 273 273 273 275 277 276 276 275 275 274 273 273 273 273 272 271 271 271 270
276 276 276 275 275 274 272 272 272 270 270 270 269 269 268 267 268 268 269 268 269 270 271 271 272 272 272 272 272 275 275 274 273 272 273 273 272 272 270 268 270 270 270 269
272 272 271 271 270 270 270 271 270 269 269 269 269 267 266 267 267 268 270 272 270 270 270 270 271 272 272 272 273 274 273 272 272 272 271 271 271 270 270 270 270 269 269 269
272 271 270 270 271 270 271 271 270 269 268 267 265 266 266 268 268 268 268 270 272 268 271 271 270 267 269 270 272 272 271 271 271 271 270 270 270 269 269 269 269 269 269 268
273 273 272 271 272 272 272 271 270 270 269 267 267 269 270 271 271 271 271 270 272 269 271 270 266 266 267 270 271 270 270 269 269 269 269 269 269 268 269 268 268 269 268 268
273 273 273 273 273 273 273 273 273 272 270 270 269 268 271 273 273 272 271 268 266 268 269 268 267 265 266 269 269 269 269 269 269 269 268 263 268 268 268 267 267 268 266 265
273 273 273 273 274 276 274 274 273 273 272 273 272 272 271 272 272 272 272 270 266 268 270 263 263 264 269 269 268 268 268 269 268 269 269 269 268 267 267 267 265 266 266 265
275 276 276 275 275 275 276 275 274 275 273 273 273 274 273 273 272 271 271 268 269 267 270 270 269 269 269 269 268 267 267 268 267 268 266 267 267 266 266 265 265 265 265 265
276 274 275 275 276 275 275 274 273 273 274 273 272 272 272 272 272 270 267 270 270 270 270 270 269 268 268 268 268 268 267 268 265 266 267 267 266 266 265 265 265 265 265 264

GFSNGP_sfc_thetae_099.txt.gz
Theta_e
292 293 293 292 292 293 291 291 288 290 291 297 297 296 294 294 293 292 291 290 291 290 289 289 291 291 293 295 297 302 304 307 313 320 321 322 321 324 324 324 324 325 325 325
287 291 291 288 289 289 289 290 290 291 293 301 300 298 294 292 290 289 289 288 288 288 288 288 290 290 290 292 294 295 295 296 301 303 303 304 307 309 319 318 316 315 309 317
283 287 287 284 288 289 291 293 293 289 295 301 295 291 290 290 289 287 287 287 286 286 285 288 288 289 288 289 292 292 292 293 294 297 298 298 301 301 300 299 299 299 295 293
283 285 278 288 295 294 293 293 294 294 295 298 291 287 287 287 286 286 286 287 287 285 285 285 288 289 288 290 289 290 289 290 292 293 293 295 296 295 293 293 291 292 291 290
283 283 286 288 291 291 290 289 294 293 295 293 289 288 284 285 286 286 286 289 289 289 286 285 285 288 288 287 287 287 285 287 289 290 290 294 292 292 291 289 288 287 289 289
286 279 278 286 292 297 296 286 292 294 292 290 291 289 282 284 285 287 287 289 288 289 288 287 287 287 287 286 286 285 285 286 286 288 289 289 291 291 290 288 287 287 286 286
285 283 285 287 292 296 285 283 291 291 289 286 282 283 284 285 285 287 288 289 289 288 286 286 288 287 286 286 284 285 286 287 287 286 287 289 289 290 290 290 289 288 287 287
286 283 279 287 292 285 285 288 289 289 288 286 285 285 284 284 283 284 285 288 289 287 285 285 286 286 284 284 287 286 286 286 287 287 287 289 288 288 289 289 288 288 287 286
283 281 286 287 286 287 288 286 288 288 289 288 285 283 283 283 282 284 286 287 289 287 286 285 285 285 284 284 286 287 285 283 283 285 284 285 285 286 286 287 286 285 285 284
285 285 285 287 288 288 288 286 288 288 288 289 286 285 284 285 285 286 286 286 287 286 285 284 285 284 284 286 286 285 284 284 283 282 281 282 283 282 281 283 283 283 283 282
284 286 286 286 286 287 287 288 288 289 288 288 288 287 287 286 285 285 285 286 286 284 283 283 283 283 284 285 287 286 284 284 283 282 280 279 278 280 280 280 281 281 280 280
282 285 286 284 285 286 284 284 286 287 286 287 287 286 286 284 284 284 283 284 283 283 282 281 281 280 281 283 285 285 284 283 284 284 283 282 280 277 279 279 280 280 280 281
286 287 285 285 286 286 285 285 286 286 286 285 285 285 284 282 282 281 282 281 280 280 280 280 279 279 280 281 282 282 282 283 283 283 282 282 282 281 278 277 277 278 278 279
290 288 286 286 285 287 286 285 284 284 284 283 282 281 280 279 279 278 278 279 279 279 278 278 278 277 279 281 281 281 281 281 281 281 281 281 281 280 281 280 278 277 276 277
287 288 287 287 286 285 286 285 283 282 281 281 281 280 279 277 276 276 278 279 279 278 277 277 275 275 278 280 280 279 280 280 281 280 280 280 281 280 280 279 278 278 278 278
285 286 285 284 283 283 283 282 281 279 279 278 278 277 277 277 276 275 275 275 275 274 274 274 274 274 277 278 281 281 280 279 280 280 280 280 280 279 279 278 277 275 274 274
283 281 282 281 280 280 279 280 279 277 276 276 275 276 276 275 275 273 273 273 272 273 274 273 273 274 275 277 279 280 280 280 279 279 279 279 278 278 278 277 276 274 272 272
284 283 283 282 280 279 278 278 277 277 275 275 274 272 272 272 272 272 272 273 273 272 272 273 273 275 275 275 278 280 279 279 278 278 278 277 277 277 277 276 275 274 274 272
282 281 280 280 280 279 278 277 275 274 273 273 272 271 271 271 271 271 272 272 273 273 272 273 274 275 275 274 276 279 278 278 277 277 276 276 276 276 275 275 274 274 273 273
279 279 278 277 278 277 274 274 274 273 272 272 271 271 270 269 269 270 271 270 271 271 273 273 274 274 274 274 274 277 277 276 275 275 274 275 275 274 273 271 273 273 273 272
275 274 273 273 272 273 273 273 272 272 271 271 270 268 268 269 269 270 273 275 272 271 272 272 272 272 273 273 275 276 275 275 274 274 274 274 274 273 273 272 272 272 272 271
274 273 272 273 273 272 273 274 273 271 270 269 268 268 269 272 270 271 270 271 274 269 273 273 271 268 270 270 274 274 273 273 273 273 273 273 272 272 272 271 271 271 271 271
275 274 274 274 274 274 274 273 272 272 270 269 269 271 273 273 274 273 273 272 274 270 273 271 267 267 267 272 273 272 272 271 271 271 271 271 271 271 271 270 270 270 270 269
276 276 275 276 275 275 275 274 275 274 272 272 271 270 272 274 275 275 274 269 268 268 270 269 268 266 266 271 271 271 271 271 271 271 270 264 270 270 270 269 268 269 268 267
276 276 276 275 276 277 276 276 275 275 275 275 274 274 273 275 273 274 273 272 268 269 272 266 266 266 270 271 270 270 270 270 269 269 270 270 270 269 269 269 268 268 267 267
277 278 278 276 277 277 278 277 276 277 276 276 277 277 276 275 274 272 273 270 271 270 271 272 271 270 270 270 269 269 269 270 269 269 268 268 269 268 268 268 267 267 267 267
277 276 277 277 278 277 276 275 275 275 276 275 275 277 275 274 274 271 270 272 272 272 271 271 271 270 270 270 269 269 269 270 269 268 268 268 268 268 268 267 267 267 267 267

GFSNGP_sfc_thetae_102.txt.gz
Theta_e
290 292 292 290 291 292 290 290 285 289 291 292 293 292 292 292 291 290 289 289 288 288 288 289 290 289 290 291 293 295 297 300 304 313 320 321 321 323 323 322 322 322 322 320
286 292 290 287 289 290 290 291 292 292 290 295 295 293 290 289 289 287 287 287 287 287 287 287 288 289 289 289 291 292 292 293 296 300 302 305 307 311 310 308 307 304 304 300
281 288 287 283 288 290 290 291 291 287 291 294 289 287 287 287 287 286 287 288 286 285 286 287 287 287 287 288 290 290 290 291 292 294 295 297 297 297 297 298 296 294 293 291
282 284 277 288 295 294 290 290 291 292 292 289 286 285 286 286 286 285 286 287 287 285 285 286 286 286 287 288 288 288 288 289 291 291 292 292 292 291 290 291 291 290 289 288
283 282 285 288 289 288 288 285 291 291 291 290 287 286 283 286 287 287 288 289 289 289 287 287 286 285 285 285 286 286 286 287 288 290 289 289 288 288 289 288 287 287 287 286
286 280 278 283 288 293 293 281 289 290 289 289 290 287 281 284 286 287 289 289 288 288 287 287 287 288 285 284 284 284 285 285 287 288 289 287 286 286 288 286 285 286 284 285
285 282 282 285 290 292 283 280 289 289 287 285 282 282 284 285 285 287 288 289 289 287 285 285 287 287 285 285 284 285 285 286 285 286 286 285 285 286 285 285 285 285 284 284
283 281 277 287 289 282 284 287 288 289 288 285 285 284 284 283 283 286 286 288 288 286 285 285 286 286 284 284 286 285 284 285 284 284 284 285 285 286 286 285 285 284 284 284
282 280 286 287 286 288 289 286 288 288 288 287 285 283 283 283 283 286 286 286 287 285 284 284 285 285 284 284 285 286 283 281 280 280 282 283 281 281 284 285 284 283 282 281
284 285 285 286 288 288 289 288 289 289 289 289 286 286 285 287 287 286 286 285 286 284 283 282 283 283 284 286 286 285 284 282 280 279 278 279 280 280 279 280 280 280 280 279
284 285 286 285 286 287 287 289 288 289 288 288 288 286 285 285 284 284 284 284 284 282 281 280 281 281 283 284 286 285 284 284 282 280 278 277 278 278 278 279 280 278 278 278
281 285 285 283 285 287 285 285 287 287 286 286 287 285 285 283 283 283 282 282 281 281 280 279 279 279 281 282 283 283 283 282 283 283 282 278 276 276 280 279 280 280 280 279
285 287 285 286 287 287 285 285 286 285 285 284 283 283 282 280 280 280 280 279 279 278 279 278 277 277 280 281 282 282 281 282 282 282 281 281 281 278 274 277 279 279 279 280
289 289 286 287 285 288 287 286 286 285 284 283 282 280 279 278 278 278 278 278 278 277 277 276 276 275 278 281 280 281 281 280 280 280 280 280 280 280 280 278 275 275 278 277
288 289 287 288 287 286 287 286 284 282 281 280 280 279 278 276 275 275 276 277 278 276 275 275 274 274 277 278 280 279 280 280 281 281 281 281 280 280 279 278 276 275 275 277
287 287 286 285 284 283 283 282 280 278 278 277 276 276 276 276 275 274 274 273 273 272 273 271 272 273 275 276 279 281 280 279 280 280 280 280 279 278 278 276 274 271 270 270
284 282 283 282 281 280 279 279 278 277 276 275 274 273 274 276 274 273 273 273 271 271 272 271 271 271 272 274 274 280 280 279 278 279 278 278 277 277 276 275 273 270 268 268
284 283 283 282 281 280 278 278 277 276 274 273 273 272 270 271 271 271 271 271 271 270 271 271 271 273 271 273 274 279 278 278 277 276 276 275 276 276 275 274 273 272 271 270
283 281 280 280 280 279 277 275 274 274 273 273 272 271 269 268 269 270 271 269 270 271 270 271 273 274 274 273 274 278 277 276 276 275 276 274 274 273 273 273 272 271 271 270
279 279 278 277 277 276 274 274 274 272 272 271 270 269 269 267 267 267 270 270 269 270 272 272 273 273 274 273 272 276 276 275 274 273 272 273 273 272 269 267 270 271 270 269
275 274 273 273 272 273 272 272 271 271 269 268 269 266 266 268 268 267 271 273 271 270 271 272 271 269 272 270 270 275 274 274 273 273 272 272 272 271 271 270 270 269 269 269
274 273 272 272 273 273 273 274 272 270 269 267 265 265 266 270 270 270 268 270 273 267 271 272 269 265 267 265 273 273 272 272 272 272 271 271 270 270 269 268 268 268 268 267
275 275 274 272 273 274 274 274 271 271 268 268 268 271 272 273 273 272 271 271 272 269 271 268 264 263 265 269 272 271 271 270 270 270 270 269 269 268 268 266 266 267 267 266
276 276 275 276 276 275 273 274 274 274 271 272 271 268 271 272 274 275 272 267 266 266 268 268 266 264 262 270 270 270 270 270 270 269 269 260 268 267 267 265 264 265 264 263
277 276 276 275 276 277 276 277 276 276 276 275 276 274 273 275 273 273 273 272 268 267 271 265 263 263 267 270 270 268 269 270 267 266 268 268 267 267 267 267 264 265 262 262
277 278 278 277 276 277 277 277 276 276 276 276 277 278 276 275 274 272 273 270 270 269 270 271 270 268 269 270 268 267 268 269 268 267 267 266 267 267 266 266 264 264 265 265
277 276 277 277 278 277 276 275 274 274 275 274 273 275 276 275 274 271 269 272 272 272 272 272 271 270 270 268 268 268 269 269 268 267 266 265 265 266 265 265 265 264 263 262

GFSNGP_sfc_thetae_105.txt.gz
Theta_e
289 290 289 288 288 289 288 290 285 286 286 289 289 289 289 289 289 288 287 287 287 286 287 287 288 288 290 290 291 292 293 293 297 302 310 312 314 322 322 322 321 320 319 318
286 287 288 286 287 288 288 290 290 288 287 290 290 290 287 287 287 286 287 286 286 286 286 286 286 287 287 288 289 290 291 292 293 295 296 298 300 301 305 303 302 300 299 298
281 287 288 282 286 286 286 288 288 284 288 289 285 284 284 284 285 285 286 286 285 285 285 286 286 286 286 286 288 289 288 289 291 292 292 293 293 292 292 293 293 291 291 290
281 284 277 283 290 289 285 286 288 289 287 285 283 283 284 285 285 286 287 286 285 285 285 286 287 286 286 286 286 287 287 287 288 291 291 290 291 291 288 289 288 287 287 288
281 280 284 285 285 284 286 282 287 286 288 285 285 285 281 285 286 286 286 286 285 286 285 286 286 287 286 285 285 284 284 285 286 287 288 289 288 289 289 286 285 285 285 285
283 279 275 281 284 288 290 277 287 286 284 285 288 281 278 284 285 286 288 286 284 284 284 285 286 286 285 283 283 283 284 284 284 285 285 286 286 286 287 286 285 284 284 284
280 279 280 283 286 288 279 278 288 286 284 282 279 281 282 284 284 286 287 286 285 283 282 284 286 285 284 283 281 283 284 283 283 284 284 285 285 286 286 285 285 284 283 283
279 277 273 285 285 280 284 287 288 287 286 283 283 283 283 283 284 285 285 285 284 282 281 283 284 285 282 282 284 283 282 281 280 282 282 283 283 284 285 285 283 282 282 281
280 279 285 286 285 287 288 286 287 288 287 286 284 283 279 282 284 282 283 282 283 281 280 281 282 281 281 284 285 283 281 279 279 280 280 280 280 280 281 281 281 280 279 279
282 283 284 285 287 288 289 287 287 288 289 288 285 285 284 284 281 281 281 281 281 280 279 279 280 280 281 283 285 283 281 279 279 278 278 279 279 279 279 279 278 279 278 278
282 284 284 284 285 286 286 288 288 287 286 286 286 284 283 282 281 280 280 280 280 279 278 278 279 279 281 282 283 283 282 282 279 278 277 277 278 278 278 279 279 277 278 278
278 285 284 283 285 286 285 285 285 284 282 282 283 281 280 279 279 278 278 279 278 278 277 277 277 277 279 281 282 281 281 281 281 280 277 276 276 276 280 280 281 281 281 279
283 286 283 284 286 287 284 284 284 283 282 279 280 280 278 277 278 278 277 277 276 276 275 275 274 274 276 279 281 280 279 280 280 279 279 279 275 275 273 276 279 280 280 281
288 287 284 286 284 287 286 285 284 282 281 280 279 278 276 275 274 274 273 276 275 274 274 273 273 271 273 275 275 278 279 279 278 279 279 278 277 277 276 271 270 273 278 278
288 288 286 286 285 283 283 283 280 278 277 276 277 276 275 273 272 272 273 274 275 272 271 270 270 270 272 274 276 273 276 278 279 274 274 276 273 274 274 272 270 268 270 272
287 286 284 282 280 279 279 278 276 275 275 275 274 275 274 273 272 271 271 270 270 269 269 266 269 269 271 271 271 278 274 275 276 275 274 273 271 272 271 269 267 266 267 267
283 282 282 279 277 277 276 276 276 274 272 270 269 270 270 272 269 269 267 267 266 263 264 264 265 267 267 267 268 271 272 270 273 272 271 272 271 271 272 267 263 262 262 263
281 280 279 280 278 277 276 275 274 273 271 271 269 266 264 264 264 262 263 263 267 264 262 262 264 267 266 268 270 274 272 274 273 270 270 271 272 271 269 269 269 265 263 267
279 277 277 277 277 275 274 272 271 271 268 266 264 261 260 259 260 260 259 261 260 261 263 265 272 270 270 271 270 273 272 270 271 270 273 269 266 268 268 266 264 264 264 265
275 275 274 274 274 273 270 268 267 265 264 264 261 259 259 258 258 258 259 263 262 264 266 267 269 268 269 269 267 271 270 270 272 266 265 266 265 260 260 264 267 265 262 260
268 268 267 267 264 264 263 262 264 263 260 258 259 258 258 260 260 258 262 268 263 264 267 268 267 266 267 265 269 268 266 268 267 266 265 267 265 265 262 263 260 261 262 261
266 265 263 264 265 264 266 264 265 261 261 258 257 256 258 264 262 262 261 266 267 262 268 267 266 260 264 261 269 264 266 265 265 266 264 261 263 264 262 261 261 261 262 261
267 267 267 265 265 266 266 266 262 262 260 259 260 261 263 266 268 265 265 268 268 264 268 263 260 258 258 260 259 259 263 262 259 261 258 257 256 256 258 257 259 259 256 256
268 269 268 269 269 271 268 267 268 270 264 266 265 263 267 264 263 271 268 263 261 259 259 260 258 259 257 261 260 258 258 261 260 258 260 257 257 256 256 254 254 254 257 254
270 270 270 269 273 274 276 276 274 275 274 273 274 274 270 272 265 266 263 263 264 262 261 260 261 259 255 258 260 257 256 260 258 254 254 257 258 257 255 257 255 254 253 252
274 275 275 275 273 272 272 273 270 270 271 266 268 270 272 271 269 266 263 264 264 263 261 261 258 260 257 257 262 257 258 260 258 260 258 256 257 260 259 257 255 253 256 259
275 272 273 273 276 275 271 270 266 266 265 261 261 262 264 271 270 267 261 259 259 263 264 263 265 265 263 260 257 257 258 260 262 261 257 254 253 255 259 259 258 254 253 253

GFSNGP_sfc_thetae_108.txt.gz
Theta_e
288 288 289 287 286 288 288 287 282 284 283 285 286 286 287 287 287 287 286 285 285 285 286 286 286 287 288 288 289 291 290 291 292 294 296 299 307 322 321 320 320 320 318 318
284 287 287 284 285 286 287 287 286 285 281 287 287 286 285 285 286 285 284 283 284 285 285 285 286 286 286 287 287 289 289 289 290 292 292 294 295 298 300 300 300 299 298 297
281 286 285 278 282 283 284 286 286 282 284 285 282 282 282 284 285 284 283 283 282 283 284 285 285 286 285 286 287 286 286 288 289 289 289 290 291 290 291 292 294 291 291 293
281 284 273 281 287 287 283 284 286 286 284 283 281 282 283 285 284 284 283 282 282 282 284 285 286 286 285 285 285 285 285 285 286 288 287 288 287 286 286 287 287 287 288 289
281 280 281 282 283 282 283 281 285 284 285 283 283 283 280 284 285 285 283 283 282 283 284 285 284 286 284 283 282 282 282 283 284 285 286 286 286 285 285 286 285 285 286 286
282 276 274 280 283 287 287 277 285 284 283 282 286 278 278 283 285 284 284 283 282 282 284 283 285 285 284 281 280 279 281 281 283 284 283 284 285 285 285 285 284 284 284 284
279 277 279 281 284 288 279 276 287 284 282 281 278 280 282 284 283 283 283 282 282 281 280 281 282 283 282 281 278 279 281 281 281 282 282 283 284 284 284 284 283 283 282 283
278 275 272 284 284 279 283 287 287 285 284 282 282 282 281 283 280 281 280 280 281 279 279 281 281 281 281 281 281 280 279 278 279 280 281 281 281 282 282 282 281 281 281 281
279 278 284 287 285 288 288 286 287 286 285 284 283 282 280 277 278 279 279 279 279 278 278 279 280 280 280 283 283 281 279 278 278 279 279 280 280 280 279 280 280 279 280 280
279 282 283 285 287 287 287 285 286 287 288 287 285 284 279 279 278 278 278 278 278 278 277 277 278 279 280 282 284 283 279 278 277 278 278 278 279 279 279 278 278 279 279 279
281 283 283 284 284 285 285 286 283 282 282 283 280 279 278 278 278 277 277 277 277 276 276 276 277 277 278 280 281 281 281 281 278 277 277 277 278 278 279 280 280 278 278 280
278 285 283 282 284 286 283 281 282 281 279 280 279 278 277 276 277 276 276 276 275 275 274 274 274 275 275 277 280 279 279 279 279 277 276 276 276 276 280 280 281 282 282 280
282 285 280 280 283 285 282 281 281 280 279 278 278 277 276 274 275 276 275 274 274 273 273 273 273 272 273 274 277 279 276 278 278 278 279 275 274 273 271 275 279 279 280 281
286 286 283 285 280 284 282 281 281 279 279 278 276 276 274 273 273 272 273 274 273 272 272 271 271 270 271 272 272 273 274 275 273 272 273 273 271 270 268 267 266 267 273 278
288 286 283 282 281 280 280 279 276 275 275 275 275 274 273 271 270 270 271 273 273 271 269 269 269 268 271 273 273 272 275 276 274 271 271 270 270 268 266 265 265 265 267 270
285 284 282 279 278 278 277 276 275 274 273 273 273 273 273 272 270 269 269 269 269 266 267 264 267 267 269 269 268 270 269 271 269 268 269 270 269 268 266 265 265 265 265 262
281 280 278 276 276 275 275 275 274 272 270 268 267 268 271 268 266 265 263 266 263 261 261 261 263 264 265 266 266 267 269 268 268 269 269 269 268 267 264 263 263 264 264 261
278 278 279 278 276 275 274 274 273 272 269 269 267 262 260 260 261 260 260 260 261 262 261 261 263 265 266 267 269 271 270 271 271 268 269 268 268 268 266 265 265 264 262 265
277 276 276 276 276 274 273 272 270 269 264 262 261 259 257 256 257 257 256 257 257 259 261 264 270 268 268 268 269 271 270 268 269 269 270 265 264 268 264 263 264 261 261 262
274 274 274 273 273 272 268 264 264 263 259 260 256 257 258 257 255 256 255 261 261 263 264 265 267 267 267 268 266 269 268 266 270 265 263 263 260 256 260 264 263 259 255 256
267 267 266 266 263 261 261 260 261 261 259 256 258 257 258 259 257 255 260 264 262 262 266 266 265 264 266 264 267 264 262 262 265 264 264 263 263 261 260 259 261 261 262 259
263 264 261 261 264 263 262 262 263 259 258 257 254 253 254 261 260 259 259 264 266 262 266 266 264 259 262 260 265 260 264 262 262 263 261 261 261 260 259 260 260 258 257 256
265 265 265 263 264 265 263 263 259 260 259 258 258 259 261 265 266 263 263 267 267 263 266 263 259 257 256 260 255 255 258 259 257 257 256 253 253 254 256 258 258 258 256 258
266 267 267 268 267 269 268 266 267 269 263 265 265 265 267 266 263 268 267 263 261 258 257 259 256 258 255 254 255 253 253 256 258 256 257 256 255 252 251 250 252 250 250 251
270 269 268 267 271 271 273 274 274 274 274 274 273 274 270 271 266 266 264 263 262 261 259 258 259 258 253 252 254 254 253 253 253 251 252 254 256 257 257 254 253 252 250 249
273 272 271 273 272 271 271 272 268 268 269 264 265 260 262 265 269 269 266 262 263 262 260 257 256 256 256 254 254 254 253 257 255 254 254 253 252 254 257 256 254 251 250 250
272 271 272 272 274 272 270 268 265 264 263 258 260 261 261 259 266 269 266 262 259 259 260 261 260 261 261 260 259 257 254 254 255 256 255 253 251 251 253 258 259 254 252 252

GFSNGP_sfc_thetae_111.txt.gz
Theta_e
285 286 285 284 285 289 286 285 280 280 280 282 283 284 285 286 285 283 282 283 284 284 284 285 286 286 286 287 288 289 288 289 290 292 293 293 293 293 296 318 319 319 318 318
283 284 283 280 283 283 286 285 283 282 279 284 285 285 284 284 284 282 281 281 282 284 284 284 284 284 285 285 286 287 287 287 289 290 291 290 290 290 290 291 295 302 303 303
279 286 284 277 280 281 282 284 285 280 282 283 281 281 281 283 283 281 280 280 281 283 283 283 284 284 283 283 285 284 284 286 286 288 288 288 289 289 288 287 287 288 290 293
281 283 273 280 285 286 282 282 285 283 282 281 280 281 283 284 283 281 280 280 281 282 283 284 284 284 282 282 282 282 282 283 285 285 286 287 287 286 286 286 286 285 286 287
280 278 280 281 282 281 282 280 283 284 283 282 283 283 280 284 284 281 280 280 280 282 282 282 283 284 280 280 280 280 280 281 282 284 284 285 284 285 285 285 284 285 285 285
282 276 273 278 282 286 286 277 284 283 282 282 284 277 277 283 283 282 281 280 279 280 281 281 281 283 280 278 278 277 279 280 280 281 281 283 283 283 284 284 283 284 283 284
279 277 278 281 284 288 277 277 285 283 281 279 278 279 282 281 279 280 280 279 280 279 279 280 280 282 281 279 277 277 278 279 279 279 280 281 282 282 283 282 282 282 282 283
278 274 271 283 284 279 283 286 285 284 283 281 281 281 279 277 275 278 278 278 278 277 278 279 279 280 280 281 281 279 278 278 278 278 279 279 279 279 280 281 281 281 281 281
279 276 284 286 285 287 287 284 287 284 284 284 281 278 275 274 275 277 277 276 277 276 277 277 277 278 278 280 282 280 279 277 277 278 278 279 278 278 278 279 279 280 280 280
278 282 282 284 284 286 287 282 282 287 286 285 279 278 276 276 276 276 276 275 276 275 275 275 276 277 277 279 280 281 280 278 277 277 278 278 279 279 279 278 278 279 279 279
280 282 282 282 283 283 283 283 281 281 281 280 278 277 277 276 276 275 275 275 274 274 274 273 274 275 275 277 280 279 279 280 277 276 276 276 278 278 279 280 281 279 278 280
274 282 282 280 283 283 281 280 280 279 277 278 278 276 276 275 275 274 274 274 273 273 272 272 272 273 273 275 277 278 278 278 278 276 275 275 274 274 279 279 281 282 282 280
283 284 280 282 283 283 280 279 279 278 278 276 276 275 274 273 274 276 273 272 271 271 272 272 272 271 271 273 275 277 277 277 276 276 277 274 272 272 269 272 277 278 280 280
285 285 282 280 279 281 280 279 279 277 277 276 275 274 273 272 272 271 271 273 272 271 270 270 270 268 269 270 270 270 273 273 271 272 271 271 268 265 264 263 263 266 271 276
284 284 281 279 279 278 278 277 276 275 275 274 274 273 272 270 269 269 270 272 271 269 268 267 267 267 269 270 271 270 272 270 267 265 268 269 267 264 261 262 261 262 266 268
283 282 281 279 277 277 277 276 274 273 273 272 272 272 271 271 269 267 267 268 268 265 265 263 266 264 267 267 268 268 266 268 266 263 263 264 263 263 263 263 263 263 263 261
279 277 277 276 276 275 274 274 273 271 269 267 266 269 267 266 265 264 263 263 261 259 259 259 260 262 264 264 265 266 266 267 266 267 266 265 264 262 261 261 261 262 259 258
279 280 279 278 276 274 274 273 272 271 268 267 265 261 260 260 260 259 259 259 260 260 258 259 261 261 264 264 267 269 268 270 270 267 268 265 265 267 264 263 263 263 260 262
277 277 277 276 276 274 273 271 269 268 263 260 260 258 255 254 255 255 254 256 256 259 261 262 269 267 267 267 269 269 268 266 267 268 268 264 262 265 265 264 260 257 259 260
274 275 274 273 273 271 267 263 262 261 257 258 255 256 258 256 254 254 254 258 260 262 263 264 266 266 266 267 265 267 266 264 267 264 261 262 256 256 260 263 263 258 254 254
266 266 266 266 261 260 260 259 260 261 258 254 257 256 255 256 256 253 258 263 262 262 264 265 264 264 265 263 266 264 259 258 260 261 261 260 259 260 256 256 259 258 257 255
262 263 260 260 263 262 260 259 262 258 257 256 253 251 253 261 259 258 259 264 266 262 265 265 264 259 261 259 265 259 262 261 261 260 259 258 259 258 257 257 254 253 255 256
264 264 263 261 263 263 262 262 258 258 257 256 256 258 259 265 264 263 263 267 267 263 265 263 259 256 256 255 255 253 254 255 258 259 255 252 252 252 256 258 257 258 257 256
264 265 266 266 265 268 267 265 266 268 262 264 263 262 266 266 264 269 270 265 262 259 256 258 256 257 254 253 252 252 252 252 253 254 255 253 254 252 252 250 251 250 249 250
268 267 267 266 270 269 271 273 273 273 272 272 272 272 270 270 267 266 266 266 263 261 260 258 257 257 252 251 251 252 251 251 251 250 252 253 254 256 254 253 254 253 249 248
271 270 270 272 271 270 270 271 268 268 268 265 264 260 261 261 263 266 267 267 264 262 261 260 256 256 254 254 253 253 253 255 253 253 252 254 252 251 252 255 257 255 252 253
271 270 271 271 272 272 270 269 267 266 265 259 259 262 260 258 258 261 264 262 259 259 259 260 260 259 259 258 258 258 256 255 253 255 252 251 249 250 249 251 254 257 254 250

GFSNGP_sfc_thetae_114.txt.gz
Theta_e
284 284 283 281 283 285 282 282 277 278 277 279 281 282 283 283 282 281 281 282 283 283 283 284 283 284 284 285 285 287 287 287 288 290 291 291 292 293 294 293 293 296 311 319
283 286 285 279 281 281 283 283 280 280 277 282 283 283 282 281 280 279 280 281 282 282 283 283 283 282 282 283 284 285 285 285 287 288 288 288 289 290 291 291 290 290 291 293
280 284 283 276 279 279 280 282 283 278 280 282 279 280 280 281 280 279 279 280 280 281 281 282 282 281 280 281 283 283 283 284 284 286 286 287 287 287 287 288 289 289 289 288
282 282 272 279 285 284 281 281 283 281 281 281 279 281 282 282 280 278 279 279 279 280 281 281 283 281 280 281 281 280 281 281 282 283 284 285 285 285 285 285 286 286 286 287
280 277 279 281 281 280 280 278 282 283 283 282 282 282 279 282 281 279 278 278 279 280 280 279 281 282 279 278 278 278 278 279 280 281 282 282 282 283 284 284 283 284 284 285
281 276 272 277 282 286 285 276 282 282 280 281 284 276 275 278 278 278 278 278 278 278 279 279 280 283 281 278 277 276 277 278 278 280 280 281 281 281 283 284 283 283 283 283
279 276 277 281 284 287 277 275 283 281 279 278 277 278 278 278 277 277 277 278 278 278 277 277 279 281 280 280 277 277 277 278 278 278 279 279 280 281 282 282 283 282 282 282
279 275 273 284 285 279 283 284 283 282 282 280 278 277 276 275 274 276 275 275 276 276 276 277 277 278 278 278 281 279 278 277 278 278 278 279 278 278 279 280 281 281 280 281
278 276 283 285 284 285 284 286 284 283 283 280 277 274 273 271 273 274 274 274 275 274 275 275 276 276 276 278 280 281 279 277 277 278 279 279 279 279 278 278 278 279 280 279
279 281 282 283 284 285 283 282 284 286 283 279 277 276 274 275 275 274 274 273 273 274 273 273 274 275 276 277 280 280 279 278 277 276 276 278 279 279 279 279 278 278 278 278
279 281 282 282 282 282 281 281 279 279 279 278 277 276 275 274 274 274 273 273 273 272 272 272 273 273 274 276 279 278 279 278 278 276 276 275 276 278 277 279 280 278 278 278
278 283 281 281 283 284 281 279 279 277 276 277 276 275 275 275 274 272 272 272 271 271 271 271 271 271 272 273 276 278 277 277 277 277 274 274 273 272 278 278 279 280 280 279
283 284 281 282 282 281 278 278 278 277 276 274 274 274 274 273 273 274 273 271 270 270 270 270 270 269 269 271 274 275 276 276 275 274 274 273 271 269 267 270 276 276 278 278
285 284 280 280 278 280 279 278 278 276 275 275 273 273 272 271 271 270 270 271 271 269 269 269 268 267 267 268 269 268 269 269 268 268 266 265 262 262 261 261 260 263 269 273
283 283 280 279 278 277 277 276 275 274 274 273 274 272 271 269 268 268 269 271 270 268 266 266 266 265 267 269 270 268 270 267 262 261 263 263 260 259 259 261 262 261 263 266
282 280 279 278 276 277 276 275 274 273 273 272 271 271 270 269 267 266 266 266 267 264 264 261 265 263 265 266 266 267 265 266 264 261 261 262 261 262 262 262 262 261 262 260
278 277 277 276 276 275 274 274 273 270 268 267 266 267 266 264 264 263 261 262 260 257 258 258 258 260 262 262 263 265 265 267 265 266 265 263 262 261 260 260 259 259 257 256
280 280 281 278 276 274 273 273 272 270 267 266 264 260 258 258 259 258 257 257 257 259 257 257 259 260 262 263 266 268 267 268 268 266 266 264 264 265 263 262 262 261 259 261
277 277 277 277 276 274 272 270 269 268 262 259 258 257 255 253 254 254 253 254 255 258 260 260 268 265 265 266 268 267 267 266 266 266 265 263 261 265 264 262 258 257 258 258
275 275 274 273 272 271 266 262 262 261 256 257 254 255 256 255 253 253 253 257 260 262 262 263 265 265 265 265 264 266 265 263 265 262 260 262 257 257 261 263 261 257 253 254
267 266 266 266 261 260 260 258 259 260 256 253 256 255 255 256 254 252 258 262 262 261 264 264 263 263 263 261 264 263 259 257 257 259 257 255 256 259 258 258 257 258 257 255
262 263 262 261 264 260 258 258 260 257 256 254 251 250 252 260 259 259 260 264 266 262 264 264 263 259 260 257 263 257 261 260 259 258 258 255 253 253 255 257 257 256 255 256
263 263 263 262 263 262 261 261 257 258 257 256 256 257 258 264 264 264 264 267 266 264 264 262 260 257 256 253 254 252 253 253 254 255 254 251 249 249 252 255 254 253 252 253
264 265 264 265 264 267 266 264 265 267 261 263 263 261 264 263 263 267 268 267 264 263 259 259 256 257 255 252 251 250 251 250 250 250 252 252 248 252 255 252 252 251 248 249
266 266 266 266 269 267 270 271 272 272 271 271 271 271 268 268 264 266 262 265 266 265 262 259 257 256 252 250 250 251 252 251 251 249 253 255 255 251 251 249 251 255 254 248
270 269 268 270 269 268 269 269 267 266 267 264 264 260 259 258 261 261 262 262 264 265 261 260 255 256 256 255 255 255 255 257 255 253 252 253 252 254 256 254 252 255 257 255
269 269 270 270 270 270 268 267 265 265 263 257 258 260 259 257 258 259 258 258 258 259 259 259 260 263 261 262 262 260 259 257 255 256 254 254 252 253 254 253 251 251 256 257

GFSNGP_sfc_thetae_117.txt.gz
Theta_e
285 285 284 282 281 283 281 283 278 278 277 279 280 281 281 281 281 280 280 281 281 281 281 282 281 282 283 284 285 287 287 287 287 289 290 290 290 291 293 293 294 295 294 294
283 286 285 280 281 282 283 282 280 280 277 282 282 282 280 280 279 279 279 279 280 281 281 282 281 281 281 282 284 285 284 285 287 287 287 287 288 288 289 289 290 291 291 291
280 285 283 278 279 280 281 282 283 278 280 281 279 279 279 279 279 278 278 279 279 280 280 281 282 281 280 281 283 283 283 283 284 286 286 286 286 287 286 287 287 287 288 288
282 283 274 281 284 284 280 281 283 281 281 281 279 280 280 280 278 278 278 279 279 279 279 281 283 283 282 281 281 281 281 281 282 283 285 285 285 285 285 285 285 285 285 286
280 279 280 281 281 281 281 278 282 282 283 282 282 283 278 279 279 278 278 279 279 280 279 281 281 284 282 280 280 280 279 280 280 282 282 283 283 284 285 285 284 283 283 284
282 277 274 278 282 286 286 277 282 282 281 281 285 279 277 278 278 278 279 279 279 279 280 279 280 283 282 281 279 278 279 279 280 281 281 281 282 283 285 285 285 285 284 284
279 277 277 281 284 288 277 277 282 282 281 281 278 279 278 279 277 278 278 278 279 279 278 278 279 281 280 280 280 280 281 281 281 281 281 282 283 283 283 284 285 284 284 284
279 276 274 284 285 280 282 285 283 283 282 280 279 278 277 276 276 277 276 277 278 278 277 278 279 279 278 278 281 283 281 280 280 281 281 282 282 283 283 282 282 282 282 283
278 277 283 286 283 285 288 285 284 283 282 281 279 276 276 275 275 275 276 276 277 277 277 277 278 278 277 278 281 281 282 280 280 280 281 281 281 281 282 282 280 280 281 281
280 282 282 283 285 284 284 284 285 284 282 281 279 278 277 276 276 275 275 275 276 276 276 275 277 277 277 278 281 281 280 280 280 280 280 280 280 281 280 281 280 280 279 280
280 281 282 282 283 283 282 282 281 281 280 279 279 277 277 275 275 275 274 274 275 275 274 274 275 276 276 278 280 280 280 280 280 280 279 279 279 278 279 280 280 279 279 279
279 283 283 281 283 284 281 280 280 279 278 278 278 276 277 276 275 275 273 274 273 273 273 273 274 274 275 276 278 279 278 278 278 279 279 278 277 278 277 277 278 278 279 279
284 284 283 283 282 282 280 279 279 278 277 276 276 276 275 274 274 274 274 272 272 272 272 272 272 271 272 274 276 276 276 277 278 277 277 276 275 274 274 277 275 275 275 277
285 284 281 282 279 280 280 279 278 277 276 276 275 275 274 273 273 272 271 272 272 271 271 271 270 269 270 272 273 272 275 273 276 276 276 275 274 273 273 272 272 272 273 272
285 285 283 281 280 279 279 278 276 275 275 274 275 274 273 271 270 270 271 272 272 270 269 269 269 268 270 271 272 273 275 276 275 275 275 272 274 274 273 272 271 271 272 272
281 281 280 279 278 278 277 277 276 275 274 274 273 272 272 271 270 269 269 269 270 268 268 265 268 267 268 269 271 273 274 272 272 275 275 274 274 273 273 272 271 270 269 269
279 278 278 277 278 277 276 276 275 273 271 271 270 270 269 269 268 267 266 266 266 265 265 265 266 265 266 267 270 273 274 274 271 275 274 274 273 272 272 272 271 270 269 267
283 283 282 281 278 276 274 274 273 272 270 269 268 265 264 265 266 265 264 263 264 266 266 266 265 267 267 268 271 272 272 273 273 273 273 273 272 272 272 272 271 270 270 268
281 280 279 279 278 276 274 273 272 270 267 265 264 264 263 262 264 264 262 263 265 267 270 267 269 268 269 269 270 271 271 271 271 271 271 270 271 271 272 272 271 270 270 269
277 277 276 275 275 273 270 268 267 265 263 264 261 263 266 264 262 262 262 266 270 272 269 269 269 269 268 268 267 270 270 270 270 270 270 270 270 270 270 269 270 270 270 269
272 271 270 269 266 266 266 265 266 266 263 262 265 265 265 264 264 262 267 271 273 268 269 268 270 270 269 267 269 270 269 269 269 269 268 268 268 269 269 268 269 269 269 269
269 268 266 266 267 266 264 265 266 264 264 263 260 259 261 267 268 267 266 269 273 267 270 271 270 266 267 262 269 269 269 268 268 268 268 268 267 267 267 267 267 268 268 268
268 268 267 266 268 269 266 267 265 266 265 264 265 266 267 270 271 270 270 272 272 272 271 271 267 264 263 267 268 268 267 267 267 267 267 267 266 266 266 266 267 267 267 267
268 269 269 269 268 270 271 271 269 271 267 268 268 266 269 272 272 273 272 270 268 269 271 271 268 264 261 268 267 267 267 267 267 267 267 262 267 266 266 266 266 267 266 264
269 269 270 269 272 273 273 274 274 274 274 274 274 273 271 271 270 271 270 270 268 270 271 270 265 264 266 267 267 266 266 267 267 267 267 267 267 266 267 266 265 266 266 265
272 273 273 274 274 275 275 274 274 274 273 273 273 272 271 269 269 269 269 267 268 267 269 269 268 267 268 268 267 266 267 267 266 266 265 266 267 266 266 266 266 266 266 266
273 272 274 274 275 275 275 273 273 273 271 270 270 270 269 268 267 267 265 268 268 267 267 267 266 265 265 266 267 267 267 268 266 266 266 266 266 266 266 266 266 266 265 264

GFSNGP_sfc_thetae_120.txt.gz
Theta_e
287 287 287 284 283 284 283 285 282 280 278 280 281 281 281 282 282 282 281 281 281 282 282 284 283 283 285 287 287 289 289 290 291 290 291 291 291 291 292 292 293 293 293 292
284 288 288 282 283 285 285 284 282 282 279 283 283 283 281 281 281 280 280 280 281 281 281 282 283 283 283 284 286 288 288 287 289 291 290 289 290 290 290 289 290 290 290 289
282 287 286 282 281 282 283 285 285 281 282 283 282 280 279 280 281 280 280 280 280 280 281 282 283 284 283 284 285 285 286 286 287 288 288 289 288 288 286 287 287 287 288 288
284 285 278 282 287 286 283 283 285 284 283 283 282 281 281 281 280 280 280 281 280 281 281 282 284 284 285 284 284 284 283 284 285 286 286 287 288 288 288 287 286 285 285 287
282 283 281 282 284 284 283 280 284 284 284 284 283 284 280 281 281 280 281 282 282 283 282 283 283 284 284 284 283 283 282 282 283 284 285 285 285 286 287 287 287 285 286 285
285 280 277 282 285 287 287 279 285 285 284 285 285 282 279 280 280 281 282 282 282 283 283 283 283 284 283 283 283 282 282 283 283 284 283 284 285 285 286 287 285 287 285 285
282 281 280 283 286 288 279 279 286 286 286 286 283 283 280 281 280 282 282 282 283 284 282 283 284 285 282 282 282 284 284 284 284 284 284 284 285 286 285 285 285 285 285 285
282 280 276 286 286 282 284 287 287 287 286 283 281 280 279 279 279 280 281 282 282 282 282 283 284 284 282 281 284 285 286 284 284 285 285 286 285 286 286 285 285 284 285 285
281 280 285 286 285 288 289 286 286 287 286 285 282 279 279 278 279 280 281 281 282 282 282 282 282 282 281 281 285 285 285 285 285 285 285 285 285 284 284 285 284 284 283 283
283 283 284 284 286 288 289 287 288 288 286 285 282 281 279 280 280 280 280 280 281 281 280 280 281 281 281 283 284 284 284 284 285 284 284 284 284 284 282 281 281 281 280 280
282 283 284 284 285 286 286 286 285 285 285 284 283 281 281 280 280 279 279 279 279 279 278 278 280 280 281 282 283 282 283 283 283 283 283 282 283 281 280 279 278 278 278 279
283 285 285 284 285 285 284 283 284 283 282 282 282 281 281 280 280 279 278 278 278 277 277 277 277 278 278 280 281 281 280 281 281 282 282 281 281 281 277 277 276 276 277 277
286 288 286 285 285 285 283 283 283 282 282 280 280 281 280 279 278 276 277 277 276 276 276 276 275 274 275 277 278 278 279 279 280 280 280 279 279 279 278 280 277 276 275 275
288 286 282 283 282 284 283 282 281 281 280 280 279 279 278 277 276 276 275 276 275 275 275 274 274 272 273 275 276 277 279 278 279 280 280 279 279 278 278 277 277 277 277 275
288 289 287 285 284 282 283 282 280 279 278 278 279 278 277 275 274 274 275 275 275 275 274 273 272 271 272 273 274 276 278 278 278 280 279 278 279 279 278 277 277 276 276 276
286 286 285 283 282 282 282 281 279 278 278 277 277 276 275 275 274 274 274 273 274 272 271 270 271 271 271 271 273 277 277 276 276 278 278 278 278 277 277 276 276 275 275 273
284 282 283 282 282 281 281 280 279 277 276 275 274 274 273 273 272 272 271 271 271 270 271 271 270 271 270 271 273 276 277 277 275 277 277 276 276 276 276 275 275 274 274 271
288 288 287 285 283 280 278 278 277 276 275 274 273 270 269 270 271 271 270 270 270 270 272 272 270 271 271 271 273 275 275 275 275 275 275 275 274 275 275 274 274 273 273 273
288 286 285 284 282 280 278 277 276 274 272 270 270 269 270 269 271 271 270 269 270 272 274 273 272 272 272 272 272 274 274 274 274 274 274 273 274 274 274 274 274 273 272 272
284 284 282 281 280 278 275 274 272 270 269 270 268 269 270 270 270 269 270 272 274 276 275 274 273 273 272 272 271 274 273 273 272 273 273 272 272 272 272 272 272 272 272 272
279 278 276 274 273 273 272 272 271 270 269 269 270 271 271 271 271 269 273 275 277 275 274 273 274 274 274 271 273 274 273 272 272 272 271 271 271 271 271 271 271 272 272 272
276 274 272 271 272 271 271 273 273 270 269 269 267 267 268 273 274 274 273 274 276 273 275 275 276 273 273 268 273 274 273 272 272 272 271 271 271 270 270 270 270 271 271 270
275 274 273 272 273 273 272 272 271 271 271 271 271 273 274 276 276 274 273 275 276 275 275 275 275 271 270 271 274 274 273 272 272 272 272 271 271 270 270 269 270 270 270 270
274 274 274 275 274 274 273 274 274 275 273 274 274 273 275 276 276 277 276 275 273 273 274 275 274 272 269 273 274 273 273 273 272 273 272 271 271 271 271 270 269 270 269 269
275 274 274 274 275 277 277 277 277 277 277 277 277 276 275 276 275 275 275 275 273 273 274 274 272 271 272 273 273 272 272 272 272 271 271 271 271 271 271 271 270 270 269 269
276 277 277 277 279 279 279 279 279 279 278 278 278 277 277 276 275 274 274 273 273 272 272 272 272 271 271 271 271 271 271 271 270 270 270 270 270 270 271 271 270 270 270 269
278 277 278 278 279 279 280 279 278 277 277 277 275 276 275 274 273 272 270 272 271 271 270 270 270 269 268 268 268 269 269 269 268 269 269 269 269 269 270 270 271 271 270 269

GFSNGP_sfc_thetae_123.txt.gz
Theta_e
290 289 289 286 282 286 284 287 283 282 280 281 282 283 283 284 284 283 282 282 282 282 283 283 285 285 286 286 288 290 290 290 292 293 293 292 291 290 290 290 290 291 291 290
285 290 289 284 284 286 285 285 283 284 280 284 285 285 283 284 284 283 282 282 281 281 282 282 284 285 286 287 287 288 288 288 291 291 291 291 289 290 289 289 289 289 289 289
283 289 288 283 283 285 285 287 287 284 284 285 284 283 282 282 283 282 282 282 281 281 282 283 284 285 285 286 286 286 285 286 288 289 289 290 291 289 288 287 287 286 287 287
284 287 278 283 291 290 287 287 288 286 285 286 285 284 284 283 282 282 282 283 283 283 283 284 285 285 286 285 286 285 284 284 286 287 287 288 288 288 288 288 287 286 286 286
283 283 282 283 287 287 286 284 287 286 286 286 286 286 282 283 283 283 284 285 286 286 287 287 286 286 286 285 285 284 283 283 284 285 285 286 286 286 288 287 287 286 286 286
285 280 279 284 287 291 290 281 288 288 287 286 286 281 282 283 282 284 286 286 286 286 286 286 287 287 286 285 285 284 285 285 285 286 285 285 286 286 287 288 286 288 286 286
284 283 283 285 287 290 280 282 288 289 289 289 284 283 282 283 282 285 285 285 287 286 285 285 286 287 285 286 285 288 288 287 287 286 286 286 286 288 287 287 287 286 286 286
285 281 279 287 287 283 287 289 289 288 288 285 284 282 281 280 281 283 285 285 286 285 284 285 285 285 284 284 287 288 288 287 287 287 288 288 287 287 286 286 285 285 285 286
285 282 286 287 288 290 290 288 288 288 288 286 283 280 280 280 281 283 284 285 285 284 284 284 284 284 283 284 286 287 287 286 287 286 287 287 286 286 284 284 284 283 282 283
285 284 284 287 289 290 289 288 289 288 288 287 283 283 282 283 283 283 283 283 284 283 281 281 282 282 282 284 285 286 285 285 285 285 285 285 285 283 282 280 280 279 279 279
283 285 286 286 287 288 287 287 287 288 287 286 286 284 284 283 283 283 282 282 282 281 280 280 280 280 281 282 283 283 283 283 283 284 284 283 284 282 281 279 278 277 277 278
286 287 287 285 287 288 286 285 285 285 284 285 285 284 284 283 282 282 281 281 280 280 279 279 278 278 278 280 281 281 281 281 282 283 283 283 282 282 278 278 277 277 276 276
287 289 287 286 287 287 285 285 285 285 284 282 284 284 283 281 280 279 280 280 279 278 279 278 277 275 276 277 278 278 279 280 281 282 281 281 280 280 279 281 279 278 277 277
290 288 284 285 284 287 286 285 285 284 284 283 282 282 281 280 279 278 277 278 278 278 277 276 275 273 274 275 276 276 278 279 279 280 280 280 280 280 280 279 278 279 279 277
289 290 287 288 286 285 285 284 282 281 281 281 281 280 280 278 277 277 278 278 278 277 276 275 274 273 274 274 275 277 279 279 279 280 280 280 280 279 279 279 278 278 279 278
290 288 286 285 284 284 284 283 282 281 281 280 279 279 279 278 277 276 276 276 276 274 274 272 273 273 272 273 274 278 279 278 278 278 279 279 279 278 278 277 277 277 277 275
287 285 285 284 284 284 283 283 282 280 279 278 277 276 276 275 275 274 274 274 274 273 274 275 273 273 272 273 273 277 278 278 277 278 278 277 277 277 276 276 276 276 276 273
291 290 289 287 285 284 282 282 281 280 278 278 276 273 273 274 274 273 273 273 273 273 274 275 273 273 274 273 273 276 277 277 276 276 276 276 275 275 276 275 275 275 275 275
291 289 289 287 286 283 281 280 279 279 276 273 272 272 273 273 274 274 274 272 272 274 277 275 274 274 275 274 273 276 276 275 275 275 275 274 274 275 274 274 274 274 274 274
289 288 287 285 284 282 279 277 275 273 273 273 272 272 273 273 273 272 273 273 276 278 277 277 276 275 276 275 273 274 276 275 274 274 274 273 274 273 273 273 273 273 274 274
284 283 280 279 277 276 276 275 273 272 272 272 274 273 273 274 274 273 274 276 278 276 276 275 276 276 276 274 274 276 275 275 274 273 273 273 273 273 272 272 272 273 272 272
280 277 276 274 274 274 275 276 275 273 272 272 271 271 272 274 276 276 276 276 277 276 276 277 277 277 275 272 275 275 275 275 274 274 273 273 273 272 272 272 271 271 271 272
278 277 276 275 275 275 276 275 274 274 273 273 273 274 276 277 278 276 275 277 277 276 275 277 276 275 274 274 274 274 274 274 274 274 273 273 273 273 272 272 271 271 271 271
278 278 277 278 277 276 275 275 276 276 275 277 276 275 276 277 278 279 279 277 276 274 275 276 276 274 273 274 274 274 274 274 273 273 273 272 273 273 274 273 272 272 271 271
278 278 278 277 277 278 279 278 279 279 278 279 278 278 277 278 277 277 276 276 275 274 274 274 273 272 272 273 273 272 272 272 273 272 272 272 272 271 271 272 272 273 272 271
279 279 279 280 281 282 281 280 281 280 280 279 280 279 279 278 277 276 276 274 274 273 273 273 272 271 271 270 269 269 270 270 270 270 269 270 270 270 270 271 271 271 272 272
281 281 280 280 282 282 282 281 280 279 278 279 277 278 277 276 275 274 272 273 272 271 271 270 270 269 269 268 267 267 267 267 267 267 266 267 267 268 268 269 269 270 270 270

GFSNGP_sfc_thetae_126.txt.gz
Theta_e
289 290 290 288 286 287 284 286 283 283 281 281 282 282 282 285 285 284 283 283 282 282 282 283 284 284 285 285 285 287 287 288 288 288 290 289 288 288 288 288 288 289 288 288
284 289 290 287 286 285 287 285 284 284 280 285 285 285 283 283 284 282 282 283 282 282 283 283 284 284 285 285 285 286 286 287 288 288 289 289 288 288 288 287 287 287 287 286
282 290 288 283 285 285 287 288 287 283 285 286 284 283 281 282 283 282 282 283 282 283 283 284 284 285 284 285 286 285 284 285 286 287 287 288 288 288 287 286 286 286 286 286
283 287 278 284 291 290 288 288 288 286 286 287 284 283 283 283 282 282 283 283 284 284 284 285 286 286 286 286 285 285 284 284 285 286 286 286 286 287 286 286 285 285 284 285
281 282 283 285 288 288 286 285 289 287 287 286 285 284 281 283 284 284 284 285 285 286 286 287 286 286 287 286 285 285 284 283 285 285 285 286 285 286 286 286 286 285 285 283
284 279 277 284 290 292 291 282 290 290 287 286 286 281 279 282 283 285 286 286 285 285 285 285 286 286 286 285 285 284 285 285 284 285 284 284 284 285 286 286 285 286 285 284
283 280 282 287 288 291 280 282 290 290 290 288 285 283 283 284 283 286 285 285 286 285 283 284 285 285 283 284 284 285 287 286 285 285 284 284 284 283 283 284 283 283 283 284
284 281 278 288 287 283 287 290 290 289 287 284 283 282 281 281 281 284 285 285 285 283 283 283 283 283 282 282 285 286 286 285 284 285 285 284 283 281 280 280 280 279 279 280
283 281 286 287 289 291 291 289 288 286 286 284 282 281 281 281 282 284 284 284 284 282 281 282 282 281 280 281 284 285 284 283 284 283 284 283 282 280 278 277 277 276 276 276
285 284 284 288 289 290 290 288 288 288 286 284 281 282 281 283 283 283 282 281 282 281 279 279 279 279 280 281 282 283 282 282 282 282 282 282 282 281 278 276 275 275 274 274
283 284 285 287 288 288 288 289 288 288 287 285 284 284 284 283 282 282 282 281 281 279 278 278 278 277 278 278 280 280 281 281 280 282 281 281 280 279 279 276 276 274 273 273
285 287 287 285 287 288 286 285 286 285 285 286 285 284 284 281 281 281 280 280 279 278 278 277 276 275 275 276 277 278 278 279 279 280 280 279 279 279 279 277 278 278 278 275
288 289 286 286 287 287 285 285 286 285 284 283 284 284 282 280 279 280 279 279 278 277 277 276 275 273 273 274 276 276 277 279 278 279 279 278 278 278 277 280 279 278 278 277
289 287 284 285 284 287 286 285 286 284 284 283 282 282 280 279 278 277 276 277 277 276 275 275 274 272 272 273 274 273 277 278 277 277 278 278 277 277 277 276 275 276 279 276
289 291 288 288 287 286 286 284 282 281 281 281 281 279 279 278 277 276 277 277 278 276 274 273 272 271 272 273 273 274 278 277 276 277 277 277 277 277 276 276 275 275 276 275
290 289 288 286 285 284 284 283 281 280 281 280 279 279 278 278 277 275 274 274 273 272 273 270 272 271 272 272 272 275 276 275 274 276 276 276 276 275 274 274 274 274 274 272
286 284 285 284 284 284 284 284 282 281 280 278 276 277 276 275 274 273 272 272 272 270 271 272 270 269 269 270 272 274 276 276 273 276 275 275 274 273 273 274 273 273 273 269
290 290 289 287 285 284 283 283 281 280 278 277 275 273 271 271 272 271 271 272 270 270 273 273 270 270 271 272 272 274 275 275 275 274 275 274 273 273 273 272 272 272 272 273
291 289 289 287 287 284 282 281 280 279 275 272 271 271 271 271 272 273 272 269 269 273 274 274 276 274 275 274 273 274 274 275 274 274 274 272 272 273 272 271 271 271 271 271
288 288 287 286 285 283 279 276 275 273 272 272 271 271 271 270 270 270 271 272 275 277 276 276 276 275 276 276 272 274 274 274 274 273 273 272 272 271 271 270 270 270 271 271
283 281 278 277 276 275 275 274 272 271 272 271 272 271 271 273 272 270 273 276 276 275 276 274 276 276 277 274 273 274 274 273 273 273 272 272 271 272 271 271 271 271 270 270
280 277 275 274 274 274 274 274 274 271 271 270 268 269 269 273 273 274 273 275 277 273 274 276 276 274 274 269 274 273 273 273 273 273 273 272 272 272 271 271 270 270 269 268
279 276 275 274 274 275 276 275 273 273 271 270 270 273 275 276 277 276 275 277 277 273 275 275 274 272 272 273 273 272 273 273 273 272 272 271 271 271 270 270 271 271 270 268
278 277 276 277 276 276 274 274 275 275 274 275 274 273 276 276 278 279 278 275 274 271 273 274 272 271 267 272 271 271 270 269 270 270 270 269 270 269 270 269 269 269 270 270
278 277 278 276 276 277 277 276 277 277 277 278 278 277 277 277 276 276 276 276 274 272 273 272 269 270 270 270 269 267 267 268 267 267 267 266 266 266 266 267 267 267 268 269
278 279 279 279 280 281 280 279 279 280 279 279 280 279 278 278 277 275 275 272 273 270 271 271 270 269 268 267 266 266 266 266 265 265 264 264 264 264 264 264 264 264 265 266
281 280 280 280 282 282 282 281 281 279 279 279 278 278 276 276 275 273 271 272 271 270 269 268 268 266 266 265 265 264 264 264 263 262 262 262 263 262 261 261 262 263 264 264

GFSNGP_sfc_thetae_129.txt.gz
Theta_e
287 288 288 288 286 286 284 283 281 281 279 281 282 282 283 284 282 282 281 281 281 281 282 283 283 284 284 284 284 286 286 286 286 288 288 288 287 287 287 286 286 286 286 286
281 286 287 284 284 284 286 285 282 283 279 285 285 284 282 281 282 281 281 281 282 282 282 283 284 284 284 284 284 285 285 285 286 287 287 286 286 285 285 285 285 285 285 285
279 287 287 281 282 282 286 287 286 280 283 284 283 282 281 281 281 281 281 282 281 281 283 282 283 285 284 284 285 284 284 284 285 286 286 286 286 286 285 284 284 284 283 283
280 281 273 284 291 290 288 288 285 283 283 284 282 282 282 282 281 281 282 282 282 281 281 283 284 284 285 285 284 284 283 284 284 284 284 285 285 285 285 285 283 283 282 282
277 278 281 284 287 287 287 284 287 284 283 282 282 281 280 282 283 282 282 282 282 282 281 283 283 284 284 283 283 283 282 283 283 283 282 282 282 283 283 284 284 283 282 281
280 277 273 282 287 290 290 279 288 287 283 282 282 279 277 282 282 282 283 283 282 282 281 280 282 282 282 281 281 281 282 281 282 283 281 279 279 280 281 281 281 281 281 279
279 278 280 285 288 290 278 278 290 290 287 285 280 279 281 282 282 283 282 283 282 281 279 280 280 281 279 280 281 282 283 283 283 282 281 279 278 278 278 278 277 277 277 277
280 278 275 287 286 282 285 287 285 285 283 280 281 281 281 281 280 282 281 281 281 279 278 279 279 279 277 277 281 282 282 281 281 281 282 280 277 277 276 275 274 274 274 274
281 279 285 288 288 289 290 284 283 283 284 282 280 280 280 280 280 281 280 278 279 278 277 277 277 276 275 277 280 282 281 279 280 280 280 280 278 276 275 274 273 272 272 271
281 283 284 287 289 289 289 287 286 285 284 282 280 281 280 281 282 280 279 277 277 277 275 274 275 275 275 276 278 279 279 279 279 279 278 277 278 277 274 273 273 273 271 268
281 284 285 287 288 288 288 289 287 287 285 283 283 282 283 281 280 279 279 278 277 276 275 273 273 273 273 275 276 277 278 278 277 278 277 277 276 274 275 272 275 272 267 267
278 283 282 284 286 287 285 285 286 286 284 285 285 282 281 279 279 279 277 277 276 275 274 273 272 272 272 273 275 275 276 276 276 276 276 276 276 276 279 276 279 279 278 271
283 286 285 286 287 286 284 285 285 285 285 283 283 281 279 278 278 278 277 277 275 274 274 273 272 271 271 273 274 274 274 276 275 276 276 275 275 275 272 275 279 279 278 278
286 285 283 284 283 286 286 285 286 284 283 281 280 279 278 277 277 276 275 276 275 274 273 273 271 268 268 268 269 268 270 273 271 271 271 271 270 270 268 266 265 268 274 275
286 288 285 287 286 285 285 283 281 280 280 279 279 277 277 276 275 274 275 275 276 273 271 269 267 265 268 271 271 270 273 270 265 267 267 266 268 268 265 265 265 264 265 267
288 286 286 284 283 282 282 281 279 278 279 278 278 277 277 276 274 273 273 273 272 271 271 265 268 266 267 267 266 268 270 269 268 269 269 268 267 266 268 268 268 266 265 266
285 284 283 281 281 280 280 280 279 278 276 274 274 274 273 272 271 269 268 268 266 265 265 264 263 262 263 262 262 264 267 270 268 271 269 268 266 267 267 266 266 266 265 262
288 285 284 282 281 280 280 280 279 277 275 274 273 271 269 269 269 266 265 264 263 265 263 264 264 265 264 264 265 269 269 271 271 269 270 266 266 268 266 265 266 265 264 267
288 285 283 283 281 280 280 279 277 276 272 270 268 266 265 263 264 263 263 262 262 266 268 265 272 272 272 270 271 270 269 268 270 271 268 267 264 266 264 261 262 261 262 264
286 285 284 282 281 279 273 273 273 271 270 269 267 266 264 263 263 263 262 265 266 270 270 271 273 274 274 272 269 270 270 267 269 269 267 267 261 260 262 263 264 261 258 260
281 278 276 274 271 270 271 270 270 269 267 267 267 265 265 264 263 262 264 270 269 268 271 271 272 272 273 270 270 266 266 265 264 266 266 265 267 265 264 264 265 266 263 260
273 273 271 271 271 268 267 268 269 267 266 263 261 261 262 264 263 264 265 271 272 266 270 272 272 268 268 265 270 265 268 269 269 269 269 268 267 266 266 266 267 266 265 266
272 271 271 270 270 269 269 268 265 266 265 264 265 264 266 271 271 270 270 274 273 268 271 269 265 263 263 263 262 263 261 262 265 266 265 265 266 265 265 265 265 266 265 265
271 272 272 273 273 272 270 268 272 271 268 269 267 266 271 268 270 274 274 269 264 264 264 267 267 264 260 261 262 259 258 256 263 261 263 261 261 260 261 262 263 262 262 262
274 274 274 273 274 273 274 274 275 274 275 275 275 274 274 274 267 267 267 266 267 265 264 262 262 260 260 259 256 255 255 255 256 260 258 257 255 256 259 260 259 259 260 261
276 276 275 276 276 276 275 275 274 274 275 272 274 274 272 271 270 269 266 265 265 263 262 258 258 257 255 255 254 254 254 257 258 256 252 255 258 258 257 256 256 257 260 261
277 276 276 276 278 278 277 275 275 274 274 275 271 271 270 267 265 265 262 260 260 259 255 254 256 257 256 255 255 254 253 254 254 254 250 256 256 250 253 254 256 258 260 258